<?xml version="1.0" encoding="UTF-8" standalone="no" ?>
<gpx xmlns="http://www.topografix.com/GPX/1/1" xmlns:xsi="http://www.w3.org/2001/XMLSchema-instance" xsi:schemaLocation="http://www.topografix.com/GPX/1/1 http://www.topografix.com/GPX/1/1/gpx.xsd" version="1.1" creator="VisuGPX - https://www.visugpx.com">
  <metadata>
    <name>Marche nordique Combe Serpent</name>
    <desc><![CDATA[Marche nordique Combe Serpent]]></desc>
  </metadata>
  <trk>
    <name><![CDATA[Combe Serpent]]></name>
    <desc><![CDATA[Jean Pierre, Jean Luc, Patrick]]></desc>
    <trkseg>
      <trkpt lat="47.3012" lon="4.98649">
        <ele>374.60000610352</ele>
        <time>2014-07-31T06:28:57.000Z</time>
      </trkpt>
      <trkpt lat="47.30119" lon="4.98651">
        <ele>374.60000610352</ele>
        <time>2014-07-31T06:29:05.000Z</time>
      </trkpt>
      <trkpt lat="47.30119" lon="4.98653">
        <ele>374.60000610352</ele>
        <time>2014-07-31T06:29:14.000Z</time>
      </trkpt>
      <trkpt lat="47.3012" lon="4.98653">
        <ele>374.60000610352</ele>
        <time>2014-07-31T06:29:25.000Z</time>
      </trkpt>
      <trkpt lat="47.30119" lon="4.9865">
        <ele>374.60000610352</ele>
        <time>2014-07-31T06:29:45.000Z</time>
      </trkpt>
      <trkpt lat="47.30119" lon="4.9865">
        <ele>374.60000610352</ele>
        <time>2014-07-31T06:29:49.000Z</time>
      </trkpt>
      <trkpt lat="47.30119" lon="4.98645">
        <ele>374.60000610352</ele>
        <time>2014-07-31T06:31:00.000Z</time>
      </trkpt>
      <trkpt lat="47.30119" lon="4.98645">
        <ele>374.60000610352</ele>
        <time>2014-07-31T06:31:04.000Z</time>
      </trkpt>
      <trkpt lat="47.30119" lon="4.98643">
        <ele>374.60000610352</ele>
        <time>2014-07-31T06:31:07.000Z</time>
      </trkpt>
      <trkpt lat="47.30119" lon="4.98644">
        <ele>374.60000610352</ele>
        <time>2014-07-31T06:31:09.000Z</time>
      </trkpt>
      <trkpt lat="47.30119" lon="4.98643">
        <ele>374.60000610352</ele>
        <time>2014-07-31T06:31:13.000Z</time>
      </trkpt>
      <trkpt lat="47.30119" lon="4.98643">
        <ele>374.60000610352</ele>
        <time>2014-07-31T06:31:17.000Z</time>
      </trkpt>
      <trkpt lat="47.30118" lon="4.98642">
        <ele>374.79998779297</ele>
        <time>2014-07-31T06:31:22.000Z</time>
      </trkpt>
      <trkpt lat="47.30117" lon="4.98646">
        <ele>374.79998779297</ele>
        <time>2014-07-31T06:31:55.000Z</time>
      </trkpt>
      <trkpt lat="47.30118" lon="4.98648">
        <ele>374.79998779297</ele>
        <time>2014-07-31T06:32:02.000Z</time>
      </trkpt>
      <trkpt lat="47.30116" lon="4.98649">
        <ele>374.79998779297</ele>
        <time>2014-07-31T06:32:14.000Z</time>
      </trkpt>
      <trkpt lat="47.30114" lon="4.98653">
        <ele>375</ele>
        <time>2014-07-31T06:32:43.000Z</time>
      </trkpt>
      <trkpt lat="47.30113" lon="4.98661">
        <ele>375</ele>
        <time>2014-07-31T06:32:48.000Z</time>
      </trkpt>
      <trkpt lat="47.30113" lon="4.98664">
        <ele>375</ele>
        <time>2014-07-31T06:32:50.000Z</time>
      </trkpt>
      <trkpt lat="47.30107" lon="4.98669">
        <ele>375.20001220703</ele>
        <time>2014-07-31T06:32:55.000Z</time>
      </trkpt>
      <trkpt lat="47.30106" lon="4.98668">
        <ele>375.20001220703</ele>
        <time>2014-07-31T06:32:56.000Z</time>
      </trkpt>
      <trkpt lat="47.30099" lon="4.9866">
        <ele>375.60000610352</ele>
        <time>2014-07-31T06:33:04.000Z</time>
      </trkpt>
      <trkpt lat="47.30095" lon="4.98645">
        <ele>376</ele>
        <time>2014-07-31T06:33:12.000Z</time>
      </trkpt>
      <trkpt lat="47.30095" lon="4.98636">
        <ele>376</ele>
        <time>2014-07-31T06:33:15.000Z</time>
      </trkpt>
      <trkpt lat="47.30099" lon="4.9863">
        <ele>375.79998779297</ele>
        <time>2014-07-31T06:33:20.000Z</time>
      </trkpt>
      <trkpt lat="47.3011" lon="4.98617">
        <ele>375.20001220703</ele>
        <time>2014-07-31T06:33:30.000Z</time>
      </trkpt>
      <trkpt lat="47.30119" lon="4.98605">
        <ele>374.39999389648</ele>
        <time>2014-07-31T06:33:38.000Z</time>
      </trkpt>
      <trkpt lat="47.30125" lon="4.98594">
        <ele>374</ele>
        <time>2014-07-31T06:33:45.000Z</time>
      </trkpt>
      <trkpt lat="47.30132" lon="4.98577">
        <ele>373.39999389648</ele>
        <time>2014-07-31T06:33:55.000Z</time>
      </trkpt>
      <trkpt lat="47.30136" lon="4.98557">
        <ele>372.79998779297</ele>
        <time>2014-07-31T06:34:04.000Z</time>
      </trkpt>
      <trkpt lat="47.30139" lon="4.98536">
        <ele>372.39999389648</ele>
        <time>2014-07-31T06:34:13.000Z</time>
      </trkpt>
      <trkpt lat="47.30141" lon="4.98521">
        <ele>372.39999389648</ele>
        <time>2014-07-31T06:34:19.000Z</time>
      </trkpt>
      <trkpt lat="47.30145" lon="4.98501">
        <ele>372.20001220703</ele>
        <time>2014-07-31T06:34:27.000Z</time>
      </trkpt>
      <trkpt lat="47.30147" lon="4.98483">
        <ele>372</ele>
        <time>2014-07-31T06:34:35.000Z</time>
      </trkpt>
      <trkpt lat="47.30149" lon="4.98462">
        <ele>371.79998779297</ele>
        <time>2014-07-31T06:34:44.000Z</time>
      </trkpt>
      <trkpt lat="47.30149" lon="4.98445">
        <ele>371.79998779297</ele>
        <time>2014-07-31T06:34:51.000Z</time>
      </trkpt>
      <trkpt lat="47.30146" lon="4.98428">
        <ele>372</ele>
        <time>2014-07-31T06:34:59.000Z</time>
      </trkpt>
      <trkpt lat="47.30142" lon="4.98414">
        <ele>372</ele>
        <time>2014-07-31T06:35:05.000Z</time>
      </trkpt>
      <trkpt lat="47.30138" lon="4.98399">
        <ele>372.20001220703</ele>
        <time>2014-07-31T06:35:13.000Z</time>
      </trkpt>
      <trkpt lat="47.30136" lon="4.98386">
        <ele>372.20001220703</ele>
        <time>2014-07-31T06:35:19.000Z</time>
      </trkpt>
      <trkpt lat="47.3014" lon="4.98376">
        <ele>371.79998779297</ele>
        <time>2014-07-31T06:35:24.000Z</time>
      </trkpt>
      <trkpt lat="47.3014" lon="4.98375">
        <ele>371.60000610352</ele>
        <time>2014-07-31T06:35:25.000Z</time>
      </trkpt>
      <trkpt lat="47.30144" lon="4.98361">
        <ele>371</ele>
        <time>2014-07-31T06:35:30.000Z</time>
      </trkpt>
      <trkpt lat="47.30149" lon="4.98342">
        <ele>370.20001220703</ele>
        <time>2014-07-31T06:35:38.000Z</time>
      </trkpt>
      <trkpt lat="47.30153" lon="4.98322">
        <ele>369.39999389648</ele>
        <time>2014-07-31T06:35:47.000Z</time>
      </trkpt>
      <trkpt lat="47.30158" lon="4.98302">
        <ele>368.60000610352</ele>
        <time>2014-07-31T06:35:55.000Z</time>
      </trkpt>
      <trkpt lat="47.30164" lon="4.98283">
        <ele>368</ele>
        <time>2014-07-31T06:36:04.000Z</time>
      </trkpt>
      <trkpt lat="47.30168" lon="4.98266">
        <ele>367.79998779297</ele>
        <time>2014-07-31T06:36:10.000Z</time>
      </trkpt>
      <trkpt lat="47.30172" lon="4.98249">
        <ele>367.60000610352</ele>
        <time>2014-07-31T06:36:19.000Z</time>
      </trkpt>
      <trkpt lat="47.30173" lon="4.98235">
        <ele>367.60000610352</ele>
        <time>2014-07-31T06:36:25.000Z</time>
      </trkpt>
      <trkpt lat="47.30173" lon="4.98233">
        <ele>367.60000610352</ele>
        <time>2014-07-31T06:36:26.000Z</time>
      </trkpt>
      <trkpt lat="47.30169" lon="4.98219">
        <ele>367.79998779297</ele>
        <time>2014-07-31T06:36:32.000Z</time>
      </trkpt>
      <trkpt lat="47.30168" lon="4.98216">
        <ele>367.79998779297</ele>
        <time>2014-07-31T06:36:34.000Z</time>
      </trkpt>
      <trkpt lat="47.30166" lon="4.98212">
        <ele>367.79998779297</ele>
        <time>2014-07-31T06:36:35.000Z</time>
      </trkpt>
      <trkpt lat="47.30166" lon="4.98202">
        <ele>367.79998779297</ele>
        <time>2014-07-31T06:36:40.000Z</time>
      </trkpt>
      <trkpt lat="47.3017" lon="4.98192">
        <ele>367.60000610352</ele>
        <time>2014-07-31T06:36:44.000Z</time>
      </trkpt>
      <trkpt lat="47.30178" lon="4.98185">
        <ele>367</ele>
        <time>2014-07-31T06:36:50.000Z</time>
      </trkpt>
      <trkpt lat="47.3018" lon="4.98185">
        <ele>367</ele>
        <time>2014-07-31T06:36:52.000Z</time>
      </trkpt>
      <trkpt lat="47.30182" lon="4.98184">
        <ele>366.79998779297</ele>
        <time>2014-07-31T06:36:54.000Z</time>
      </trkpt>
      <trkpt lat="47.30189" lon="4.98181">
        <ele>366.39999389648</ele>
        <time>2014-07-31T06:36:58.000Z</time>
      </trkpt>
      <trkpt lat="47.30195" lon="4.98183">
        <ele>366.20001220703</ele>
        <time>2014-07-31T06:37:02.000Z</time>
      </trkpt>
      <trkpt lat="47.30203" lon="4.98182">
        <ele>365.60000610352</ele>
        <time>2014-07-31T06:37:07.000Z</time>
      </trkpt>
      <trkpt lat="47.30215" lon="4.98178">
        <ele>365</ele>
        <time>2014-07-31T06:37:14.000Z</time>
      </trkpt>
      <trkpt lat="47.30216" lon="4.98179">
        <ele>364.79998779297</ele>
        <time>2014-07-31T06:37:15.000Z</time>
      </trkpt>
      <trkpt lat="47.30226" lon="4.98183">
        <ele>364.39999389648</ele>
        <time>2014-07-31T06:37:22.000Z</time>
      </trkpt>
      <trkpt lat="47.30235" lon="4.98183">
        <ele>364.20001220703</ele>
        <time>2014-07-31T06:37:26.000Z</time>
      </trkpt>
      <trkpt lat="47.30243" lon="4.9818">
        <ele>364.20001220703</ele>
        <time>2014-07-31T06:37:30.000Z</time>
      </trkpt>
      <trkpt lat="47.30256" lon="4.98164">
        <ele>364.20001220703</ele>
        <time>2014-07-31T06:37:40.000Z</time>
      </trkpt>
      <trkpt lat="47.30269" lon="4.98149">
        <ele>364</ele>
        <time>2014-07-31T06:37:49.000Z</time>
      </trkpt>
      <trkpt lat="47.3028" lon="4.98138">
        <ele>364</ele>
        <time>2014-07-31T06:37:57.000Z</time>
      </trkpt>
      <trkpt lat="47.30293" lon="4.98131">
        <ele>363.60000610352</ele>
        <time>2014-07-31T06:38:05.000Z</time>
      </trkpt>
      <trkpt lat="47.30308" lon="4.98129">
        <ele>363</ele>
        <time>2014-07-31T06:38:13.000Z</time>
      </trkpt>
      <trkpt lat="47.3032" lon="4.98131">
        <ele>362.20001220703</ele>
        <time>2014-07-31T06:38:20.000Z</time>
      </trkpt>
      <trkpt lat="47.30332" lon="4.98133">
        <ele>361.60000610352</ele>
        <time>2014-07-31T06:38:29.000Z</time>
      </trkpt>
      <trkpt lat="47.30342" lon="4.98134">
        <ele>361.39999389648</ele>
        <time>2014-07-31T06:38:35.000Z</time>
      </trkpt>
      <trkpt lat="47.3036" lon="4.98134">
        <ele>360.79998779297</ele>
        <time>2014-07-31T06:38:45.000Z</time>
      </trkpt>
      <trkpt lat="47.30375" lon="4.98131">
        <ele>360.39999389648</ele>
        <time>2014-07-31T06:38:55.000Z</time>
      </trkpt>
      <trkpt lat="47.30386" lon="4.98129">
        <ele>360</ele>
        <time>2014-07-31T06:39:02.000Z</time>
      </trkpt>
      <trkpt lat="47.3039" lon="4.9813">
        <ele>359.79998779297</ele>
        <time>2014-07-31T06:39:05.000Z</time>
      </trkpt>
      <trkpt lat="47.30401" lon="4.98129">
        <ele>359.39999389648</ele>
        <time>2014-07-31T06:39:13.000Z</time>
      </trkpt>
      <trkpt lat="47.30409" lon="4.98129">
        <ele>359</ele>
        <time>2014-07-31T06:39:18.000Z</time>
      </trkpt>
      <trkpt lat="47.30422" lon="4.98131">
        <ele>359</ele>
        <time>2014-07-31T06:39:25.000Z</time>
      </trkpt>
      <trkpt lat="47.30438" lon="4.98135">
        <ele>359</ele>
        <time>2014-07-31T06:39:35.000Z</time>
      </trkpt>
      <trkpt lat="47.30449" lon="4.98143">
        <ele>359</ele>
        <time>2014-07-31T06:39:43.000Z</time>
      </trkpt>
      <trkpt lat="47.30457" lon="4.98151">
        <ele>358.79998779297</ele>
        <time>2014-07-31T06:39:50.000Z</time>
      </trkpt>
      <trkpt lat="47.30458" lon="4.9815">
        <ele>359</ele>
        <time>2014-07-31T06:39:55.000Z</time>
      </trkpt>
      <trkpt lat="47.30459" lon="4.98148">
        <ele>359</ele>
        <time>2014-07-31T06:40:00.000Z</time>
      </trkpt>
      <trkpt lat="47.30461" lon="4.98145">
        <ele>359</ele>
        <time>2014-07-31T06:40:04.000Z</time>
      </trkpt>
      <trkpt lat="47.30463" lon="4.98142">
        <ele>359.20001220703</ele>
        <time>2014-07-31T06:40:10.000Z</time>
      </trkpt>
      <trkpt lat="47.30466" lon="4.98139">
        <ele>359.20001220703</ele>
        <time>2014-07-31T06:40:15.000Z</time>
      </trkpt>
      <trkpt lat="47.30474" lon="4.98145">
        <ele>359.20001220703</ele>
        <time>2014-07-31T06:40:22.000Z</time>
      </trkpt>
      <trkpt lat="47.3048" lon="4.98154">
        <ele>359.20001220703</ele>
        <time>2014-07-31T06:40:28.000Z</time>
      </trkpt>
      <trkpt lat="47.3049" lon="4.9817">
        <ele>358.79998779297</ele>
        <time>2014-07-31T06:40:38.000Z</time>
      </trkpt>
      <trkpt lat="47.30497" lon="4.98181">
        <ele>358.60000610352</ele>
        <time>2014-07-31T06:40:44.000Z</time>
      </trkpt>
      <trkpt lat="47.3051" lon="4.98199">
        <ele>358.39999389648</ele>
        <time>2014-07-31T06:40:55.000Z</time>
      </trkpt>
      <trkpt lat="47.30521" lon="4.98213">
        <ele>358.20001220703</ele>
        <time>2014-07-31T06:41:05.000Z</time>
      </trkpt>
      <trkpt lat="47.3053" lon="4.98225">
        <ele>358</ele>
        <time>2014-07-31T06:41:13.000Z</time>
      </trkpt>
      <trkpt lat="47.30543" lon="4.98244">
        <ele>357.60000610352</ele>
        <time>2014-07-31T06:41:24.000Z</time>
      </trkpt>
      <trkpt lat="47.30554" lon="4.98259">
        <ele>357.39999389648</ele>
        <time>2014-07-31T06:41:33.000Z</time>
      </trkpt>
      <trkpt lat="47.30566" lon="4.98274">
        <ele>357.20001220703</ele>
        <time>2014-07-31T06:41:44.000Z</time>
      </trkpt>
      <trkpt lat="47.30576" lon="4.98276">
        <ele>357.39999389648</ele>
        <time>2014-07-31T06:41:50.000Z</time>
      </trkpt>
      <trkpt lat="47.30589" lon="4.98272">
        <ele>357.60000610352</ele>
        <time>2014-07-31T06:41:59.000Z</time>
      </trkpt>
      <trkpt lat="47.30603" lon="4.98266">
        <ele>357.79998779297</ele>
        <time>2014-07-31T06:42:08.000Z</time>
      </trkpt>
      <trkpt lat="47.30609" lon="4.98257">
        <ele>358.20001220703</ele>
        <time>2014-07-31T06:42:14.000Z</time>
      </trkpt>
      <trkpt lat="47.30618" lon="4.98242">
        <ele>358.60000610352</ele>
        <time>2014-07-31T06:42:23.000Z</time>
      </trkpt>
      <trkpt lat="47.30631" lon="4.98222">
        <ele>358.79998779297</ele>
        <time>2014-07-31T06:42:34.000Z</time>
      </trkpt>
      <trkpt lat="47.30644" lon="4.98202">
        <ele>359</ele>
        <time>2014-07-31T06:42:46.000Z</time>
      </trkpt>
      <trkpt lat="47.30656" lon="4.98182">
        <ele>359.79998779297</ele>
        <time>2014-07-31T06:42:56.000Z</time>
      </trkpt>
      <trkpt lat="47.30668" lon="4.9816">
        <ele>360.79998779297</ele>
        <time>2014-07-31T06:43:08.000Z</time>
      </trkpt>
      <trkpt lat="47.30677" lon="4.98144">
        <ele>361.20001220703</ele>
        <time>2014-07-31T06:43:18.000Z</time>
      </trkpt>
      <trkpt lat="47.30688" lon="4.98126">
        <ele>362</ele>
        <time>2014-07-31T06:43:28.000Z</time>
      </trkpt>
      <trkpt lat="47.307" lon="4.98105">
        <ele>362.39999389648</ele>
        <time>2014-07-31T06:43:40.000Z</time>
      </trkpt>
      <trkpt lat="47.30712" lon="4.98086">
        <ele>362.79998779297</ele>
        <time>2014-07-31T06:43:50.000Z</time>
      </trkpt>
      <trkpt lat="47.30721" lon="4.9807">
        <ele>363</ele>
        <time>2014-07-31T06:44:00.000Z</time>
      </trkpt>
      <trkpt lat="47.30733" lon="4.98049">
        <ele>363</ele>
        <time>2014-07-31T06:44:11.000Z</time>
      </trkpt>
      <trkpt lat="47.30743" lon="4.98033">
        <ele>363.20001220703</ele>
        <time>2014-07-31T06:44:20.000Z</time>
      </trkpt>
      <trkpt lat="47.30755" lon="4.98014">
        <ele>363.39999389648</ele>
        <time>2014-07-31T06:44:31.000Z</time>
      </trkpt>
      <trkpt lat="47.30765" lon="4.97997">
        <ele>363.79998779297</ele>
        <time>2014-07-31T06:44:41.000Z</time>
      </trkpt>
      <trkpt lat="47.30777" lon="4.97976">
        <ele>364</ele>
        <time>2014-07-31T06:44:52.000Z</time>
      </trkpt>
      <trkpt lat="47.30787" lon="4.97958">
        <ele>364</ele>
        <time>2014-07-31T06:45:02.000Z</time>
      </trkpt>
      <trkpt lat="47.30793" lon="4.97947">
        <ele>364.20001220703</ele>
        <time>2014-07-31T06:45:08.000Z</time>
      </trkpt>
      <trkpt lat="47.30802" lon="4.97931">
        <ele>364.60000610352</ele>
        <time>2014-07-31T06:45:17.000Z</time>
      </trkpt>
      <trkpt lat="47.30809" lon="4.97917">
        <ele>364.60000610352</ele>
        <time>2014-07-31T06:45:25.000Z</time>
      </trkpt>
      <trkpt lat="47.30809" lon="4.97913">
        <ele>364.60000610352</ele>
        <time>2014-07-31T06:45:26.000Z</time>
      </trkpt>
      <trkpt lat="47.30796" lon="4.97898">
        <ele>364.79998779297</ele>
        <time>2014-07-31T06:45:37.000Z</time>
      </trkpt>
      <trkpt lat="47.30782" lon="4.97883">
        <ele>365.20001220703</ele>
        <time>2014-07-31T06:45:48.000Z</time>
      </trkpt>
      <trkpt lat="47.3077" lon="4.9787">
        <ele>365.39999389648</ele>
        <time>2014-07-31T06:45:57.000Z</time>
      </trkpt>
      <trkpt lat="47.30757" lon="4.97855">
        <ele>365.60000610352</ele>
        <time>2014-07-31T06:46:07.000Z</time>
      </trkpt>
      <trkpt lat="47.30744" lon="4.97838">
        <ele>365.60000610352</ele>
        <time>2014-07-31T06:46:18.000Z</time>
      </trkpt>
      <trkpt lat="47.30736" lon="4.97817">
        <ele>365.39999389648</ele>
        <time>2014-07-31T06:46:28.000Z</time>
      </trkpt>
      <trkpt lat="47.30734" lon="4.97793">
        <ele>365</ele>
        <time>2014-07-31T06:46:38.000Z</time>
      </trkpt>
      <trkpt lat="47.30737" lon="4.97773">
        <ele>365.20001220703</ele>
        <time>2014-07-31T06:46:46.000Z</time>
      </trkpt>
      <trkpt lat="47.30741" lon="4.97756">
        <ele>365</ele>
        <time>2014-07-31T06:46:53.000Z</time>
      </trkpt>
      <trkpt lat="47.30748" lon="4.9773">
        <ele>365</ele>
        <time>2014-07-31T06:47:04.000Z</time>
      </trkpt>
      <trkpt lat="47.30754" lon="4.97709">
        <ele>365</ele>
        <time>2014-07-31T06:47:13.000Z</time>
      </trkpt>
      <trkpt lat="47.30759" lon="4.97691">
        <ele>364.39999389648</ele>
        <time>2014-07-31T06:47:20.000Z</time>
      </trkpt>
      <trkpt lat="47.30763" lon="4.97675">
        <ele>364</ele>
        <time>2014-07-31T06:47:28.000Z</time>
      </trkpt>
      <trkpt lat="47.3077" lon="4.97654">
        <ele>363.39999389648</ele>
        <time>2014-07-31T06:47:38.000Z</time>
      </trkpt>
      <trkpt lat="47.30776" lon="4.9763">
        <ele>363.60000610352</ele>
        <time>2014-07-31T06:47:48.000Z</time>
      </trkpt>
      <trkpt lat="47.30782" lon="4.97605">
        <ele>363.79998779297</ele>
        <time>2014-07-31T06:47:59.000Z</time>
      </trkpt>
      <trkpt lat="47.30787" lon="4.97583">
        <ele>364</ele>
        <time>2014-07-31T06:48:09.000Z</time>
      </trkpt>
      <trkpt lat="47.30793" lon="4.97562">
        <ele>363.60000610352</ele>
        <time>2014-07-31T06:48:18.000Z</time>
      </trkpt>
      <trkpt lat="47.308" lon="4.97535">
        <ele>363</ele>
        <time>2014-07-31T06:48:30.000Z</time>
      </trkpt>
      <trkpt lat="47.30807" lon="4.97509">
        <ele>362.79998779297</ele>
        <time>2014-07-31T06:48:42.000Z</time>
      </trkpt>
      <trkpt lat="47.30814" lon="4.97483">
        <ele>362.60000610352</ele>
        <time>2014-07-31T06:48:53.000Z</time>
      </trkpt>
      <trkpt lat="47.3082" lon="4.97467">
        <ele>362.20001220703</ele>
        <time>2014-07-31T06:49:01.000Z</time>
      </trkpt>
      <trkpt lat="47.30826" lon="4.97447">
        <ele>362.20001220703</ele>
        <time>2014-07-31T06:49:10.000Z</time>
      </trkpt>
      <trkpt lat="47.30831" lon="4.97436">
        <ele>362</ele>
        <time>2014-07-31T06:49:16.000Z</time>
      </trkpt>
      <trkpt lat="47.30834" lon="4.9743">
        <ele>362</ele>
        <time>2014-07-31T06:49:19.000Z</time>
      </trkpt>
      <trkpt lat="47.30838" lon="4.97423">
        <ele>362.20001220703</ele>
        <time>2014-07-31T06:49:23.000Z</time>
      </trkpt>
      <trkpt lat="47.3084" lon="4.97418">
        <ele>362.20001220703</ele>
        <time>2014-07-31T06:49:26.000Z</time>
      </trkpt>
      <trkpt lat="47.30845" lon="4.97409">
        <ele>362.39999389648</ele>
        <time>2014-07-31T06:49:31.000Z</time>
      </trkpt>
      <trkpt lat="47.30852" lon="4.97399">
        <ele>362.60000610352</ele>
        <time>2014-07-31T06:49:37.000Z</time>
      </trkpt>
      <trkpt lat="47.30855" lon="4.97382">
        <ele>362.20001220703</ele>
        <time>2014-07-31T06:49:44.000Z</time>
      </trkpt>
      <trkpt lat="47.30859" lon="4.97371">
        <ele>361.79998779297</ele>
        <time>2014-07-31T06:49:49.000Z</time>
      </trkpt>
      <trkpt lat="47.30863" lon="4.97358">
        <ele>361.39999389648</ele>
        <time>2014-07-31T06:49:55.000Z</time>
      </trkpt>
      <trkpt lat="47.30863" lon="4.97344">
        <ele>360.79998779297</ele>
        <time>2014-07-31T06:50:00.000Z</time>
      </trkpt>
      <trkpt lat="47.30862" lon="4.9733">
        <ele>360.39999389648</ele>
        <time>2014-07-31T06:50:05.000Z</time>
      </trkpt>
      <trkpt lat="47.30862" lon="4.97322">
        <ele>360</ele>
        <time>2014-07-31T06:50:08.000Z</time>
      </trkpt>
      <trkpt lat="47.30861" lon="4.97309">
        <ele>358.79998779297</ele>
        <time>2014-07-31T06:50:13.000Z</time>
      </trkpt>
      <trkpt lat="47.30863" lon="4.97297">
        <ele>357.60000610352</ele>
        <time>2014-07-31T06:50:18.000Z</time>
      </trkpt>
      <trkpt lat="47.30864" lon="4.97286">
        <ele>356.60000610352</ele>
        <time>2014-07-31T06:50:23.000Z</time>
      </trkpt>
      <trkpt lat="47.30864" lon="4.97267">
        <ele>355.79998779297</ele>
        <time>2014-07-31T06:50:29.000Z</time>
      </trkpt>
      <trkpt lat="47.30864" lon="4.97258">
        <ele>355.39999389648</ele>
        <time>2014-07-31T06:50:32.000Z</time>
      </trkpt>
      <trkpt lat="47.30864" lon="4.97247">
        <ele>354.79998779297</ele>
        <time>2014-07-31T06:50:36.000Z</time>
      </trkpt>
      <trkpt lat="47.30866" lon="4.97237">
        <ele>354</ele>
        <time>2014-07-31T06:50:40.000Z</time>
      </trkpt>
      <trkpt lat="47.30866" lon="4.97234">
        <ele>353.79998779297</ele>
        <time>2014-07-31T06:50:41.000Z</time>
      </trkpt>
      <trkpt lat="47.30869" lon="4.97221">
        <ele>352.39999389648</ele>
        <time>2014-07-31T06:50:47.000Z</time>
      </trkpt>
      <trkpt lat="47.30871" lon="4.97218">
        <ele>352</ele>
        <time>2014-07-31T06:50:49.000Z</time>
      </trkpt>
      <trkpt lat="47.30874" lon="4.97212">
        <ele>351.20001220703</ele>
        <time>2014-07-31T06:50:52.000Z</time>
      </trkpt>
      <trkpt lat="47.30877" lon="4.97202">
        <ele>350</ele>
        <time>2014-07-31T06:50:56.000Z</time>
      </trkpt>
      <trkpt lat="47.30883" lon="4.97185">
        <ele>348.39999389648</ele>
        <time>2014-07-31T06:51:03.000Z</time>
      </trkpt>
      <trkpt lat="47.30888" lon="4.97169">
        <ele>346.79998779297</ele>
        <time>2014-07-31T06:51:10.000Z</time>
      </trkpt>
      <trkpt lat="47.30894" lon="4.97152">
        <ele>345.39999389648</ele>
        <time>2014-07-31T06:51:17.000Z</time>
      </trkpt>
      <trkpt lat="47.30902" lon="4.97134">
        <ele>343.60000610352</ele>
        <time>2014-07-31T06:51:24.000Z</time>
      </trkpt>
      <trkpt lat="47.30912" lon="4.97116">
        <ele>343.39999389648</ele>
        <time>2014-07-31T06:51:32.000Z</time>
      </trkpt>
      <trkpt lat="47.30927" lon="4.97097">
        <ele>346.60000610352</ele>
        <time>2014-07-31T06:51:43.000Z</time>
      </trkpt>
      <trkpt lat="47.30939" lon="4.97081">
        <ele>349.39999389648</ele>
        <time>2014-07-31T06:51:52.000Z</time>
      </trkpt>
      <trkpt lat="47.30952" lon="4.97066">
        <ele>348.79998779297</ele>
        <time>2014-07-31T06:52:01.000Z</time>
      </trkpt>
      <trkpt lat="47.30964" lon="4.97046">
        <ele>344.39999389648</ele>
        <time>2014-07-31T06:52:11.000Z</time>
      </trkpt>
      <trkpt lat="47.30975" lon="4.97029">
        <ele>343.20001220703</ele>
        <time>2014-07-31T06:52:20.000Z</time>
      </trkpt>
      <trkpt lat="47.30982" lon="4.97015">
        <ele>343</ele>
        <time>2014-07-31T06:52:26.000Z</time>
      </trkpt>
      <trkpt lat="47.30989" lon="4.97005">
        <ele>342.20001220703</ele>
        <time>2014-07-31T06:52:32.000Z</time>
      </trkpt>
      <trkpt lat="47.30997" lon="4.96988">
        <ele>341.39999389648</ele>
        <time>2014-07-31T06:52:40.000Z</time>
      </trkpt>
      <trkpt lat="47.31008" lon="4.96969">
        <ele>344.39999389648</ele>
        <time>2014-07-31T06:52:50.000Z</time>
      </trkpt>
      <trkpt lat="47.31015" lon="4.96957">
        <ele>341.60000610352</ele>
        <time>2014-07-31T06:52:57.000Z</time>
      </trkpt>
      <trkpt lat="47.31025" lon="4.96942">
        <ele>342.79998779297</ele>
        <time>2014-07-31T06:53:05.000Z</time>
      </trkpt>
      <trkpt lat="47.31033" lon="4.9693">
        <ele>344</ele>
        <time>2014-07-31T06:53:12.000Z</time>
      </trkpt>
      <trkpt lat="47.3104" lon="4.96913">
        <ele>344.79998779297</ele>
        <time>2014-07-31T06:53:20.000Z</time>
      </trkpt>
      <trkpt lat="47.31041" lon="4.96911">
        <ele>344.60000610352</ele>
        <time>2014-07-31T06:53:21.000Z</time>
      </trkpt>
      <trkpt lat="47.31049" lon="4.96894">
        <ele>342.20001220703</ele>
        <time>2014-07-31T06:53:29.000Z</time>
      </trkpt>
      <trkpt lat="47.31053" lon="4.96887">
        <ele>341</ele>
        <time>2014-07-31T06:53:33.000Z</time>
      </trkpt>
      <trkpt lat="47.31058" lon="4.96874">
        <ele>339.20001220703</ele>
        <time>2014-07-31T06:53:39.000Z</time>
      </trkpt>
      <trkpt lat="47.31059" lon="4.96872">
        <ele>339.20001220703</ele>
        <time>2014-07-31T06:53:40.000Z</time>
      </trkpt>
      <trkpt lat="47.31068" lon="4.96863">
        <ele>337.60000610352</ele>
        <time>2014-07-31T06:53:47.000Z</time>
      </trkpt>
      <trkpt lat="47.31077" lon="4.96853">
        <ele>336.79998779297</ele>
        <time>2014-07-31T06:53:54.000Z</time>
      </trkpt>
      <trkpt lat="47.31084" lon="4.96848">
        <ele>336.60000610352</ele>
        <time>2014-07-31T06:53:59.000Z</time>
      </trkpt>
      <trkpt lat="47.31091" lon="4.96846">
        <ele>336</ele>
        <time>2014-07-31T06:54:03.000Z</time>
      </trkpt>
      <trkpt lat="47.31101" lon="4.96842">
        <ele>335.39999389648</ele>
        <time>2014-07-31T06:54:10.000Z</time>
      </trkpt>
      <trkpt lat="47.31112" lon="4.96842">
        <ele>334</ele>
        <time>2014-07-31T06:54:15.000Z</time>
      </trkpt>
      <trkpt lat="47.31117" lon="4.9684">
        <ele>333.60000610352</ele>
        <time>2014-07-31T06:54:18.000Z</time>
      </trkpt>
      <trkpt lat="47.31123" lon="4.96837">
        <ele>333.60000610352</ele>
        <time>2014-07-31T06:54:22.000Z</time>
      </trkpt>
      <trkpt lat="47.31135" lon="4.96836">
        <ele>330.60000610352</ele>
        <time>2014-07-31T06:54:29.000Z</time>
      </trkpt>
      <trkpt lat="47.31146" lon="4.96834">
        <ele>327.79998779297</ele>
        <time>2014-07-31T06:54:35.000Z</time>
      </trkpt>
      <trkpt lat="47.31147" lon="4.96833">
        <ele>327.60000610352</ele>
        <time>2014-07-31T06:54:36.000Z</time>
      </trkpt>
      <trkpt lat="47.3115" lon="4.96833">
        <ele>326.79998779297</ele>
        <time>2014-07-31T06:54:39.000Z</time>
      </trkpt>
      <trkpt lat="47.31161" lon="4.96829">
        <ele>323.79998779297</ele>
        <time>2014-07-31T06:54:46.000Z</time>
      </trkpt>
      <trkpt lat="47.31172" lon="4.96826">
        <ele>323.20001220703</ele>
        <time>2014-07-31T06:54:52.000Z</time>
      </trkpt>
      <trkpt lat="47.31183" lon="4.96823">
        <ele>323</ele>
        <time>2014-07-31T06:54:59.000Z</time>
      </trkpt>
      <trkpt lat="47.31188" lon="4.96821">
        <ele>323</ele>
        <time>2014-07-31T06:55:02.000Z</time>
      </trkpt>
      <trkpt lat="47.31188" lon="4.96808">
        <ele>324.20001220703</ele>
        <time>2014-07-31T06:55:08.000Z</time>
      </trkpt>
      <trkpt lat="47.31188" lon="4.96806">
        <ele>324.60000610352</ele>
        <time>2014-07-31T06:55:09.000Z</time>
      </trkpt>
      <trkpt lat="47.31183" lon="4.96792">
        <ele>326.20001220703</ele>
        <time>2014-07-31T06:55:16.000Z</time>
      </trkpt>
      <trkpt lat="47.31177" lon="4.96778">
        <ele>326.20001220703</ele>
        <time>2014-07-31T06:55:23.000Z</time>
      </trkpt>
      <trkpt lat="47.31173" lon="4.96773">
        <ele>326.20001220703</ele>
        <time>2014-07-31T06:55:26.000Z</time>
      </trkpt>
      <trkpt lat="47.3117" lon="4.96764">
        <ele>326.20001220703</ele>
        <time>2014-07-31T06:55:32.000Z</time>
      </trkpt>
      <trkpt lat="47.31169" lon="4.96754">
        <ele>326.20001220703</ele>
        <time>2014-07-31T06:55:37.000Z</time>
      </trkpt>
      <trkpt lat="47.31168" lon="4.96745">
        <ele>326.39999389648</ele>
        <time>2014-07-31T06:55:42.000Z</time>
      </trkpt>
      <trkpt lat="47.31166" lon="4.96738">
        <ele>326.39999389648</ele>
        <time>2014-07-31T06:55:45.000Z</time>
      </trkpt>
      <trkpt lat="47.31166" lon="4.96734">
        <ele>326.60000610352</ele>
        <time>2014-07-31T06:55:47.000Z</time>
      </trkpt>
      <trkpt lat="47.31164" lon="4.9673">
        <ele>326.60000610352</ele>
        <time>2014-07-31T06:55:49.000Z</time>
      </trkpt>
      <trkpt lat="47.31162" lon="4.96718">
        <ele>327</ele>
        <time>2014-07-31T06:55:54.000Z</time>
      </trkpt>
      <trkpt lat="47.31161" lon="4.96707">
        <ele>327.60000610352</ele>
        <time>2014-07-31T06:55:59.000Z</time>
      </trkpt>
      <trkpt lat="47.31161" lon="4.96701">
        <ele>327.79998779297</ele>
        <time>2014-07-31T06:56:01.000Z</time>
      </trkpt>
      <trkpt lat="47.3116" lon="4.96687">
        <ele>328.20001220703</ele>
        <time>2014-07-31T06:56:06.000Z</time>
      </trkpt>
      <trkpt lat="47.31163" lon="4.96668">
        <ele>327.60000610352</ele>
        <time>2014-07-31T06:56:13.000Z</time>
      </trkpt>
      <trkpt lat="47.31166" lon="4.9665">
        <ele>328</ele>
        <time>2014-07-31T06:56:20.000Z</time>
      </trkpt>
      <trkpt lat="47.31167" lon="4.96643">
        <ele>328.60000610352</ele>
        <time>2014-07-31T06:56:23.000Z</time>
      </trkpt>
      <trkpt lat="47.31167" lon="4.96638">
        <ele>328.60000610352</ele>
        <time>2014-07-31T06:56:25.000Z</time>
      </trkpt>
      <trkpt lat="47.31169" lon="4.9663">
        <ele>329.20001220703</ele>
        <time>2014-07-31T06:56:29.000Z</time>
      </trkpt>
      <trkpt lat="47.3117" lon="4.96626">
        <ele>329.39999389648</ele>
        <time>2014-07-31T06:56:31.000Z</time>
      </trkpt>
      <trkpt lat="47.3117" lon="4.96616">
        <ele>329.60000610352</ele>
        <time>2014-07-31T06:56:35.000Z</time>
      </trkpt>
      <trkpt lat="47.3117" lon="4.96612">
        <ele>329.60000610352</ele>
        <time>2014-07-31T06:56:37.000Z</time>
      </trkpt>
      <trkpt lat="47.3117" lon="4.9661">
        <ele>329.60000610352</ele>
        <time>2014-07-31T06:56:38.000Z</time>
      </trkpt>
      <trkpt lat="47.3117" lon="4.96598">
        <ele>329.79998779297</ele>
        <time>2014-07-31T06:56:43.000Z</time>
      </trkpt>
      <trkpt lat="47.3117" lon="4.96588">
        <ele>329.79998779297</ele>
        <time>2014-07-31T06:56:47.000Z</time>
      </trkpt>
      <trkpt lat="47.3117" lon="4.96568">
        <ele>330</ele>
        <time>2014-07-31T06:56:55.000Z</time>
      </trkpt>
      <trkpt lat="47.3117" lon="4.96554">
        <ele>330.39999389648</ele>
        <time>2014-07-31T06:57:02.000Z</time>
      </trkpt>
      <trkpt lat="47.31171" lon="4.96549">
        <ele>330.60000610352</ele>
        <time>2014-07-31T06:57:04.000Z</time>
      </trkpt>
      <trkpt lat="47.3117" lon="4.96546">
        <ele>330.60000610352</ele>
        <time>2014-07-31T06:57:06.000Z</time>
      </trkpt>
      <trkpt lat="47.31168" lon="4.96534">
        <ele>330.79998779297</ele>
        <time>2014-07-31T06:57:11.000Z</time>
      </trkpt>
      <trkpt lat="47.31167" lon="4.96526">
        <ele>331</ele>
        <time>2014-07-31T06:57:15.000Z</time>
      </trkpt>
      <trkpt lat="47.31166" lon="4.96518">
        <ele>331.39999389648</ele>
        <time>2014-07-31T06:57:19.000Z</time>
      </trkpt>
      <trkpt lat="47.31166" lon="4.96516">
        <ele>331.39999389648</ele>
        <time>2014-07-31T06:57:20.000Z</time>
      </trkpt>
      <trkpt lat="47.31165" lon="4.9651">
        <ele>331.60000610352</ele>
        <time>2014-07-31T06:57:23.000Z</time>
      </trkpt>
      <trkpt lat="47.31162" lon="4.96498">
        <ele>332.20001220703</ele>
        <time>2014-07-31T06:57:27.000Z</time>
      </trkpt>
      <trkpt lat="47.3116" lon="4.96486">
        <ele>333</ele>
        <time>2014-07-31T06:57:32.000Z</time>
      </trkpt>
      <trkpt lat="47.31156" lon="4.96472">
        <ele>334.20001220703</ele>
        <time>2014-07-31T06:57:38.000Z</time>
      </trkpt>
      <trkpt lat="47.31151" lon="4.96458">
        <ele>335.20001220703</ele>
        <time>2014-07-31T06:57:44.000Z</time>
      </trkpt>
      <trkpt lat="47.3115" lon="4.96456">
        <ele>335.20001220703</ele>
        <time>2014-07-31T06:57:45.000Z</time>
      </trkpt>
      <trkpt lat="47.31145" lon="4.96443">
        <ele>335</ele>
        <time>2014-07-31T06:57:51.000Z</time>
      </trkpt>
      <trkpt lat="47.31142" lon="4.96431">
        <ele>335.39999389648</ele>
        <time>2014-07-31T06:57:56.000Z</time>
      </trkpt>
      <trkpt lat="47.31141" lon="4.96429">
        <ele>335.60000610352</ele>
        <time>2014-07-31T06:57:57.000Z</time>
      </trkpt>
      <trkpt lat="47.3113" lon="4.96409">
        <ele>336.79998779297</ele>
        <time>2014-07-31T06:58:08.000Z</time>
      </trkpt>
      <trkpt lat="47.31127" lon="4.96402">
        <ele>337.39999389648</ele>
        <time>2014-07-31T06:58:12.000Z</time>
      </trkpt>
      <trkpt lat="47.3112" lon="4.96386">
        <ele>338.39999389648</ele>
        <time>2014-07-31T06:58:20.000Z</time>
      </trkpt>
      <trkpt lat="47.31113" lon="4.96371">
        <ele>339.20001220703</ele>
        <time>2014-07-31T06:58:27.000Z</time>
      </trkpt>
      <trkpt lat="47.31112" lon="4.96367">
        <ele>339</ele>
        <time>2014-07-31T06:58:29.000Z</time>
      </trkpt>
      <trkpt lat="47.31106" lon="4.96359">
        <ele>338.39999389648</ele>
        <time>2014-07-31T06:58:34.000Z</time>
      </trkpt>
      <trkpt lat="47.31105" lon="4.96357">
        <ele>338.20001220703</ele>
        <time>2014-07-31T06:58:35.000Z</time>
      </trkpt>
      <trkpt lat="47.31096" lon="4.96349">
        <ele>337</ele>
        <time>2014-07-31T06:58:42.000Z</time>
      </trkpt>
      <trkpt lat="47.31096" lon="4.96346">
        <ele>337.20001220703</ele>
        <time>2014-07-31T06:58:43.000Z</time>
      </trkpt>
      <trkpt lat="47.31092" lon="4.9633">
        <ele>337</ele>
        <time>2014-07-31T06:58:50.000Z</time>
      </trkpt>
      <trkpt lat="47.31089" lon="4.96318">
        <ele>336.60000610352</ele>
        <time>2014-07-31T06:58:56.000Z</time>
      </trkpt>
      <trkpt lat="47.31085" lon="4.96307">
        <ele>336.39999389648</ele>
        <time>2014-07-31T06:59:02.000Z</time>
      </trkpt>
      <trkpt lat="47.31084" lon="4.96306">
        <ele>336.20001220703</ele>
        <time>2014-07-31T06:59:03.000Z</time>
      </trkpt>
      <trkpt lat="47.31083" lon="4.96302">
        <ele>336.20001220703</ele>
        <time>2014-07-31T06:59:05.000Z</time>
      </trkpt>
      <trkpt lat="47.31081" lon="4.96295">
        <ele>336</ele>
        <time>2014-07-31T06:59:09.000Z</time>
      </trkpt>
      <trkpt lat="47.31079" lon="4.96288">
        <ele>336.20001220703</ele>
        <time>2014-07-31T06:59:12.000Z</time>
      </trkpt>
      <trkpt lat="47.31075" lon="4.96279">
        <ele>336.39999389648</ele>
        <time>2014-07-31T06:59:17.000Z</time>
      </trkpt>
      <trkpt lat="47.31071" lon="4.96268">
        <ele>337</ele>
        <time>2014-07-31T06:59:22.000Z</time>
      </trkpt>
      <trkpt lat="47.3107" lon="4.96264">
        <ele>337.20001220703</ele>
        <time>2014-07-31T06:59:24.000Z</time>
      </trkpt>
      <trkpt lat="47.31067" lon="4.96259">
        <ele>337.39999389648</ele>
        <time>2014-07-31T06:59:27.000Z</time>
      </trkpt>
      <trkpt lat="47.3106" lon="4.96245">
        <ele>337.79998779297</ele>
        <time>2014-07-31T06:59:34.000Z</time>
      </trkpt>
      <trkpt lat="47.31053" lon="4.96232">
        <ele>338.20001220703</ele>
        <time>2014-07-31T06:59:40.000Z</time>
      </trkpt>
      <trkpt lat="47.31048" lon="4.96225">
        <ele>338.39999389648</ele>
        <time>2014-07-31T06:59:45.000Z</time>
      </trkpt>
      <trkpt lat="47.31044" lon="4.96221">
        <ele>338.39999389648</ele>
        <time>2014-07-31T06:59:48.000Z</time>
      </trkpt>
      <trkpt lat="47.31036" lon="4.96209">
        <ele>338.79998779297</ele>
        <time>2014-07-31T06:59:54.000Z</time>
      </trkpt>
      <trkpt lat="47.31035" lon="4.96208">
        <ele>338.79998779297</ele>
        <time>2014-07-31T06:59:55.000Z</time>
      </trkpt>
      <trkpt lat="47.31024" lon="4.96195">
        <ele>339.60000610352</ele>
        <time>2014-07-31T07:00:03.000Z</time>
      </trkpt>
      <trkpt lat="47.31014" lon="4.96185">
        <ele>340</ele>
        <time>2014-07-31T07:00:10.000Z</time>
      </trkpt>
      <trkpt lat="47.31005" lon="4.96177">
        <ele>340.39999389648</ele>
        <time>2014-07-31T07:00:16.000Z</time>
      </trkpt>
      <trkpt lat="47.30996" lon="4.96167">
        <ele>340.79998779297</ele>
        <time>2014-07-31T07:00:23.000Z</time>
      </trkpt>
      <trkpt lat="47.30976" lon="4.9615">
        <ele>342</ele>
        <time>2014-07-31T07:00:37.000Z</time>
      </trkpt>
      <trkpt lat="47.30968" lon="4.96143">
        <ele>342.60000610352</ele>
        <time>2014-07-31T07:00:44.000Z</time>
      </trkpt>
      <trkpt lat="47.30964" lon="4.96141">
        <ele>342.60000610352</ele>
        <time>2014-07-31T07:00:47.000Z</time>
      </trkpt>
      <trkpt lat="47.30956" lon="4.96136">
        <ele>342.79998779297</ele>
        <time>2014-07-31T07:00:53.000Z</time>
      </trkpt>
      <trkpt lat="47.3095" lon="4.96131">
        <ele>343.20001220703</ele>
        <time>2014-07-31T07:00:57.000Z</time>
      </trkpt>
      <trkpt lat="47.30941" lon="4.96124">
        <ele>343.79998779297</ele>
        <time>2014-07-31T07:01:04.000Z</time>
      </trkpt>
      <trkpt lat="47.3094" lon="4.96124">
        <ele>343.79998779297</ele>
        <time>2014-07-31T07:01:05.000Z</time>
      </trkpt>
      <trkpt lat="47.30932" lon="4.96118">
        <ele>345</ele>
        <time>2014-07-31T07:01:11.000Z</time>
      </trkpt>
      <trkpt lat="47.30925" lon="4.9611">
        <ele>346.79998779297</ele>
        <time>2014-07-31T07:01:17.000Z</time>
      </trkpt>
      <trkpt lat="47.30922" lon="4.96109">
        <ele>347</ele>
        <time>2014-07-31T07:01:19.000Z</time>
      </trkpt>
      <trkpt lat="47.30915" lon="4.96102">
        <ele>348.20001220703</ele>
        <time>2014-07-31T07:01:24.000Z</time>
      </trkpt>
      <trkpt lat="47.30915" lon="4.96102">
        <ele>348.39999389648</ele>
        <time>2014-07-31T07:01:25.000Z</time>
      </trkpt>
      <trkpt lat="47.30907" lon="4.96097">
        <ele>348.79998779297</ele>
        <time>2014-07-31T07:01:31.000Z</time>
      </trkpt>
      <trkpt lat="47.30903" lon="4.96094">
        <ele>349</ele>
        <time>2014-07-31T07:01:35.000Z</time>
      </trkpt>
      <trkpt lat="47.30897" lon="4.96088">
        <ele>349.79998779297</ele>
        <time>2014-07-31T07:01:41.000Z</time>
      </trkpt>
      <trkpt lat="47.30894" lon="4.96085">
        <ele>350</ele>
        <time>2014-07-31T07:01:43.000Z</time>
      </trkpt>
      <trkpt lat="47.30886" lon="4.9608">
        <ele>350.20001220703</ele>
        <time>2014-07-31T07:01:49.000Z</time>
      </trkpt>
      <trkpt lat="47.30881" lon="4.9608">
        <ele>349.79998779297</ele>
        <time>2014-07-31T07:01:51.000Z</time>
      </trkpt>
      <trkpt lat="47.30872" lon="4.96075">
        <ele>350</ele>
        <time>2014-07-31T07:01:57.000Z</time>
      </trkpt>
      <trkpt lat="47.30866" lon="4.9607">
        <ele>350.39999389648</ele>
        <time>2014-07-31T07:02:01.000Z</time>
      </trkpt>
      <trkpt lat="47.30857" lon="4.96065">
        <ele>350.60000610352</ele>
        <time>2014-07-31T07:02:07.000Z</time>
      </trkpt>
      <trkpt lat="47.30843" lon="4.96055">
        <ele>351.39999389648</ele>
        <time>2014-07-31T07:02:16.000Z</time>
      </trkpt>
      <trkpt lat="47.30842" lon="4.96055">
        <ele>351.60000610352</ele>
        <time>2014-07-31T07:02:17.000Z</time>
      </trkpt>
      <trkpt lat="47.30834" lon="4.96051">
        <ele>352.39999389648</ele>
        <time>2014-07-31T07:02:23.000Z</time>
      </trkpt>
      <trkpt lat="47.30823" lon="4.96047">
        <ele>352.79998779297</ele>
        <time>2014-07-31T07:02:30.000Z</time>
      </trkpt>
      <trkpt lat="47.30819" lon="4.96046">
        <ele>352.79998779297</ele>
        <time>2014-07-31T07:02:33.000Z</time>
      </trkpt>
      <trkpt lat="47.3081" lon="4.96042">
        <ele>352.79998779297</ele>
        <time>2014-07-31T07:02:38.000Z</time>
      </trkpt>
      <trkpt lat="47.30798" lon="4.96037">
        <ele>353.60000610352</ele>
        <time>2014-07-31T07:02:46.000Z</time>
      </trkpt>
      <trkpt lat="47.30789" lon="4.96035">
        <ele>354.20001220703</ele>
        <time>2014-07-31T07:02:52.000Z</time>
      </trkpt>
      <trkpt lat="47.30781" lon="4.96033">
        <ele>354.60000610352</ele>
        <time>2014-07-31T07:02:58.000Z</time>
      </trkpt>
      <trkpt lat="47.3078" lon="4.96033">
        <ele>354.60000610352</ele>
        <time>2014-07-31T07:02:59.000Z</time>
      </trkpt>
      <trkpt lat="47.30776" lon="4.96031">
        <ele>355</ele>
        <time>2014-07-31T07:03:02.000Z</time>
      </trkpt>
      <trkpt lat="47.3077" lon="4.96028">
        <ele>355.60000610352</ele>
        <time>2014-07-31T07:03:07.000Z</time>
      </trkpt>
      <trkpt lat="47.3076" lon="4.96024">
        <ele>356.60000610352</ele>
        <time>2014-07-31T07:03:13.000Z</time>
      </trkpt>
      <trkpt lat="47.30748" lon="4.96023">
        <ele>356.79998779297</ele>
        <time>2014-07-31T07:03:21.000Z</time>
      </trkpt>
      <trkpt lat="47.30737" lon="4.96022">
        <ele>355.79998779297</ele>
        <time>2014-07-31T07:03:27.000Z</time>
      </trkpt>
      <trkpt lat="47.30736" lon="4.96022">
        <ele>355.60000610352</ele>
        <time>2014-07-31T07:03:28.000Z</time>
      </trkpt>
      <trkpt lat="47.30734" lon="4.96022">
        <ele>355.39999389648</ele>
        <time>2014-07-31T07:03:30.000Z</time>
      </trkpt>
      <trkpt lat="47.30721" lon="4.96015">
        <ele>355.39999389648</ele>
        <time>2014-07-31T07:03:38.000Z</time>
      </trkpt>
      <trkpt lat="47.30715" lon="4.96012">
        <ele>356</ele>
        <time>2014-07-31T07:03:42.000Z</time>
      </trkpt>
      <trkpt lat="47.30703" lon="4.96007">
        <ele>357.20001220703</ele>
        <time>2014-07-31T07:03:50.000Z</time>
      </trkpt>
      <trkpt lat="47.30693" lon="4.96001">
        <ele>358.20001220703</ele>
        <time>2014-07-31T07:03:57.000Z</time>
      </trkpt>
      <trkpt lat="47.3069" lon="4.95997">
        <ele>358.60000610352</ele>
        <time>2014-07-31T07:03:59.000Z</time>
      </trkpt>
      <trkpt lat="47.30679" lon="4.95991">
        <ele>359.79998779297</ele>
        <time>2014-07-31T07:04:06.000Z</time>
      </trkpt>
      <trkpt lat="47.30673" lon="4.95984">
        <ele>360.60000610352</ele>
        <time>2014-07-31T07:04:11.000Z</time>
      </trkpt>
      <trkpt lat="47.30666" lon="4.95976">
        <ele>361.60000610352</ele>
        <time>2014-07-31T07:04:17.000Z</time>
      </trkpt>
      <trkpt lat="47.30665" lon="4.9597">
        <ele>362</ele>
        <time>2014-07-31T07:04:21.000Z</time>
      </trkpt>
      <trkpt lat="47.30661" lon="4.95965">
        <ele>362.79998779297</ele>
        <time>2014-07-31T07:04:24.000Z</time>
      </trkpt>
      <trkpt lat="47.30654" lon="4.95957">
        <ele>363.79998779297</ele>
        <time>2014-07-31T07:04:29.000Z</time>
      </trkpt>
      <trkpt lat="47.3065" lon="4.95944">
        <ele>363.20001220703</ele>
        <time>2014-07-31T07:04:35.000Z</time>
      </trkpt>
      <trkpt lat="47.30646" lon="4.95937">
        <ele>363.79998779297</ele>
        <time>2014-07-31T07:04:39.000Z</time>
      </trkpt>
      <trkpt lat="47.30642" lon="4.95929">
        <ele>364.39999389648</ele>
        <time>2014-07-31T07:04:43.000Z</time>
      </trkpt>
      <trkpt lat="47.30635" lon="4.95922">
        <ele>364.79998779297</ele>
        <time>2014-07-31T07:04:49.000Z</time>
      </trkpt>
      <trkpt lat="47.30629" lon="4.95908">
        <ele>366.20001220703</ele>
        <time>2014-07-31T07:04:56.000Z</time>
      </trkpt>
      <trkpt lat="47.30628" lon="4.95905">
        <ele>366.60000610352</ele>
        <time>2014-07-31T07:04:58.000Z</time>
      </trkpt>
      <trkpt lat="47.30619" lon="4.95896">
        <ele>366.79998779297</ele>
        <time>2014-07-31T07:05:05.000Z</time>
      </trkpt>
      <trkpt lat="47.30614" lon="4.95892">
        <ele>366.39999389648</ele>
        <time>2014-07-31T07:05:09.000Z</time>
      </trkpt>
      <trkpt lat="47.30604" lon="4.9588">
        <ele>367</ele>
        <time>2014-07-31T07:05:16.000Z</time>
      </trkpt>
      <trkpt lat="47.30598" lon="4.95874">
        <ele>367</ele>
        <time>2014-07-31T07:05:21.000Z</time>
      </trkpt>
      <trkpt lat="47.30595" lon="4.95873">
        <ele>366.79998779297</ele>
        <time>2014-07-31T07:05:23.000Z</time>
      </trkpt>
      <trkpt lat="47.30586" lon="4.95867">
        <ele>366.20001220703</ele>
        <time>2014-07-31T07:05:29.000Z</time>
      </trkpt>
      <trkpt lat="47.30578" lon="4.9586">
        <ele>366.20001220703</ele>
        <time>2014-07-31T07:05:34.000Z</time>
      </trkpt>
      <trkpt lat="47.30574" lon="4.95855">
        <ele>366.60000610352</ele>
        <time>2014-07-31T07:05:38.000Z</time>
      </trkpt>
      <trkpt lat="47.30565" lon="4.95847">
        <ele>367</ele>
        <time>2014-07-31T07:05:44.000Z</time>
      </trkpt>
      <trkpt lat="47.30556" lon="4.95838">
        <ele>367.60000610352</ele>
        <time>2014-07-31T07:05:50.000Z</time>
      </trkpt>
      <trkpt lat="47.30555" lon="4.95837">
        <ele>367.60000610352</ele>
        <time>2014-07-31T07:05:51.000Z</time>
      </trkpt>
      <trkpt lat="47.30549" lon="4.95833">
        <ele>367.60000610352</ele>
        <time>2014-07-31T07:05:56.000Z</time>
      </trkpt>
      <trkpt lat="47.30549" lon="4.95833">
        <ele>367.60000610352</ele>
        <time>2014-07-31T07:05:57.000Z</time>
      </trkpt>
      <trkpt lat="47.30547" lon="4.95831">
        <ele>367.79998779297</ele>
        <time>2014-07-31T07:05:58.000Z</time>
      </trkpt>
      <trkpt lat="47.30544" lon="4.95827">
        <ele>368.20001220703</ele>
        <time>2014-07-31T07:06:01.000Z</time>
      </trkpt>
      <trkpt lat="47.30543" lon="4.95826">
        <ele>368.20001220703</ele>
        <time>2014-07-31T07:06:03.000Z</time>
      </trkpt>
      <trkpt lat="47.30536" lon="4.95819">
        <ele>368.60000610352</ele>
        <time>2014-07-31T07:06:08.000Z</time>
      </trkpt>
      <trkpt lat="47.30533" lon="4.95816">
        <ele>368.79998779297</ele>
        <time>2014-07-31T07:06:10.000Z</time>
      </trkpt>
      <trkpt lat="47.30529" lon="4.95812">
        <ele>369</ele>
        <time>2014-07-31T07:06:14.000Z</time>
      </trkpt>
      <trkpt lat="47.30528" lon="4.95812">
        <ele>368.79998779297</ele>
        <time>2014-07-31T07:06:15.000Z</time>
      </trkpt>
      <trkpt lat="47.30527" lon="4.9581">
        <ele>369</ele>
        <time>2014-07-31T07:06:16.000Z</time>
      </trkpt>
      <trkpt lat="47.30526" lon="4.95808">
        <ele>369.20001220703</ele>
        <time>2014-07-31T07:06:17.000Z</time>
      </trkpt>
      <trkpt lat="47.30515" lon="4.95798">
        <ele>369.79998779297</ele>
        <time>2014-07-31T07:06:25.000Z</time>
      </trkpt>
      <trkpt lat="47.30508" lon="4.95795">
        <ele>369.60000610352</ele>
        <time>2014-07-31T07:06:30.000Z</time>
      </trkpt>
      <trkpt lat="47.30506" lon="4.95792">
        <ele>369.79998779297</ele>
        <time>2014-07-31T07:06:32.000Z</time>
      </trkpt>
      <trkpt lat="47.30505" lon="4.95792">
        <ele>369.79998779297</ele>
        <time>2014-07-31T07:06:33.000Z</time>
      </trkpt>
      <trkpt lat="47.305" lon="4.95789">
        <ele>369.79998779297</ele>
        <time>2014-07-31T07:06:37.000Z</time>
      </trkpt>
      <trkpt lat="47.30494" lon="4.95785">
        <ele>369.60000610352</ele>
        <time>2014-07-31T07:06:41.000Z</time>
      </trkpt>
      <trkpt lat="47.30487" lon="4.95783">
        <ele>369.79998779297</ele>
        <time>2014-07-31T07:06:45.000Z</time>
      </trkpt>
      <trkpt lat="47.3048" lon="4.95778">
        <ele>370.20001220703</ele>
        <time>2014-07-31T07:06:50.000Z</time>
      </trkpt>
      <trkpt lat="47.30479" lon="4.95778">
        <ele>370.39999389648</ele>
        <time>2014-07-31T07:06:51.000Z</time>
      </trkpt>
      <trkpt lat="47.30476" lon="4.95778">
        <ele>370.60000610352</ele>
        <time>2014-07-31T07:06:52.000Z</time>
      </trkpt>
      <trkpt lat="47.30473" lon="4.95777">
        <ele>371</ele>
        <time>2014-07-31T07:06:55.000Z</time>
      </trkpt>
      <trkpt lat="47.30471" lon="4.95776">
        <ele>371.20001220703</ele>
        <time>2014-07-31T07:06:57.000Z</time>
      </trkpt>
      <trkpt lat="47.30464" lon="4.95774">
        <ele>371.79998779297</ele>
        <time>2014-07-31T07:07:01.000Z</time>
      </trkpt>
      <trkpt lat="47.30456" lon="4.95769">
        <ele>372.39999389648</ele>
        <time>2014-07-31T07:07:07.000Z</time>
      </trkpt>
      <trkpt lat="47.30451" lon="4.95765">
        <ele>372.60000610352</ele>
        <time>2014-07-31T07:07:10.000Z</time>
      </trkpt>
      <trkpt lat="47.30445" lon="4.95758">
        <ele>373</ele>
        <time>2014-07-31T07:07:15.000Z</time>
      </trkpt>
      <trkpt lat="47.3044" lon="4.95755">
        <ele>373.39999389648</ele>
        <time>2014-07-31T07:07:17.000Z</time>
      </trkpt>
      <trkpt lat="47.3043" lon="4.95746">
        <ele>374</ele>
        <time>2014-07-31T07:07:24.000Z</time>
      </trkpt>
      <trkpt lat="47.30429" lon="4.95744">
        <ele>374</ele>
        <time>2014-07-31T07:07:25.000Z</time>
      </trkpt>
      <trkpt lat="47.30421" lon="4.95737">
        <ele>374.60000610352</ele>
        <time>2014-07-31T07:07:30.000Z</time>
      </trkpt>
      <trkpt lat="47.30414" lon="4.95729">
        <ele>375</ele>
        <time>2014-07-31T07:07:35.000Z</time>
      </trkpt>
      <trkpt lat="47.30411" lon="4.95724">
        <ele>375</ele>
        <time>2014-07-31T07:07:39.000Z</time>
      </trkpt>
      <trkpt lat="47.30403" lon="4.95717">
        <ele>375.60000610352</ele>
        <time>2014-07-31T07:07:45.000Z</time>
      </trkpt>
      <trkpt lat="47.30399" lon="4.95713">
        <ele>375.79998779297</ele>
        <time>2014-07-31T07:07:47.000Z</time>
      </trkpt>
      <trkpt lat="47.30392" lon="4.95702">
        <ele>376</ele>
        <time>2014-07-31T07:07:53.000Z</time>
      </trkpt>
      <trkpt lat="47.30388" lon="4.95694">
        <ele>376</ele>
        <time>2014-07-31T07:07:57.000Z</time>
      </trkpt>
      <trkpt lat="47.30386" lon="4.95688">
        <ele>376</ele>
        <time>2014-07-31T07:08:00.000Z</time>
      </trkpt>
      <trkpt lat="47.30385" lon="4.95685">
        <ele>376</ele>
        <time>2014-07-31T07:08:03.000Z</time>
      </trkpt>
      <trkpt lat="47.30381" lon="4.95676">
        <ele>376</ele>
        <time>2014-07-31T07:08:08.000Z</time>
      </trkpt>
      <trkpt lat="47.30379" lon="4.95673">
        <ele>376.20001220703</ele>
        <time>2014-07-31T07:08:10.000Z</time>
      </trkpt>
      <trkpt lat="47.30376" lon="4.9566">
        <ele>377.39999389648</ele>
        <time>2014-07-31T07:08:16.000Z</time>
      </trkpt>
      <trkpt lat="47.30369" lon="4.95645">
        <ele>378.60000610352</ele>
        <time>2014-07-31T07:08:23.000Z</time>
      </trkpt>
      <trkpt lat="47.30363" lon="4.95633">
        <ele>379.60000610352</ele>
        <time>2014-07-31T07:08:27.000Z</time>
      </trkpt>
      <trkpt lat="47.30364" lon="4.95628">
        <ele>380.20001220703</ele>
        <time>2014-07-31T07:08:28.000Z</time>
      </trkpt>
      <trkpt lat="47.30361" lon="4.95617">
        <ele>380.60000610352</ele>
        <time>2014-07-31T07:08:33.000Z</time>
      </trkpt>
      <trkpt lat="47.30359" lon="4.95612">
        <ele>380.60000610352</ele>
        <time>2014-07-31T07:08:35.000Z</time>
      </trkpt>
      <trkpt lat="47.30353" lon="4.95601">
        <ele>380.60000610352</ele>
        <time>2014-07-31T07:08:41.000Z</time>
      </trkpt>
      <trkpt lat="47.30352" lon="4.95599">
        <ele>380.60000610352</ele>
        <time>2014-07-31T07:08:42.000Z</time>
      </trkpt>
      <trkpt lat="47.30347" lon="4.9559">
        <ele>380.60000610352</ele>
        <time>2014-07-31T07:08:47.000Z</time>
      </trkpt>
      <trkpt lat="47.30347" lon="4.95588">
        <ele>380.60000610352</ele>
        <time>2014-07-31T07:08:48.000Z</time>
      </trkpt>
      <trkpt lat="47.30346" lon="4.95584">
        <ele>380.79998779297</ele>
        <time>2014-07-31T07:08:51.000Z</time>
      </trkpt>
      <trkpt lat="47.3034" lon="4.9557">
        <ele>380.79998779297</ele>
        <time>2014-07-31T07:08:58.000Z</time>
      </trkpt>
      <trkpt lat="47.30338" lon="4.95563">
        <ele>380.79998779297</ele>
        <time>2014-07-31T07:09:03.000Z</time>
      </trkpt>
      <trkpt lat="47.30334" lon="4.95557">
        <ele>380.79998779297</ele>
        <time>2014-07-31T07:09:07.000Z</time>
      </trkpt>
      <trkpt lat="47.30332" lon="4.95554">
        <ele>380.79998779297</ele>
        <time>2014-07-31T07:09:09.000Z</time>
      </trkpt>
      <trkpt lat="47.30329" lon="4.95543">
        <ele>381</ele>
        <time>2014-07-31T07:09:14.000Z</time>
      </trkpt>
      <trkpt lat="47.30327" lon="4.95534">
        <ele>381.79998779297</ele>
        <time>2014-07-31T07:09:19.000Z</time>
      </trkpt>
      <trkpt lat="47.30325" lon="4.95532">
        <ele>382</ele>
        <time>2014-07-31T07:09:21.000Z</time>
      </trkpt>
      <trkpt lat="47.30324" lon="4.95524">
        <ele>383</ele>
        <time>2014-07-31T07:09:25.000Z</time>
      </trkpt>
      <trkpt lat="47.30322" lon="4.95519">
        <ele>383.60000610352</ele>
        <time>2014-07-31T07:09:29.000Z</time>
      </trkpt>
      <trkpt lat="47.30314" lon="4.95508">
        <ele>384.79998779297</ele>
        <time>2014-07-31T07:09:36.000Z</time>
      </trkpt>
      <trkpt lat="47.3031" lon="4.955">
        <ele>386</ele>
        <time>2014-07-31T07:09:41.000Z</time>
      </trkpt>
      <trkpt lat="47.30309" lon="4.95499">
        <ele>386</ele>
        <time>2014-07-31T07:09:42.000Z</time>
      </trkpt>
      <trkpt lat="47.30308" lon="4.95496">
        <ele>386.39999389648</ele>
        <time>2014-07-31T07:09:43.000Z</time>
      </trkpt>
      <trkpt lat="47.30307" lon="4.95493">
        <ele>386.79998779297</ele>
        <time>2014-07-31T07:09:45.000Z</time>
      </trkpt>
      <trkpt lat="47.30302" lon="4.95484">
        <ele>387.79998779297</ele>
        <time>2014-07-31T07:09:51.000Z</time>
      </trkpt>
      <trkpt lat="47.30297" lon="4.95475">
        <ele>388.79998779297</ele>
        <time>2014-07-31T07:09:55.000Z</time>
      </trkpt>
      <trkpt lat="47.30294" lon="4.95466">
        <ele>390</ele>
        <time>2014-07-31T07:09:59.000Z</time>
      </trkpt>
      <trkpt lat="47.3029" lon="4.95459">
        <ele>390.79998779297</ele>
        <time>2014-07-31T07:10:03.000Z</time>
      </trkpt>
      <trkpt lat="47.30288" lon="4.95455">
        <ele>391</ele>
        <time>2014-07-31T07:10:05.000Z</time>
      </trkpt>
      <trkpt lat="47.30283" lon="4.95447">
        <ele>391.20001220703</ele>
        <time>2014-07-31T07:10:09.000Z</time>
      </trkpt>
      <trkpt lat="47.3028" lon="4.95441">
        <ele>391.20001220703</ele>
        <time>2014-07-31T07:10:13.000Z</time>
      </trkpt>
      <trkpt lat="47.30273" lon="4.95427">
        <ele>391.39999389648</ele>
        <time>2014-07-31T07:10:21.000Z</time>
      </trkpt>
      <trkpt lat="47.30272" lon="4.95424">
        <ele>391.39999389648</ele>
        <time>2014-07-31T07:10:22.000Z</time>
      </trkpt>
      <trkpt lat="47.30264" lon="4.95416">
        <ele>391.60000610352</ele>
        <time>2014-07-31T07:10:28.000Z</time>
      </trkpt>
      <trkpt lat="47.30261" lon="4.9541">
        <ele>391.60000610352</ele>
        <time>2014-07-31T07:10:31.000Z</time>
      </trkpt>
      <trkpt lat="47.3026" lon="4.95406">
        <ele>391.60000610352</ele>
        <time>2014-07-31T07:10:33.000Z</time>
      </trkpt>
      <trkpt lat="47.30258" lon="4.95394">
        <ele>391.79998779297</ele>
        <time>2014-07-31T07:10:38.000Z</time>
      </trkpt>
      <trkpt lat="47.30257" lon="4.95391">
        <ele>391.79998779297</ele>
        <time>2014-07-31T07:10:40.000Z</time>
      </trkpt>
      <trkpt lat="47.30254" lon="4.95382">
        <ele>391.79998779297</ele>
        <time>2014-07-31T07:10:44.000Z</time>
      </trkpt>
      <trkpt lat="47.30252" lon="4.95378">
        <ele>392.20001220703</ele>
        <time>2014-07-31T07:10:46.000Z</time>
      </trkpt>
      <trkpt lat="47.3025" lon="4.95368">
        <ele>392.79998779297</ele>
        <time>2014-07-31T07:10:51.000Z</time>
      </trkpt>
      <trkpt lat="47.30245" lon="4.95359">
        <ele>392.79998779297</ele>
        <time>2014-07-31T07:10:56.000Z</time>
      </trkpt>
      <trkpt lat="47.30244" lon="4.95358">
        <ele>393</ele>
        <time>2014-07-31T07:10:57.000Z</time>
      </trkpt>
      <trkpt lat="47.30243" lon="4.95355">
        <ele>393.20001220703</ele>
        <time>2014-07-31T07:10:58.000Z</time>
      </trkpt>
      <trkpt lat="47.30241" lon="4.95346">
        <ele>393.60000610352</ele>
        <time>2014-07-31T07:11:02.000Z</time>
      </trkpt>
      <trkpt lat="47.30237" lon="4.95327">
        <ele>394.79998779297</ele>
        <time>2014-07-31T07:11:11.000Z</time>
      </trkpt>
      <trkpt lat="47.30234" lon="4.9532">
        <ele>395.39999389648</ele>
        <time>2014-07-31T07:11:15.000Z</time>
      </trkpt>
      <trkpt lat="47.30233" lon="4.95314">
        <ele>395.79998779297</ele>
        <time>2014-07-31T07:11:18.000Z</time>
      </trkpt>
      <trkpt lat="47.30231" lon="4.9531">
        <ele>396</ele>
        <time>2014-07-31T07:11:21.000Z</time>
      </trkpt>
      <trkpt lat="47.30229" lon="4.95292">
        <ele>397</ele>
        <time>2014-07-31T07:11:28.000Z</time>
      </trkpt>
      <trkpt lat="47.30224" lon="4.95273">
        <ele>397</ele>
        <time>2014-07-31T07:11:36.000Z</time>
      </trkpt>
      <trkpt lat="47.30222" lon="4.95258">
        <ele>397.60000610352</ele>
        <time>2014-07-31T07:11:43.000Z</time>
      </trkpt>
      <trkpt lat="47.3022" lon="4.95247">
        <ele>398.39999389648</ele>
        <time>2014-07-31T07:11:48.000Z</time>
      </trkpt>
      <trkpt lat="47.30219" lon="4.95239">
        <ele>399</ele>
        <time>2014-07-31T07:11:52.000Z</time>
      </trkpt>
      <trkpt lat="47.30216" lon="4.95231">
        <ele>399.60000610352</ele>
        <time>2014-07-31T07:11:56.000Z</time>
      </trkpt>
      <trkpt lat="47.30215" lon="4.95227">
        <ele>399.79998779297</ele>
        <time>2014-07-31T07:11:58.000Z</time>
      </trkpt>
      <trkpt lat="47.30212" lon="4.95217">
        <ele>400.60000610352</ele>
        <time>2014-07-31T07:12:03.000Z</time>
      </trkpt>
      <trkpt lat="47.30211" lon="4.95215">
        <ele>400.60000610352</ele>
        <time>2014-07-31T07:12:04.000Z</time>
      </trkpt>
      <trkpt lat="47.30207" lon="4.95206">
        <ele>401.20001220703</ele>
        <time>2014-07-31T07:12:08.000Z</time>
      </trkpt>
      <trkpt lat="47.30205" lon="4.952">
        <ele>401.20001220703</ele>
        <time>2014-07-31T07:12:11.000Z</time>
      </trkpt>
      <trkpt lat="47.30202" lon="4.95186">
        <ele>401.60000610352</ele>
        <time>2014-07-31T07:12:17.000Z</time>
      </trkpt>
      <trkpt lat="47.30202" lon="4.95175">
        <ele>402</ele>
        <time>2014-07-31T07:12:21.000Z</time>
      </trkpt>
      <trkpt lat="47.30202" lon="4.95162">
        <ele>402.39999389648</ele>
        <time>2014-07-31T07:12:26.000Z</time>
      </trkpt>
      <trkpt lat="47.30203" lon="4.95154">
        <ele>403.60000610352</ele>
        <time>2014-07-31T07:12:29.000Z</time>
      </trkpt>
      <trkpt lat="47.30202" lon="4.95142">
        <ele>404.60000610352</ele>
        <time>2014-07-31T07:12:34.000Z</time>
      </trkpt>
      <trkpt lat="47.302" lon="4.95131">
        <ele>405.79998779297</ele>
        <time>2014-07-31T07:12:39.000Z</time>
      </trkpt>
      <trkpt lat="47.30198" lon="4.95119">
        <ele>406.20001220703</ele>
        <time>2014-07-31T07:12:45.000Z</time>
      </trkpt>
      <trkpt lat="47.30197" lon="4.95106">
        <ele>406.39999389648</ele>
        <time>2014-07-31T07:12:51.000Z</time>
      </trkpt>
      <trkpt lat="47.30194" lon="4.95093">
        <ele>406.39999389648</ele>
        <time>2014-07-31T07:12:57.000Z</time>
      </trkpt>
      <trkpt lat="47.30194" lon="4.9509">
        <ele>406.39999389648</ele>
        <time>2014-07-31T07:12:58.000Z</time>
      </trkpt>
      <trkpt lat="47.30191" lon="4.95086">
        <ele>406.20001220703</ele>
        <time>2014-07-31T07:13:00.000Z</time>
      </trkpt>
      <trkpt lat="47.30189" lon="4.95079">
        <ele>406.20001220703</ele>
        <time>2014-07-31T07:13:03.000Z</time>
      </trkpt>
      <trkpt lat="47.30186" lon="4.95071">
        <ele>406</ele>
        <time>2014-07-31T07:13:08.000Z</time>
      </trkpt>
      <trkpt lat="47.30182" lon="4.95065">
        <ele>405.60000610352</ele>
        <time>2014-07-31T07:13:12.000Z</time>
      </trkpt>
      <trkpt lat="47.30176" lon="4.95058">
        <ele>405.20001220703</ele>
        <time>2014-07-31T07:13:17.000Z</time>
      </trkpt>
      <trkpt lat="47.30175" lon="4.95057">
        <ele>405</ele>
        <time>2014-07-31T07:13:18.000Z</time>
      </trkpt>
      <trkpt lat="47.30165" lon="4.95042">
        <ele>404.20001220703</ele>
        <time>2014-07-31T07:13:26.000Z</time>
      </trkpt>
      <trkpt lat="47.30157" lon="4.95029">
        <ele>404.60000610352</ele>
        <time>2014-07-31T07:13:33.000Z</time>
      </trkpt>
      <trkpt lat="47.30152" lon="4.95022">
        <ele>404.79998779297</ele>
        <time>2014-07-31T07:13:37.000Z</time>
      </trkpt>
      <trkpt lat="47.30148" lon="4.95018">
        <ele>405</ele>
        <time>2014-07-31T07:13:40.000Z</time>
      </trkpt>
      <trkpt lat="47.30145" lon="4.95015">
        <ele>405</ele>
        <time>2014-07-31T07:13:42.000Z</time>
      </trkpt>
      <trkpt lat="47.3014" lon="4.95009">
        <ele>405.20001220703</ele>
        <time>2014-07-31T07:13:46.000Z</time>
      </trkpt>
      <trkpt lat="47.30139" lon="4.95007">
        <ele>405.39999389648</ele>
        <time>2014-07-31T07:13:47.000Z</time>
      </trkpt>
      <trkpt lat="47.30131" lon="4.94996">
        <ele>405.79998779297</ele>
        <time>2014-07-31T07:13:53.000Z</time>
      </trkpt>
      <trkpt lat="47.30122" lon="4.94985">
        <ele>406.20001220703</ele>
        <time>2014-07-31T07:13:59.000Z</time>
      </trkpt>
      <trkpt lat="47.3012" lon="4.94984">
        <ele>406.20001220703</ele>
        <time>2014-07-31T07:14:00.000Z</time>
      </trkpt>
      <trkpt lat="47.30113" lon="4.94975">
        <ele>406.60000610352</ele>
        <time>2014-07-31T07:14:05.000Z</time>
      </trkpt>
      <trkpt lat="47.30111" lon="4.94974">
        <ele>406.60000610352</ele>
        <time>2014-07-31T07:14:06.000Z</time>
      </trkpt>
      <trkpt lat="47.30107" lon="4.94971">
        <ele>406.79998779297</ele>
        <time>2014-07-31T07:14:09.000Z</time>
      </trkpt>
      <trkpt lat="47.30097" lon="4.94963">
        <ele>407</ele>
        <time>2014-07-31T07:14:16.000Z</time>
      </trkpt>
      <trkpt lat="47.30087" lon="4.9495">
        <ele>407.20001220703</ele>
        <time>2014-07-31T07:14:24.000Z</time>
      </trkpt>
      <trkpt lat="47.30078" lon="4.94936">
        <ele>407.39999389648</ele>
        <time>2014-07-31T07:14:33.000Z</time>
      </trkpt>
      <trkpt lat="47.30071" lon="4.94916">
        <ele>408</ele>
        <time>2014-07-31T07:14:42.000Z</time>
      </trkpt>
      <trkpt lat="47.30067" lon="4.94905">
        <ele>408.39999389648</ele>
        <time>2014-07-31T07:14:48.000Z</time>
      </trkpt>
      <trkpt lat="47.30066" lon="4.94901">
        <ele>408.60000610352</ele>
        <time>2014-07-31T07:14:50.000Z</time>
      </trkpt>
      <trkpt lat="47.30064" lon="4.94886">
        <ele>408.79998779297</ele>
        <time>2014-07-31T07:14:57.000Z</time>
      </trkpt>
      <trkpt lat="47.30064" lon="4.94884">
        <ele>408.79998779297</ele>
        <time>2014-07-31T07:14:58.000Z</time>
      </trkpt>
      <trkpt lat="47.30065" lon="4.94881">
        <ele>408.79998779297</ele>
        <time>2014-07-31T07:15:00.000Z</time>
      </trkpt>
      <trkpt lat="47.30067" lon="4.94869">
        <ele>408.79998779297</ele>
        <time>2014-07-31T07:15:05.000Z</time>
      </trkpt>
      <trkpt lat="47.30071" lon="4.94868">
        <ele>408.60000610352</ele>
        <time>2014-07-31T07:15:10.000Z</time>
      </trkpt>
      <trkpt lat="47.30078" lon="4.9487">
        <ele>408.20001220703</ele>
        <time>2014-07-31T07:15:15.000Z</time>
      </trkpt>
      <trkpt lat="47.30081" lon="4.94868">
        <ele>408.39999389648</ele>
        <time>2014-07-31T07:15:18.000Z</time>
      </trkpt>
      <trkpt lat="47.30091" lon="4.94859">
        <ele>409.39999389648</ele>
        <time>2014-07-31T07:15:25.000Z</time>
      </trkpt>
      <trkpt lat="47.30097" lon="4.94854">
        <ele>410.20001220703</ele>
        <time>2014-07-31T07:15:29.000Z</time>
      </trkpt>
      <trkpt lat="47.30102" lon="4.94848">
        <ele>410.79998779297</ele>
        <time>2014-07-31T07:15:33.000Z</time>
      </trkpt>
      <trkpt lat="47.30111" lon="4.94845">
        <ele>411.60000610352</ele>
        <time>2014-07-31T07:15:40.000Z</time>
      </trkpt>
      <trkpt lat="47.30117" lon="4.94841">
        <ele>412.20001220703</ele>
        <time>2014-07-31T07:15:46.000Z</time>
      </trkpt>
      <trkpt lat="47.30124" lon="4.94838">
        <ele>412.79998779297</ele>
        <time>2014-07-31T07:15:51.000Z</time>
      </trkpt>
      <trkpt lat="47.30131" lon="4.94836">
        <ele>413.60000610352</ele>
        <time>2014-07-31T07:15:57.000Z</time>
      </trkpt>
      <trkpt lat="47.30133" lon="4.94836">
        <ele>413.79998779297</ele>
        <time>2014-07-31T07:15:58.000Z</time>
      </trkpt>
      <trkpt lat="47.30138" lon="4.94838">
        <ele>414.20001220703</ele>
        <time>2014-07-31T07:16:02.000Z</time>
      </trkpt>
      <trkpt lat="47.30148" lon="4.94849">
        <ele>414.39999389648</ele>
        <time>2014-07-31T07:16:09.000Z</time>
      </trkpt>
      <trkpt lat="47.30151" lon="4.94853">
        <ele>414.39999389648</ele>
        <time>2014-07-31T07:16:11.000Z</time>
      </trkpt>
      <trkpt lat="47.30158" lon="4.94863">
        <ele>414.20001220703</ele>
        <time>2014-07-31T07:16:17.000Z</time>
      </trkpt>
      <trkpt lat="47.30159" lon="4.94864">
        <ele>414.20001220703</ele>
        <time>2014-07-31T07:16:18.000Z</time>
      </trkpt>
      <trkpt lat="47.30161" lon="4.94866">
        <ele>414.39999389648</ele>
        <time>2014-07-31T07:16:20.000Z</time>
      </trkpt>
      <trkpt lat="47.30164" lon="4.94866">
        <ele>414.79998779297</ele>
        <time>2014-07-31T07:16:23.000Z</time>
      </trkpt>
      <trkpt lat="47.30172" lon="4.94867">
        <ele>415.60000610352</ele>
        <time>2014-07-31T07:16:28.000Z</time>
      </trkpt>
      <trkpt lat="47.30182" lon="4.94867">
        <ele>416.60000610352</ele>
        <time>2014-07-31T07:16:35.000Z</time>
      </trkpt>
      <trkpt lat="47.30186" lon="4.94872">
        <ele>416.79998779297</ele>
        <time>2014-07-31T07:16:38.000Z</time>
      </trkpt>
      <trkpt lat="47.30195" lon="4.94882">
        <ele>417.20001220703</ele>
        <time>2014-07-31T07:16:44.000Z</time>
      </trkpt>
      <trkpt lat="47.30198" lon="4.94888">
        <ele>417.20001220703</ele>
        <time>2014-07-31T07:16:47.000Z</time>
      </trkpt>
      <trkpt lat="47.30204" lon="4.94898">
        <ele>417.39999389648</ele>
        <time>2014-07-31T07:16:52.000Z</time>
      </trkpt>
      <trkpt lat="47.3021" lon="4.94906">
        <ele>417.60000610352</ele>
        <time>2014-07-31T07:16:58.000Z</time>
      </trkpt>
      <trkpt lat="47.30215" lon="4.94916">
        <ele>417.60000610352</ele>
        <time>2014-07-31T07:17:03.000Z</time>
      </trkpt>
      <trkpt lat="47.3022" lon="4.94925">
        <ele>417.79998779297</ele>
        <time>2014-07-31T07:17:07.000Z</time>
      </trkpt>
      <trkpt lat="47.30225" lon="4.94944">
        <ele>417.20001220703</ele>
        <time>2014-07-31T07:17:14.000Z</time>
      </trkpt>
      <trkpt lat="47.30228" lon="4.94957">
        <ele>416.60000610352</ele>
        <time>2014-07-31T07:17:19.000Z</time>
      </trkpt>
      <trkpt lat="47.3023" lon="4.94967">
        <ele>416.39999389648</ele>
        <time>2014-07-31T07:17:24.000Z</time>
      </trkpt>
      <trkpt lat="47.30233" lon="4.94978">
        <ele>416.39999389648</ele>
        <time>2014-07-31T07:17:29.000Z</time>
      </trkpt>
      <trkpt lat="47.30234" lon="4.94983">
        <ele>416.39999389648</ele>
        <time>2014-07-31T07:17:31.000Z</time>
      </trkpt>
      <trkpt lat="47.30235" lon="4.94988">
        <ele>416.39999389648</ele>
        <time>2014-07-31T07:17:33.000Z</time>
      </trkpt>
      <trkpt lat="47.30238" lon="4.94992">
        <ele>416.60000610352</ele>
        <time>2014-07-31T07:17:35.000Z</time>
      </trkpt>
      <trkpt lat="47.30246" lon="4.95001">
        <ele>417.39999389648</ele>
        <time>2014-07-31T07:17:41.000Z</time>
      </trkpt>
      <trkpt lat="47.30247" lon="4.95002">
        <ele>417.39999389648</ele>
        <time>2014-07-31T07:17:42.000Z</time>
      </trkpt>
      <trkpt lat="47.30256" lon="4.95007">
        <ele>418.39999389648</ele>
        <time>2014-07-31T07:17:48.000Z</time>
      </trkpt>
      <trkpt lat="47.3026" lon="4.95012">
        <ele>418.60000610352</ele>
        <time>2014-07-31T07:17:52.000Z</time>
      </trkpt>
      <trkpt lat="47.30265" lon="4.95015">
        <ele>419.20001220703</ele>
        <time>2014-07-31T07:17:57.000Z</time>
      </trkpt>
      <trkpt lat="47.30266" lon="4.95017">
        <ele>419.20001220703</ele>
        <time>2014-07-31T07:17:58.000Z</time>
      </trkpt>
      <trkpt lat="47.30268" lon="4.95019">
        <ele>419.39999389648</ele>
        <time>2014-07-31T07:17:59.000Z</time>
      </trkpt>
      <trkpt lat="47.30269" lon="4.95022">
        <ele>419.39999389648</ele>
        <time>2014-07-31T07:18:01.000Z</time>
      </trkpt>
      <trkpt lat="47.30272" lon="4.95032">
        <ele>419.20001220703</ele>
        <time>2014-07-31T07:18:07.000Z</time>
      </trkpt>
      <trkpt lat="47.30272" lon="4.95034">
        <ele>419.39999389648</ele>
        <time>2014-07-31T07:18:08.000Z</time>
      </trkpt>
      <trkpt lat="47.30276" lon="4.95039">
        <ele>419.60000610352</ele>
        <time>2014-07-31T07:18:12.000Z</time>
      </trkpt>
      <trkpt lat="47.30283" lon="4.95051">
        <ele>420.20001220703</ele>
        <time>2014-07-31T07:18:18.000Z</time>
      </trkpt>
      <trkpt lat="47.30283" lon="4.95052">
        <ele>420.20001220703</ele>
        <time>2014-07-31T07:18:19.000Z</time>
      </trkpt>
      <trkpt lat="47.30286" lon="4.95057">
        <ele>420.60000610352</ele>
        <time>2014-07-31T07:18:23.000Z</time>
      </trkpt>
      <trkpt lat="47.30295" lon="4.95071">
        <ele>421.39999389648</ele>
        <time>2014-07-31T07:18:28.000Z</time>
      </trkpt>
      <trkpt lat="47.30296" lon="4.95073">
        <ele>421.60000610352</ele>
        <time>2014-07-31T07:18:29.000Z</time>
      </trkpt>
      <trkpt lat="47.303" lon="4.95084">
        <ele>422</ele>
        <time>2014-07-31T07:18:34.000Z</time>
      </trkpt>
      <trkpt lat="47.30305" lon="4.95092">
        <ele>422.39999389648</ele>
        <time>2014-07-31T07:18:38.000Z</time>
      </trkpt>
      <trkpt lat="47.30308" lon="4.95094">
        <ele>422.79998779297</ele>
        <time>2014-07-31T07:18:40.000Z</time>
      </trkpt>
      <trkpt lat="47.30315" lon="4.95093">
        <ele>423.60000610352</ele>
        <time>2014-07-31T07:18:45.000Z</time>
      </trkpt>
      <trkpt lat="47.30321" lon="4.9509">
        <ele>424.20001220703</ele>
        <time>2014-07-31T07:18:50.000Z</time>
      </trkpt>
      <trkpt lat="47.30322" lon="4.95089">
        <ele>424.39999389648</ele>
        <time>2014-07-31T07:18:51.000Z</time>
      </trkpt>
      <trkpt lat="47.30331" lon="4.9508">
        <ele>425.60000610352</ele>
        <time>2014-07-31T07:18:59.000Z</time>
      </trkpt>
      <trkpt lat="47.30332" lon="4.95079">
        <ele>425.60000610352</ele>
        <time>2014-07-31T07:19:00.000Z</time>
      </trkpt>
      <trkpt lat="47.30339" lon="4.95068">
        <ele>426</ele>
        <time>2014-07-31T07:19:07.000Z</time>
      </trkpt>
      <trkpt lat="47.30349" lon="4.95062">
        <ele>426.39999389648</ele>
        <time>2014-07-31T07:19:14.000Z</time>
      </trkpt>
      <trkpt lat="47.30359" lon="4.95059">
        <ele>426.79998779297</ele>
        <time>2014-07-31T07:19:21.000Z</time>
      </trkpt>
      <trkpt lat="47.30366" lon="4.95068">
        <ele>427</ele>
        <time>2014-07-31T07:19:27.000Z</time>
      </trkpt>
      <trkpt lat="47.30374" lon="4.95083">
        <ele>427</ele>
        <time>2014-07-31T07:19:34.000Z</time>
      </trkpt>
      <trkpt lat="47.30384" lon="4.951">
        <ele>427.20001220703</ele>
        <time>2014-07-31T07:19:42.000Z</time>
      </trkpt>
      <trkpt lat="47.30395" lon="4.95117">
        <ele>427.39999389648</ele>
        <time>2014-07-31T07:19:51.000Z</time>
      </trkpt>
      <trkpt lat="47.30405" lon="4.95131">
        <ele>427.39999389648</ele>
        <time>2014-07-31T07:19:59.000Z</time>
      </trkpt>
      <trkpt lat="47.30414" lon="4.95138">
        <ele>427.60000610352</ele>
        <time>2014-07-31T07:20:05.000Z</time>
      </trkpt>
      <trkpt lat="47.30425" lon="4.9513">
        <ele>428</ele>
        <time>2014-07-31T07:20:13.000Z</time>
      </trkpt>
      <trkpt lat="47.3043" lon="4.95127">
        <ele>428</ele>
        <time>2014-07-31T07:20:16.000Z</time>
      </trkpt>
      <trkpt lat="47.30436" lon="4.95127">
        <ele>428</ele>
        <time>2014-07-31T07:20:20.000Z</time>
      </trkpt>
      <trkpt lat="47.30441" lon="4.95133">
        <ele>427.79998779297</ele>
        <time>2014-07-31T07:20:33.000Z</time>
      </trkpt>
      <trkpt lat="47.30451" lon="4.95146">
        <ele>427.79998779297</ele>
        <time>2014-07-31T07:20:42.000Z</time>
      </trkpt>
      <trkpt lat="47.3046" lon="4.9516">
        <ele>427.60000610352</ele>
        <time>2014-07-31T07:20:50.000Z</time>
      </trkpt>
      <trkpt lat="47.30469" lon="4.95171">
        <ele>427.39999389648</ele>
        <time>2014-07-31T07:20:58.000Z</time>
      </trkpt>
      <trkpt lat="47.30481" lon="4.95184">
        <ele>427.20001220703</ele>
        <time>2014-07-31T07:21:07.000Z</time>
      </trkpt>
      <trkpt lat="47.30493" lon="4.95197">
        <ele>427.20001220703</ele>
        <time>2014-07-31T07:21:16.000Z</time>
      </trkpt>
      <trkpt lat="47.305" lon="4.95205">
        <ele>427</ele>
        <time>2014-07-31T07:21:21.000Z</time>
      </trkpt>
      <trkpt lat="47.30513" lon="4.95212">
        <ele>426.79998779297</ele>
        <time>2014-07-31T07:21:30.000Z</time>
      </trkpt>
      <trkpt lat="47.30523" lon="4.95217">
        <ele>426.60000610352</ele>
        <time>2014-07-31T07:21:37.000Z</time>
      </trkpt>
      <trkpt lat="47.30532" lon="4.95223">
        <ele>426.60000610352</ele>
        <time>2014-07-31T07:21:43.000Z</time>
      </trkpt>
      <trkpt lat="47.30543" lon="4.9523">
        <ele>426.39999389648</ele>
        <time>2014-07-31T07:21:50.000Z</time>
      </trkpt>
      <trkpt lat="47.30559" lon="4.95236">
        <ele>426.20001220703</ele>
        <time>2014-07-31T07:22:00.000Z</time>
      </trkpt>
      <trkpt lat="47.30575" lon="4.95242">
        <ele>426</ele>
        <time>2014-07-31T07:22:09.000Z</time>
      </trkpt>
      <trkpt lat="47.30584" lon="4.95248">
        <ele>426.20001220703</ele>
        <time>2014-07-31T07:22:15.000Z</time>
      </trkpt>
      <trkpt lat="47.30597" lon="4.95258">
        <ele>426.39999389648</ele>
        <time>2014-07-31T07:22:24.000Z</time>
      </trkpt>
      <trkpt lat="47.30606" lon="4.95269">
        <ele>426.60000610352</ele>
        <time>2014-07-31T07:22:31.000Z</time>
      </trkpt>
      <trkpt lat="47.30611" lon="4.95275">
        <ele>426.79998779297</ele>
        <time>2014-07-31T07:22:35.000Z</time>
      </trkpt>
      <trkpt lat="47.30613" lon="4.9528">
        <ele>426.79998779297</ele>
        <time>2014-07-31T07:22:38.000Z</time>
      </trkpt>
      <trkpt lat="47.30618" lon="4.95287">
        <ele>427</ele>
        <time>2014-07-31T07:22:43.000Z</time>
      </trkpt>
      <trkpt lat="47.3062" lon="4.95288">
        <ele>427</ele>
        <time>2014-07-31T07:22:44.000Z</time>
      </trkpt>
      <trkpt lat="47.30625" lon="4.95292">
        <ele>427</ele>
        <time>2014-07-31T07:22:48.000Z</time>
      </trkpt>
      <trkpt lat="47.30629" lon="4.95298">
        <ele>426.60000610352</ele>
        <time>2014-07-31T07:22:51.000Z</time>
      </trkpt>
      <trkpt lat="47.30635" lon="4.95311">
        <ele>425.79998779297</ele>
        <time>2014-07-31T07:22:58.000Z</time>
      </trkpt>
      <trkpt lat="47.3064" lon="4.9532">
        <ele>425.39999389648</ele>
        <time>2014-07-31T07:23:04.000Z</time>
      </trkpt>
      <trkpt lat="47.30642" lon="4.95328">
        <ele>424.79998779297</ele>
        <time>2014-07-31T07:23:08.000Z</time>
      </trkpt>
      <trkpt lat="47.30648" lon="4.95342">
        <ele>424</ele>
        <time>2014-07-31T07:23:14.000Z</time>
      </trkpt>
      <trkpt lat="47.30653" lon="4.9535">
        <ele>423.39999389648</ele>
        <time>2014-07-31T07:23:18.000Z</time>
      </trkpt>
      <trkpt lat="47.3066" lon="4.95364">
        <ele>422.60000610352</ele>
        <time>2014-07-31T07:23:25.000Z</time>
      </trkpt>
      <trkpt lat="47.30662" lon="4.95365">
        <ele>422.60000610352</ele>
        <time>2014-07-31T07:23:26.000Z</time>
      </trkpt>
      <trkpt lat="47.30671" lon="4.95374">
        <ele>421.60000610352</ele>
        <time>2014-07-31T07:23:32.000Z</time>
      </trkpt>
      <trkpt lat="47.30672" lon="4.95376">
        <ele>421.60000610352</ele>
        <time>2014-07-31T07:23:33.000Z</time>
      </trkpt>
      <trkpt lat="47.30678" lon="4.95382">
        <ele>421.20001220703</ele>
        <time>2014-07-31T07:23:38.000Z</time>
      </trkpt>
      <trkpt lat="47.3068" lon="4.95383">
        <ele>421.20001220703</ele>
        <time>2014-07-31T07:23:39.000Z</time>
      </trkpt>
      <trkpt lat="47.30686" lon="4.95393">
        <ele>420.79998779297</ele>
        <time>2014-07-31T07:23:46.000Z</time>
      </trkpt>
      <trkpt lat="47.30687" lon="4.95395">
        <ele>420.60000610352</ele>
        <time>2014-07-31T07:23:47.000Z</time>
      </trkpt>
      <trkpt lat="47.30687" lon="4.9541">
        <ele>420.20001220703</ele>
        <time>2014-07-31T07:23:53.000Z</time>
      </trkpt>
      <trkpt lat="47.3069" lon="4.95422">
        <ele>419.60000610352</ele>
        <time>2014-07-31T07:23:58.000Z</time>
      </trkpt>
      <trkpt lat="47.30691" lon="4.95423">
        <ele>419.60000610352</ele>
        <time>2014-07-31T07:23:59.000Z</time>
      </trkpt>
      <trkpt lat="47.30691" lon="4.95426">
        <ele>419.39999389648</ele>
        <time>2014-07-31T07:24:00.000Z</time>
      </trkpt>
      <trkpt lat="47.30693" lon="4.95434">
        <ele>419.20001220703</ele>
        <time>2014-07-31T07:24:03.000Z</time>
      </trkpt>
      <trkpt lat="47.30695" lon="4.95448">
        <ele>418.60000610352</ele>
        <time>2014-07-31T07:24:09.000Z</time>
      </trkpt>
      <trkpt lat="47.30694" lon="4.95461">
        <ele>418.20001220703</ele>
        <time>2014-07-31T07:24:14.000Z</time>
      </trkpt>
      <trkpt lat="47.30693" lon="4.95466">
        <ele>418</ele>
        <time>2014-07-31T07:24:16.000Z</time>
      </trkpt>
      <trkpt lat="47.30691" lon="4.95479">
        <ele>417.79998779297</ele>
        <time>2014-07-31T07:24:21.000Z</time>
      </trkpt>
      <trkpt lat="47.30688" lon="4.95496">
        <ele>417.39999389648</ele>
        <time>2014-07-31T07:24:28.000Z</time>
      </trkpt>
      <trkpt lat="47.30683" lon="4.9551">
        <ele>417.20001220703</ele>
        <time>2014-07-31T07:24:34.000Z</time>
      </trkpt>
      <trkpt lat="47.3068" lon="4.95524">
        <ele>417</ele>
        <time>2014-07-31T07:24:40.000Z</time>
      </trkpt>
      <trkpt lat="47.30679" lon="4.95527">
        <ele>417</ele>
        <time>2014-07-31T07:24:41.000Z</time>
      </trkpt>
      <trkpt lat="47.30675" lon="4.95537">
        <ele>416.79998779297</ele>
        <time>2014-07-31T07:24:46.000Z</time>
      </trkpt>
      <trkpt lat="47.30674" lon="4.95539">
        <ele>416.79998779297</ele>
        <time>2014-07-31T07:24:47.000Z</time>
      </trkpt>
      <trkpt lat="47.30671" lon="4.95552">
        <ele>416.39999389648</ele>
        <time>2014-07-31T07:24:53.000Z</time>
      </trkpt>
      <trkpt lat="47.30669" lon="4.95565">
        <ele>416</ele>
        <time>2014-07-31T07:24:58.000Z</time>
      </trkpt>
      <trkpt lat="47.30668" lon="4.95567">
        <ele>416</ele>
        <time>2014-07-31T07:24:59.000Z</time>
      </trkpt>
      <trkpt lat="47.30667" lon="4.95585">
        <ele>415.39999389648</ele>
        <time>2014-07-31T07:25:05.000Z</time>
      </trkpt>
      <trkpt lat="47.30666" lon="4.95587">
        <ele>415.20001220703</ele>
        <time>2014-07-31T07:25:06.000Z</time>
      </trkpt>
      <trkpt lat="47.30665" lon="4.95595">
        <ele>415</ele>
        <time>2014-07-31T07:25:09.000Z</time>
      </trkpt>
      <trkpt lat="47.30659" lon="4.95612">
        <ele>414.20001220703</ele>
        <time>2014-07-31T07:25:16.000Z</time>
      </trkpt>
      <trkpt lat="47.30654" lon="4.95626">
        <ele>413.20001220703</ele>
        <time>2014-07-31T07:25:22.000Z</time>
      </trkpt>
      <trkpt lat="47.30652" lon="4.95646">
        <ele>411.39999389648</ele>
        <time>2014-07-31T07:25:30.000Z</time>
      </trkpt>
      <trkpt lat="47.30652" lon="4.95648">
        <ele>411.20001220703</ele>
        <time>2014-07-31T07:25:31.000Z</time>
      </trkpt>
      <trkpt lat="47.30648" lon="4.9566">
        <ele>410</ele>
        <time>2014-07-31T07:25:35.000Z</time>
      </trkpt>
      <trkpt lat="47.30646" lon="4.95673">
        <ele>408.60000610352</ele>
        <time>2014-07-31T07:25:41.000Z</time>
      </trkpt>
      <trkpt lat="47.30647" lon="4.95679">
        <ele>408.20001220703</ele>
        <time>2014-07-31T07:25:44.000Z</time>
      </trkpt>
      <trkpt lat="47.30651" lon="4.95694">
        <ele>407.20001220703</ele>
        <time>2014-07-31T07:25:50.000Z</time>
      </trkpt>
      <trkpt lat="47.30652" lon="4.95697">
        <ele>407</ele>
        <time>2014-07-31T07:25:51.000Z</time>
      </trkpt>
      <trkpt lat="47.30652" lon="4.95715">
        <ele>405</ele>
        <time>2014-07-31T07:25:58.000Z</time>
      </trkpt>
      <trkpt lat="47.30652" lon="4.95727">
        <ele>403</ele>
        <time>2014-07-31T07:26:03.000Z</time>
      </trkpt>
      <trkpt lat="47.30651" lon="4.95731">
        <ele>402.39999389648</ele>
        <time>2014-07-31T07:26:05.000Z</time>
      </trkpt>
      <trkpt lat="47.30655" lon="4.95741">
        <ele>401.39999389648</ele>
        <time>2014-07-31T07:26:11.000Z</time>
      </trkpt>
      <trkpt lat="47.30662" lon="4.95747">
        <ele>401.20001220703</ele>
        <time>2014-07-31T07:26:16.000Z</time>
      </trkpt>
      <trkpt lat="47.30663" lon="4.95749">
        <ele>401</ele>
        <time>2014-07-31T07:26:17.000Z</time>
      </trkpt>
      <trkpt lat="47.30665" lon="4.95757">
        <ele>400</ele>
        <time>2014-07-31T07:26:20.000Z</time>
      </trkpt>
      <trkpt lat="47.30675" lon="4.95774">
        <ele>398.79998779297</ele>
        <time>2014-07-31T07:26:28.000Z</time>
      </trkpt>
      <trkpt lat="47.30676" lon="4.95776">
        <ele>398.60000610352</ele>
        <time>2014-07-31T07:26:29.000Z</time>
      </trkpt>
      <trkpt lat="47.30677" lon="4.9578">
        <ele>398</ele>
        <time>2014-07-31T07:26:31.000Z</time>
      </trkpt>
      <trkpt lat="47.30682" lon="4.95786">
        <ele>397.79998779297</ele>
        <time>2014-07-31T07:26:35.000Z</time>
      </trkpt>
      <trkpt lat="47.30685" lon="4.95788">
        <ele>397.60000610352</ele>
        <time>2014-07-31T07:26:37.000Z</time>
      </trkpt>
      <trkpt lat="47.30692" lon="4.95798">
        <ele>397.20001220703</ele>
        <time>2014-07-31T07:26:43.000Z</time>
      </trkpt>
      <trkpt lat="47.30693" lon="4.95799">
        <ele>397</ele>
        <time>2014-07-31T07:26:44.000Z</time>
      </trkpt>
      <trkpt lat="47.30702" lon="4.95806">
        <ele>397.20001220703</ele>
        <time>2014-07-31T07:26:50.000Z</time>
      </trkpt>
      <trkpt lat="47.30706" lon="4.95809">
        <ele>397.20001220703</ele>
        <time>2014-07-31T07:26:54.000Z</time>
      </trkpt>
      <trkpt lat="47.30708" lon="4.95809">
        <ele>397.39999389648</ele>
        <time>2014-07-31T07:26:55.000Z</time>
      </trkpt>
      <trkpt lat="47.30709" lon="4.9581">
        <ele>397.39999389648</ele>
        <time>2014-07-31T07:26:56.000Z</time>
      </trkpt>
      <trkpt lat="47.30715" lon="4.95813">
        <ele>397.79998779297</ele>
        <time>2014-07-31T07:27:00.000Z</time>
      </trkpt>
      <trkpt lat="47.3072" lon="4.95817">
        <ele>397.60000610352</ele>
        <time>2014-07-31T07:27:03.000Z</time>
      </trkpt>
      <trkpt lat="47.30727" lon="4.95825">
        <ele>397.39999389648</ele>
        <time>2014-07-31T07:27:09.000Z</time>
      </trkpt>
      <trkpt lat="47.30729" lon="4.95827">
        <ele>397.39999389648</ele>
        <time>2014-07-31T07:27:10.000Z</time>
      </trkpt>
      <trkpt lat="47.3073" lon="4.95828">
        <ele>397.20001220703</ele>
        <time>2014-07-31T07:27:11.000Z</time>
      </trkpt>
      <trkpt lat="47.30743" lon="4.95831">
        <ele>398.20001220703</ele>
        <time>2014-07-31T07:27:18.000Z</time>
      </trkpt>
      <trkpt lat="47.30748" lon="4.95831">
        <ele>398.79998779297</ele>
        <time>2014-07-31T07:27:22.000Z</time>
      </trkpt>
      <trkpt lat="47.30761" lon="4.9583">
        <ele>399.20001220703</ele>
        <time>2014-07-31T07:27:29.000Z</time>
      </trkpt>
      <trkpt lat="47.30764" lon="4.95831">
        <ele>399.20001220703</ele>
        <time>2014-07-31T07:27:31.000Z</time>
      </trkpt>
      <trkpt lat="47.30774" lon="4.95834">
        <ele>399</ele>
        <time>2014-07-31T07:27:37.000Z</time>
      </trkpt>
      <trkpt lat="47.30778" lon="4.95836">
        <ele>398.79998779297</ele>
        <time>2014-07-31T07:27:39.000Z</time>
      </trkpt>
      <trkpt lat="47.30784" lon="4.95838">
        <ele>398.60000610352</ele>
        <time>2014-07-31T07:27:43.000Z</time>
      </trkpt>
      <trkpt lat="47.30793" lon="4.95844">
        <ele>398.20001220703</ele>
        <time>2014-07-31T07:27:49.000Z</time>
      </trkpt>
      <trkpt lat="47.308" lon="4.9585">
        <ele>397.39999389648</ele>
        <time>2014-07-31T07:27:54.000Z</time>
      </trkpt>
      <trkpt lat="47.30806" lon="4.95854">
        <ele>397.20001220703</ele>
        <time>2014-07-31T07:27:58.000Z</time>
      </trkpt>
      <trkpt lat="47.30815" lon="4.95859">
        <ele>396.60000610352</ele>
        <time>2014-07-31T07:28:03.000Z</time>
      </trkpt>
      <trkpt lat="47.3082" lon="4.95862">
        <ele>396.39999389648</ele>
        <time>2014-07-31T07:28:07.000Z</time>
      </trkpt>
      <trkpt lat="47.30821" lon="4.95862">
        <ele>396.20001220703</ele>
        <time>2014-07-31T07:28:08.000Z</time>
      </trkpt>
      <trkpt lat="47.30825" lon="4.95862">
        <ele>396.20001220703</ele>
        <time>2014-07-31T07:28:10.000Z</time>
      </trkpt>
      <trkpt lat="47.30833" lon="4.9586">
        <ele>396</ele>
        <time>2014-07-31T07:28:14.000Z</time>
      </trkpt>
      <trkpt lat="47.30834" lon="4.95859">
        <ele>396</ele>
        <time>2014-07-31T07:28:15.000Z</time>
      </trkpt>
      <trkpt lat="47.30837" lon="4.95857">
        <ele>396</ele>
        <time>2014-07-31T07:28:17.000Z</time>
      </trkpt>
      <trkpt lat="47.30844" lon="4.95853">
        <ele>395.79998779297</ele>
        <time>2014-07-31T07:28:22.000Z</time>
      </trkpt>
      <trkpt lat="47.30855" lon="4.9585">
        <ele>395.20001220703</ele>
        <time>2014-07-31T07:28:28.000Z</time>
      </trkpt>
      <trkpt lat="47.30861" lon="4.95856">
        <ele>394.39999389648</ele>
        <time>2014-07-31T07:28:32.000Z</time>
      </trkpt>
      <trkpt lat="47.30865" lon="4.95859">
        <ele>393.79998779297</ele>
        <time>2014-07-31T07:28:35.000Z</time>
      </trkpt>
      <trkpt lat="47.30872" lon="4.95865">
        <ele>392.79998779297</ele>
        <time>2014-07-31T07:28:40.000Z</time>
      </trkpt>
      <trkpt lat="47.30889" lon="4.95868">
        <ele>391.39999389648</ele>
        <time>2014-07-31T07:28:49.000Z</time>
      </trkpt>
      <trkpt lat="47.30899" lon="4.95872">
        <ele>390.20001220703</ele>
        <time>2014-07-31T07:28:55.000Z</time>
      </trkpt>
      <trkpt lat="47.30904" lon="4.95884">
        <ele>388.79998779297</ele>
        <time>2014-07-31T07:29:00.000Z</time>
      </trkpt>
      <trkpt lat="47.30906" lon="4.95887">
        <ele>388.39999389648</ele>
        <time>2014-07-31T07:29:02.000Z</time>
      </trkpt>
      <trkpt lat="47.30912" lon="4.95897">
        <ele>387.20001220703</ele>
        <time>2014-07-31T07:29:07.000Z</time>
      </trkpt>
      <trkpt lat="47.30914" lon="4.95902">
        <ele>386.60000610352</ele>
        <time>2014-07-31T07:29:10.000Z</time>
      </trkpt>
      <trkpt lat="47.30918" lon="4.95912">
        <ele>385.20001220703</ele>
        <time>2014-07-31T07:29:15.000Z</time>
      </trkpt>
      <trkpt lat="47.3092" lon="4.95915">
        <ele>384.60000610352</ele>
        <time>2014-07-31T07:29:17.000Z</time>
      </trkpt>
      <trkpt lat="47.30926" lon="4.95919">
        <ele>383.39999389648</ele>
        <time>2014-07-31T07:29:21.000Z</time>
      </trkpt>
      <trkpt lat="47.30934" lon="4.95912">
        <ele>382.79998779297</ele>
        <time>2014-07-31T07:29:26.000Z</time>
      </trkpt>
      <trkpt lat="47.30935" lon="4.9591">
        <ele>382.79998779297</ele>
        <time>2014-07-31T07:29:27.000Z</time>
      </trkpt>
      <trkpt lat="47.30938" lon="4.95895">
        <ele>383.20001220703</ele>
        <time>2014-07-31T07:29:33.000Z</time>
      </trkpt>
      <trkpt lat="47.30937" lon="4.95884">
        <ele>382.79998779297</ele>
        <time>2014-07-31T07:29:38.000Z</time>
      </trkpt>
      <trkpt lat="47.30936" lon="4.9588">
        <ele>382.79998779297</ele>
        <time>2014-07-31T07:29:40.000Z</time>
      </trkpt>
      <trkpt lat="47.30936" lon="4.95876">
        <ele>382.60000610352</ele>
        <time>2014-07-31T07:29:42.000Z</time>
      </trkpt>
      <trkpt lat="47.30938" lon="4.95864">
        <ele>382</ele>
        <time>2014-07-31T07:29:47.000Z</time>
      </trkpt>
      <trkpt lat="47.30938" lon="4.95854">
        <ele>382</ele>
        <time>2014-07-31T07:29:52.000Z</time>
      </trkpt>
      <trkpt lat="47.30937" lon="4.95841">
        <ele>382.60000610352</ele>
        <time>2014-07-31T07:29:59.000Z</time>
      </trkpt>
      <trkpt lat="47.30934" lon="4.95831">
        <ele>383.79998779297</ele>
        <time>2014-07-31T07:30:04.000Z</time>
      </trkpt>
      <trkpt lat="47.30933" lon="4.95829">
        <ele>383.79998779297</ele>
        <time>2014-07-31T07:30:05.000Z</time>
      </trkpt>
      <trkpt lat="47.30931" lon="4.95816">
        <ele>384.79998779297</ele>
        <time>2014-07-31T07:30:12.000Z</time>
      </trkpt>
      <trkpt lat="47.3093" lon="4.95806">
        <ele>385</ele>
        <time>2014-07-31T07:30:16.000Z</time>
      </trkpt>
      <trkpt lat="47.30928" lon="4.95795">
        <ele>385.20001220703</ele>
        <time>2014-07-31T07:30:21.000Z</time>
      </trkpt>
      <trkpt lat="47.30923" lon="4.95779">
        <ele>386.79998779297</ele>
        <time>2014-07-31T07:30:28.000Z</time>
      </trkpt>
      <trkpt lat="47.30923" lon="4.95777">
        <ele>387</ele>
        <time>2014-07-31T07:30:29.000Z</time>
      </trkpt>
      <trkpt lat="47.30918" lon="4.95766">
        <ele>388.79998779297</ele>
        <time>2014-07-31T07:30:34.000Z</time>
      </trkpt>
      <trkpt lat="47.30913" lon="4.95756">
        <ele>390.39999389648</ele>
        <time>2014-07-31T07:30:39.000Z</time>
      </trkpt>
      <trkpt lat="47.30913" lon="4.95754">
        <ele>390.60000610352</ele>
        <time>2014-07-31T07:30:40.000Z</time>
      </trkpt>
      <trkpt lat="47.30911" lon="4.95742">
        <ele>391</ele>
        <time>2014-07-31T07:30:46.000Z</time>
      </trkpt>
      <trkpt lat="47.3091" lon="4.95727">
        <ele>391.60000610352</ele>
        <time>2014-07-31T07:30:52.000Z</time>
      </trkpt>
      <trkpt lat="47.30909" lon="4.95715">
        <ele>391.79998779297</ele>
        <time>2014-07-31T07:30:57.000Z</time>
      </trkpt>
      <trkpt lat="47.30909" lon="4.9571">
        <ele>391.79998779297</ele>
        <time>2014-07-31T07:30:59.000Z</time>
      </trkpt>
      <trkpt lat="47.30908" lon="4.95699">
        <ele>392</ele>
        <time>2014-07-31T07:31:05.000Z</time>
      </trkpt>
      <trkpt lat="47.30908" lon="4.95688">
        <ele>391.60000610352</ele>
        <time>2014-07-31T07:31:09.000Z</time>
      </trkpt>
      <trkpt lat="47.30908" lon="4.95673">
        <ele>391</ele>
        <time>2014-07-31T07:31:14.000Z</time>
      </trkpt>
      <trkpt lat="47.30906" lon="4.95659">
        <ele>391</ele>
        <time>2014-07-31T07:31:19.000Z</time>
      </trkpt>
      <trkpt lat="47.30906" lon="4.95646">
        <ele>390.60000610352</ele>
        <time>2014-07-31T07:31:24.000Z</time>
      </trkpt>
      <trkpt lat="47.30905" lon="4.95644">
        <ele>390.60000610352</ele>
        <time>2014-07-31T07:31:25.000Z</time>
      </trkpt>
      <trkpt lat="47.30904" lon="4.95633">
        <ele>390.39999389648</ele>
        <time>2014-07-31T07:31:30.000Z</time>
      </trkpt>
      <trkpt lat="47.30903" lon="4.9562">
        <ele>390.20001220703</ele>
        <time>2014-07-31T07:31:36.000Z</time>
      </trkpt>
      <trkpt lat="47.30903" lon="4.95616">
        <ele>390</ele>
        <time>2014-07-31T07:31:38.000Z</time>
      </trkpt>
      <trkpt lat="47.30902" lon="4.95599">
        <ele>390</ele>
        <time>2014-07-31T07:31:44.000Z</time>
      </trkpt>
      <trkpt lat="47.309" lon="4.95591">
        <ele>390</ele>
        <time>2014-07-31T07:31:47.000Z</time>
      </trkpt>
      <trkpt lat="47.30897" lon="4.95579">
        <ele>390.39999389648</ele>
        <time>2014-07-31T07:31:52.000Z</time>
      </trkpt>
      <trkpt lat="47.30896" lon="4.95574">
        <ele>390.20001220703</ele>
        <time>2014-07-31T07:31:54.000Z</time>
      </trkpt>
      <trkpt lat="47.30895" lon="4.95563">
        <ele>390.20001220703</ele>
        <time>2014-07-31T07:31:58.000Z</time>
      </trkpt>
      <trkpt lat="47.30894" lon="4.95552">
        <ele>390</ele>
        <time>2014-07-31T07:32:03.000Z</time>
      </trkpt>
      <trkpt lat="47.30893" lon="4.95539">
        <ele>390</ele>
        <time>2014-07-31T07:32:08.000Z</time>
      </trkpt>
      <trkpt lat="47.30891" lon="4.95525">
        <ele>390.20001220703</ele>
        <time>2014-07-31T07:32:13.000Z</time>
      </trkpt>
      <trkpt lat="47.30889" lon="4.95509">
        <ele>390.60000610352</ele>
        <time>2014-07-31T07:32:19.000Z</time>
      </trkpt>
      <trkpt lat="47.30888" lon="4.95507">
        <ele>390.60000610352</ele>
        <time>2014-07-31T07:32:20.000Z</time>
      </trkpt>
      <trkpt lat="47.30888" lon="4.95505">
        <ele>390.60000610352</ele>
        <time>2014-07-31T07:32:21.000Z</time>
      </trkpt>
      <trkpt lat="47.30884" lon="4.95489">
        <ele>391.20001220703</ele>
        <time>2014-07-31T07:32:27.000Z</time>
      </trkpt>
      <trkpt lat="47.30883" lon="4.95476">
        <ele>391</ele>
        <time>2014-07-31T07:32:33.000Z</time>
      </trkpt>
      <trkpt lat="47.30883" lon="4.95473">
        <ele>391</ele>
        <time>2014-07-31T07:32:34.000Z</time>
      </trkpt>
      <trkpt lat="47.30881" lon="4.95463">
        <ele>391.20001220703</ele>
        <time>2014-07-31T07:32:38.000Z</time>
      </trkpt>
      <trkpt lat="47.3088" lon="4.95449">
        <ele>391.20001220703</ele>
        <time>2014-07-31T07:32:43.000Z</time>
      </trkpt>
      <trkpt lat="47.3088" lon="4.95437">
        <ele>391</ele>
        <time>2014-07-31T07:32:48.000Z</time>
      </trkpt>
      <trkpt lat="47.30879" lon="4.9543">
        <ele>391</ele>
        <time>2014-07-31T07:32:51.000Z</time>
      </trkpt>
      <trkpt lat="47.30878" lon="4.95426">
        <ele>391</ele>
        <time>2014-07-31T07:32:53.000Z</time>
      </trkpt>
      <trkpt lat="47.30878" lon="4.95424">
        <ele>391.20001220703</ele>
        <time>2014-07-31T07:32:54.000Z</time>
      </trkpt>
      <trkpt lat="47.30876" lon="4.95419">
        <ele>391.39999389648</ele>
        <time>2014-07-31T07:32:56.000Z</time>
      </trkpt>
      <trkpt lat="47.30875" lon="4.95415">
        <ele>392</ele>
        <time>2014-07-31T07:32:58.000Z</time>
      </trkpt>
      <trkpt lat="47.30872" lon="4.95405">
        <ele>392.60000610352</ele>
        <time>2014-07-31T07:33:03.000Z</time>
      </trkpt>
      <trkpt lat="47.30867" lon="4.95385">
        <ele>394</ele>
        <time>2014-07-31T07:33:11.000Z</time>
      </trkpt>
      <trkpt lat="47.30864" lon="4.95369">
        <ele>394.79998779297</ele>
        <time>2014-07-31T07:33:17.000Z</time>
      </trkpt>
      <trkpt lat="47.30864" lon="4.95366">
        <ele>395</ele>
        <time>2014-07-31T07:33:18.000Z</time>
      </trkpt>
      <trkpt lat="47.30861" lon="4.95358">
        <ele>395.60000610352</ele>
        <time>2014-07-31T07:33:22.000Z</time>
      </trkpt>
      <trkpt lat="47.30861" lon="4.95348">
        <ele>396</ele>
        <time>2014-07-31T07:33:26.000Z</time>
      </trkpt>
      <trkpt lat="47.3086" lon="4.95341">
        <ele>396.20001220703</ele>
        <time>2014-07-31T07:33:30.000Z</time>
      </trkpt>
      <trkpt lat="47.3086" lon="4.95334">
        <ele>396.60000610352</ele>
        <time>2014-07-31T07:33:33.000Z</time>
      </trkpt>
      <trkpt lat="47.30861" lon="4.95316">
        <ele>396.60000610352</ele>
        <time>2014-07-31T07:33:39.000Z</time>
      </trkpt>
      <trkpt lat="47.3086" lon="4.95304">
        <ele>397</ele>
        <time>2014-07-31T07:33:43.000Z</time>
      </trkpt>
      <trkpt lat="47.3086" lon="4.95299">
        <ele>397.20001220703</ele>
        <time>2014-07-31T07:33:45.000Z</time>
      </trkpt>
      <trkpt lat="47.30859" lon="4.95281">
        <ele>397.39999389648</ele>
        <time>2014-07-31T07:33:51.000Z</time>
      </trkpt>
      <trkpt lat="47.30856" lon="4.9527">
        <ele>398</ele>
        <time>2014-07-31T07:33:57.000Z</time>
      </trkpt>
      <trkpt lat="47.30854" lon="4.95259">
        <ele>398.60000610352</ele>
        <time>2014-07-31T07:34:01.000Z</time>
      </trkpt>
      <trkpt lat="47.30854" lon="4.95257">
        <ele>398.60000610352</ele>
        <time>2014-07-31T07:34:02.000Z</time>
      </trkpt>
      <trkpt lat="47.30853" lon="4.95255">
        <ele>398.79998779297</ele>
        <time>2014-07-31T07:34:03.000Z</time>
      </trkpt>
      <trkpt lat="47.30852" lon="4.95248">
        <ele>399</ele>
        <time>2014-07-31T07:34:07.000Z</time>
      </trkpt>
      <trkpt lat="47.30852" lon="4.95243">
        <ele>399</ele>
        <time>2014-07-31T07:34:10.000Z</time>
      </trkpt>
      <trkpt lat="47.30851" lon="4.95228">
        <ele>399.20001220703</ele>
        <time>2014-07-31T07:34:14.000Z</time>
      </trkpt>
      <trkpt lat="47.30851" lon="4.95225">
        <ele>399.39999389648</ele>
        <time>2014-07-31T07:34:15.000Z</time>
      </trkpt>
      <trkpt lat="47.30852" lon="4.95211">
        <ele>399.60000610352</ele>
        <time>2014-07-31T07:34:21.000Z</time>
      </trkpt>
      <trkpt lat="47.30852" lon="4.95209">
        <ele>399.79998779297</ele>
        <time>2014-07-31T07:34:22.000Z</time>
      </trkpt>
      <trkpt lat="47.30852" lon="4.95208">
        <ele>399.79998779297</ele>
        <time>2014-07-31T07:34:23.000Z</time>
      </trkpt>
      <trkpt lat="47.30852" lon="4.95201">
        <ele>400.20001220703</ele>
        <time>2014-07-31T07:34:27.000Z</time>
      </trkpt>
      <trkpt lat="47.30852" lon="4.95197">
        <ele>400.39999389648</ele>
        <time>2014-07-31T07:34:29.000Z</time>
      </trkpt>
      <trkpt lat="47.3085" lon="4.9519">
        <ele>401</ele>
        <time>2014-07-31T07:34:33.000Z</time>
      </trkpt>
      <trkpt lat="47.3085" lon="4.95183">
        <ele>401.20001220703</ele>
        <time>2014-07-31T07:34:35.000Z</time>
      </trkpt>
      <trkpt lat="47.30851" lon="4.9517">
        <ele>401.79998779297</ele>
        <time>2014-07-31T07:34:40.000Z</time>
      </trkpt>
      <trkpt lat="47.30851" lon="4.95157">
        <ele>402.39999389648</ele>
        <time>2014-07-31T07:34:45.000Z</time>
      </trkpt>
      <trkpt lat="47.30851" lon="4.95155">
        <ele>402.60000610352</ele>
        <time>2014-07-31T07:34:46.000Z</time>
      </trkpt>
      <trkpt lat="47.3085" lon="4.95145">
        <ele>403.20001220703</ele>
        <time>2014-07-31T07:34:51.000Z</time>
      </trkpt>
      <trkpt lat="47.30849" lon="4.95136">
        <ele>403.60000610352</ele>
        <time>2014-07-31T07:34:55.000Z</time>
      </trkpt>
      <trkpt lat="47.3085" lon="4.95134">
        <ele>403.60000610352</ele>
        <time>2014-07-31T07:34:56.000Z</time>
      </trkpt>
      <trkpt lat="47.3085" lon="4.95126">
        <ele>403.60000610352</ele>
        <time>2014-07-31T07:34:59.000Z</time>
      </trkpt>
      <trkpt lat="47.30849" lon="4.95111">
        <ele>403.79998779297</ele>
        <time>2014-07-31T07:35:04.000Z</time>
      </trkpt>
      <trkpt lat="47.30849" lon="4.95106">
        <ele>403.79998779297</ele>
        <time>2014-07-31T07:35:06.000Z</time>
      </trkpt>
      <trkpt lat="47.3085" lon="4.95094">
        <ele>403.39999389648</ele>
        <time>2014-07-31T07:35:11.000Z</time>
      </trkpt>
      <trkpt lat="47.30851" lon="4.95082">
        <ele>403</ele>
        <time>2014-07-31T07:35:16.000Z</time>
      </trkpt>
      <trkpt lat="47.30852" lon="4.95073">
        <ele>402.79998779297</ele>
        <time>2014-07-31T07:35:19.000Z</time>
      </trkpt>
      <trkpt lat="47.30852" lon="4.95071">
        <ele>402.79998779297</ele>
        <time>2014-07-31T07:35:20.000Z</time>
      </trkpt>
      <trkpt lat="47.3085" lon="4.95049">
        <ele>403</ele>
        <time>2014-07-31T07:35:31.000Z</time>
      </trkpt>
      <trkpt lat="47.30854" lon="4.95043">
        <ele>402.39999389648</ele>
        <time>2014-07-31T07:35:35.000Z</time>
      </trkpt>
      <trkpt lat="47.30859" lon="4.9504">
        <ele>401.60000610352</ele>
        <time>2014-07-31T07:35:40.000Z</time>
      </trkpt>
      <trkpt lat="47.30863" lon="4.95042">
        <ele>400.60000610352</ele>
        <time>2014-07-31T07:35:44.000Z</time>
      </trkpt>
      <trkpt lat="47.30865" lon="4.95049">
        <ele>400.20001220703</ele>
        <time>2014-07-31T07:35:48.000Z</time>
      </trkpt>
      <trkpt lat="47.30868" lon="4.95056">
        <ele>399.60000610352</ele>
        <time>2014-07-31T07:35:52.000Z</time>
      </trkpt>
      <trkpt lat="47.30878" lon="4.95058">
        <ele>397.60000610352</ele>
        <time>2014-07-31T07:35:56.000Z</time>
      </trkpt>
      <trkpt lat="47.30884" lon="4.95051">
        <ele>396.60000610352</ele>
        <time>2014-07-31T07:35:59.000Z</time>
      </trkpt>
      <trkpt lat="47.30885" lon="4.95046">
        <ele>396.39999389648</ele>
        <time>2014-07-31T07:36:01.000Z</time>
      </trkpt>
      <trkpt lat="47.30889" lon="4.95036">
        <ele>396.20001220703</ele>
        <time>2014-07-31T07:36:05.000Z</time>
      </trkpt>
      <trkpt lat="47.30891" lon="4.95029">
        <ele>396.39999389648</ele>
        <time>2014-07-31T07:36:07.000Z</time>
      </trkpt>
      <trkpt lat="47.30899" lon="4.95017">
        <ele>395.79998779297</ele>
        <time>2014-07-31T07:36:14.000Z</time>
      </trkpt>
      <trkpt lat="47.30902" lon="4.9501">
        <ele>395.79998779297</ele>
        <time>2014-07-31T07:36:19.000Z</time>
      </trkpt>
      <trkpt lat="47.30901" lon="4.95003">
        <ele>396.60000610352</ele>
        <time>2014-07-31T07:36:24.000Z</time>
      </trkpt>
      <trkpt lat="47.30901" lon="4.95">
        <ele>396.79998779297</ele>
        <time>2014-07-31T07:36:26.000Z</time>
      </trkpt>
      <trkpt lat="47.30901" lon="4.94991">
        <ele>397.60000610352</ele>
        <time>2014-07-31T07:36:32.000Z</time>
      </trkpt>
      <trkpt lat="47.30901" lon="4.94989">
        <ele>397.60000610352</ele>
        <time>2014-07-31T07:36:33.000Z</time>
      </trkpt>
      <trkpt lat="47.30902" lon="4.94982">
        <ele>398</ele>
        <time>2014-07-31T07:36:37.000Z</time>
      </trkpt>
      <trkpt lat="47.30902" lon="4.94979">
        <ele>398.39999389648</ele>
        <time>2014-07-31T07:36:39.000Z</time>
      </trkpt>
      <trkpt lat="47.30904" lon="4.94968">
        <ele>399</ele>
        <time>2014-07-31T07:36:44.000Z</time>
      </trkpt>
      <trkpt lat="47.30905" lon="4.94959">
        <ele>399.60000610352</ele>
        <time>2014-07-31T07:36:47.000Z</time>
      </trkpt>
      <trkpt lat="47.30906" lon="4.94948">
        <ele>400.39999389648</ele>
        <time>2014-07-31T07:36:51.000Z</time>
      </trkpt>
      <trkpt lat="47.30907" lon="4.9494">
        <ele>400.79998779297</ele>
        <time>2014-07-31T07:36:56.000Z</time>
      </trkpt>
      <trkpt lat="47.30907" lon="4.94937">
        <ele>400.79998779297</ele>
        <time>2014-07-31T07:36:57.000Z</time>
      </trkpt>
      <trkpt lat="47.30908" lon="4.94925">
        <ele>401.60000610352</ele>
        <time>2014-07-31T07:37:01.000Z</time>
      </trkpt>
      <trkpt lat="47.3091" lon="4.94916">
        <ele>401.79998779297</ele>
        <time>2014-07-31T07:37:06.000Z</time>
      </trkpt>
      <trkpt lat="47.3091" lon="4.9491">
        <ele>402.20001220703</ele>
        <time>2014-07-31T07:37:09.000Z</time>
      </trkpt>
      <trkpt lat="47.30911" lon="4.94899">
        <ele>402.79998779297</ele>
        <time>2014-07-31T07:37:14.000Z</time>
      </trkpt>
      <trkpt lat="47.30914" lon="4.94891">
        <ele>403</ele>
        <time>2014-07-31T07:37:18.000Z</time>
      </trkpt>
      <trkpt lat="47.30915" lon="4.94889">
        <ele>403</ele>
        <time>2014-07-31T07:37:19.000Z</time>
      </trkpt>
      <trkpt lat="47.30915" lon="4.94886">
        <ele>403.39999389648</ele>
        <time>2014-07-31T07:37:21.000Z</time>
      </trkpt>
      <trkpt lat="47.30917" lon="4.94878">
        <ele>404.20001220703</ele>
        <time>2014-07-31T07:37:24.000Z</time>
      </trkpt>
      <trkpt lat="47.30919" lon="4.94872">
        <ele>404.39999389648</ele>
        <time>2014-07-31T07:37:27.000Z</time>
      </trkpt>
      <trkpt lat="47.30924" lon="4.94863">
        <ele>405</ele>
        <time>2014-07-31T07:37:31.000Z</time>
      </trkpt>
      <trkpt lat="47.30926" lon="4.94857">
        <ele>405.39999389648</ele>
        <time>2014-07-31T07:37:34.000Z</time>
      </trkpt>
      <trkpt lat="47.30929" lon="4.94849">
        <ele>405.79998779297</ele>
        <time>2014-07-31T07:37:38.000Z</time>
      </trkpt>
      <trkpt lat="47.3093" lon="4.94846">
        <ele>406</ele>
        <time>2014-07-31T07:37:39.000Z</time>
      </trkpt>
      <trkpt lat="47.30934" lon="4.94833">
        <ele>406.79998779297</ele>
        <time>2014-07-31T07:37:44.000Z</time>
      </trkpt>
      <trkpt lat="47.30936" lon="4.94828">
        <ele>407</ele>
        <time>2014-07-31T07:37:47.000Z</time>
      </trkpt>
      <trkpt lat="47.30938" lon="4.94825">
        <ele>407.20001220703</ele>
        <time>2014-07-31T07:37:49.000Z</time>
      </trkpt>
      <trkpt lat="47.30942" lon="4.94811">
        <ele>407.39999389648</ele>
        <time>2014-07-31T07:37:54.000Z</time>
      </trkpt>
      <trkpt lat="47.30946" lon="4.94799">
        <ele>407</ele>
        <time>2014-07-31T07:37:59.000Z</time>
      </trkpt>
      <trkpt lat="47.30952" lon="4.94788">
        <ele>406.60000610352</ele>
        <time>2014-07-31T07:38:04.000Z</time>
      </trkpt>
      <trkpt lat="47.30959" lon="4.9478">
        <ele>406.60000610352</ele>
        <time>2014-07-31T07:38:10.000Z</time>
      </trkpt>
      <trkpt lat="47.30963" lon="4.94779">
        <ele>406.60000610352</ele>
        <time>2014-07-31T07:38:13.000Z</time>
      </trkpt>
      <trkpt lat="47.30968" lon="4.94776">
        <ele>406.60000610352</ele>
        <time>2014-07-31T07:38:17.000Z</time>
      </trkpt>
      <trkpt lat="47.30973" lon="4.94769">
        <ele>406.60000610352</ele>
        <time>2014-07-31T07:38:22.000Z</time>
      </trkpt>
      <trkpt lat="47.30975" lon="4.94767">
        <ele>406.39999389648</ele>
        <time>2014-07-31T07:38:24.000Z</time>
      </trkpt>
      <trkpt lat="47.30979" lon="4.94761">
        <ele>406.20001220703</ele>
        <time>2014-07-31T07:38:28.000Z</time>
      </trkpt>
      <trkpt lat="47.30981" lon="4.94759">
        <ele>406</ele>
        <time>2014-07-31T07:38:30.000Z</time>
      </trkpt>
      <trkpt lat="47.30988" lon="4.94753">
        <ele>405.60000610352</ele>
        <time>2014-07-31T07:38:36.000Z</time>
      </trkpt>
      <trkpt lat="47.30991" lon="4.94756">
        <ele>405.39999389648</ele>
        <time>2014-07-31T07:38:40.000Z</time>
      </trkpt>
      <trkpt lat="47.30994" lon="4.94765">
        <ele>405.60000610352</ele>
        <time>2014-07-31T07:38:46.000Z</time>
      </trkpt>
      <trkpt lat="47.30994" lon="4.94766">
        <ele>405.60000610352</ele>
        <time>2014-07-31T07:38:47.000Z</time>
      </trkpt>
      <trkpt lat="47.30994" lon="4.9477">
        <ele>405.60000610352</ele>
        <time>2014-07-31T07:38:50.000Z</time>
      </trkpt>
      <trkpt lat="47.30994" lon="4.94778">
        <ele>405.79998779297</ele>
        <time>2014-07-31T07:38:54.000Z</time>
      </trkpt>
      <trkpt lat="47.30993" lon="4.94785">
        <ele>406</ele>
        <time>2014-07-31T07:38:59.000Z</time>
      </trkpt>
      <trkpt lat="47.30992" lon="4.94791">
        <ele>406</ele>
        <time>2014-07-31T07:39:09.000Z</time>
      </trkpt>
      <trkpt lat="47.3099" lon="4.94798">
        <ele>406.39999389648</ele>
        <time>2014-07-31T07:39:15.000Z</time>
      </trkpt>
      <trkpt lat="47.30988" lon="4.94804">
        <ele>406.60000610352</ele>
        <time>2014-07-31T07:39:20.000Z</time>
      </trkpt>
      <trkpt lat="47.30987" lon="4.94818">
        <ele>407</ele>
        <time>2014-07-31T07:39:26.000Z</time>
      </trkpt>
      <trkpt lat="47.30986" lon="4.94819">
        <ele>407.20001220703</ele>
        <time>2014-07-31T07:39:27.000Z</time>
      </trkpt>
      <trkpt lat="47.30985" lon="4.9483">
        <ele>407.60000610352</ele>
        <time>2014-07-31T07:39:32.000Z</time>
      </trkpt>
      <trkpt lat="47.30984" lon="4.94843">
        <ele>408</ele>
        <time>2014-07-31T07:39:38.000Z</time>
      </trkpt>
      <trkpt lat="47.30984" lon="4.94854">
        <ele>408.39999389648</ele>
        <time>2014-07-31T07:39:43.000Z</time>
      </trkpt>
      <trkpt lat="47.30984" lon="4.94857">
        <ele>408.60000610352</ele>
        <time>2014-07-31T07:39:44.000Z</time>
      </trkpt>
      <trkpt lat="47.30983" lon="4.94866">
        <ele>408.39999389648</ele>
        <time>2014-07-31T07:39:47.000Z</time>
      </trkpt>
      <trkpt lat="47.30981" lon="4.9488">
        <ele>408.20001220703</ele>
        <time>2014-07-31T07:39:52.000Z</time>
      </trkpt>
      <trkpt lat="47.30979" lon="4.94897">
        <ele>408.39999389648</ele>
        <time>2014-07-31T07:39:59.000Z</time>
      </trkpt>
      <trkpt lat="47.30977" lon="4.94905">
        <ele>408.60000610352</ele>
        <time>2014-07-31T07:40:04.000Z</time>
      </trkpt>
      <trkpt lat="47.30976" lon="4.94918">
        <ele>408.79998779297</ele>
        <time>2014-07-31T07:40:09.000Z</time>
      </trkpt>
      <trkpt lat="47.30975" lon="4.94926">
        <ele>409</ele>
        <time>2014-07-31T07:40:13.000Z</time>
      </trkpt>
      <trkpt lat="47.30974" lon="4.94928">
        <ele>409</ele>
        <time>2014-07-31T07:40:14.000Z</time>
      </trkpt>
      <trkpt lat="47.30973" lon="4.94937">
        <ele>408.79998779297</ele>
        <time>2014-07-31T07:40:18.000Z</time>
      </trkpt>
      <trkpt lat="47.30973" lon="4.9495">
        <ele>407.79998779297</ele>
        <time>2014-07-31T07:40:23.000Z</time>
      </trkpt>
      <trkpt lat="47.30972" lon="4.94954">
        <ele>407.39999389648</ele>
        <time>2014-07-31T07:40:25.000Z</time>
      </trkpt>
      <trkpt lat="47.30971" lon="4.94958">
        <ele>407</ele>
        <time>2014-07-31T07:40:27.000Z</time>
      </trkpt>
      <trkpt lat="47.30972" lon="4.9497">
        <ele>407</ele>
        <time>2014-07-31T07:40:32.000Z</time>
      </trkpt>
      <trkpt lat="47.30971" lon="4.94975">
        <ele>406.79998779297</ele>
        <time>2014-07-31T07:40:34.000Z</time>
      </trkpt>
      <trkpt lat="47.30973" lon="4.94995">
        <ele>406.79998779297</ele>
        <time>2014-07-31T07:40:42.000Z</time>
      </trkpt>
      <trkpt lat="47.30974" lon="4.9501">
        <ele>406.79998779297</ele>
        <time>2014-07-31T07:40:48.000Z</time>
      </trkpt>
      <trkpt lat="47.30976" lon="4.95018">
        <ele>407</ele>
        <time>2014-07-31T07:40:51.000Z</time>
      </trkpt>
      <trkpt lat="47.30977" lon="4.95023">
        <ele>406.79998779297</ele>
        <time>2014-07-31T07:40:53.000Z</time>
      </trkpt>
      <trkpt lat="47.30978" lon="4.95028">
        <ele>406.79998779297</ele>
        <time>2014-07-31T07:40:55.000Z</time>
      </trkpt>
      <trkpt lat="47.30979" lon="4.95048">
        <ele>405.60000610352</ele>
        <time>2014-07-31T07:41:02.000Z</time>
      </trkpt>
      <trkpt lat="47.30978" lon="4.95052">
        <ele>405.39999389648</ele>
        <time>2014-07-31T07:41:03.000Z</time>
      </trkpt>
      <trkpt lat="47.30979" lon="4.95067">
        <ele>405</ele>
        <time>2014-07-31T07:41:08.000Z</time>
      </trkpt>
      <trkpt lat="47.30979" lon="4.95071">
        <ele>404.79998779297</ele>
        <time>2014-07-31T07:41:10.000Z</time>
      </trkpt>
      <trkpt lat="47.3098" lon="4.95087">
        <ele>404.39999389648</ele>
        <time>2014-07-31T07:41:17.000Z</time>
      </trkpt>
      <trkpt lat="47.30983" lon="4.95102">
        <ele>404.60000610352</ele>
        <time>2014-07-31T07:41:23.000Z</time>
      </trkpt>
      <trkpt lat="47.30987" lon="4.95119">
        <ele>405</ele>
        <time>2014-07-31T07:41:30.000Z</time>
      </trkpt>
      <trkpt lat="47.30987" lon="4.95121">
        <ele>405</ele>
        <time>2014-07-31T07:41:31.000Z</time>
      </trkpt>
      <trkpt lat="47.30989" lon="4.95134">
        <ele>404.60000610352</ele>
        <time>2014-07-31T07:41:37.000Z</time>
      </trkpt>
      <trkpt lat="47.30989" lon="4.95139">
        <ele>404.60000610352</ele>
        <time>2014-07-31T07:41:39.000Z</time>
      </trkpt>
      <trkpt lat="47.30991" lon="4.95145">
        <ele>404.60000610352</ele>
        <time>2014-07-31T07:41:41.000Z</time>
      </trkpt>
      <trkpt lat="47.30995" lon="4.95158">
        <ele>404.60000610352</ele>
        <time>2014-07-31T07:41:46.000Z</time>
      </trkpt>
      <trkpt lat="47.30996" lon="4.9516">
        <ele>404.60000610352</ele>
        <time>2014-07-31T07:41:47.000Z</time>
      </trkpt>
      <trkpt lat="47.31" lon="4.95169">
        <ele>404.60000610352</ele>
        <time>2014-07-31T07:41:52.000Z</time>
      </trkpt>
      <trkpt lat="47.31004" lon="4.95177">
        <ele>404.60000610352</ele>
        <time>2014-07-31T07:41:56.000Z</time>
      </trkpt>
      <trkpt lat="47.31005" lon="4.9518">
        <ele>404.39999389648</ele>
        <time>2014-07-31T07:41:57.000Z</time>
      </trkpt>
      <trkpt lat="47.31006" lon="4.95186">
        <ele>404.20001220703</ele>
        <time>2014-07-31T07:41:59.000Z</time>
      </trkpt>
      <trkpt lat="47.31011" lon="4.95197">
        <ele>404</ele>
        <time>2014-07-31T07:42:04.000Z</time>
      </trkpt>
      <trkpt lat="47.31013" lon="4.95203">
        <ele>403.79998779297</ele>
        <time>2014-07-31T07:42:07.000Z</time>
      </trkpt>
      <trkpt lat="47.31018" lon="4.95217">
        <ele>404</ele>
        <time>2014-07-31T07:42:13.000Z</time>
      </trkpt>
      <trkpt lat="47.31019" lon="4.9523">
        <ele>403.79998779297</ele>
        <time>2014-07-31T07:42:18.000Z</time>
      </trkpt>
      <trkpt lat="47.31022" lon="4.95243">
        <ele>403.20001220703</ele>
        <time>2014-07-31T07:42:23.000Z</time>
      </trkpt>
      <trkpt lat="47.31022" lon="4.95246">
        <ele>403</ele>
        <time>2014-07-31T07:42:24.000Z</time>
      </trkpt>
      <trkpt lat="47.31025" lon="4.95258">
        <ele>402.39999389648</ele>
        <time>2014-07-31T07:42:29.000Z</time>
      </trkpt>
      <trkpt lat="47.31028" lon="4.95265">
        <ele>402.39999389648</ele>
        <time>2014-07-31T07:42:33.000Z</time>
      </trkpt>
      <trkpt lat="47.31034" lon="4.9528">
        <ele>402.20001220703</ele>
        <time>2014-07-31T07:42:40.000Z</time>
      </trkpt>
      <trkpt lat="47.31038" lon="4.95291">
        <ele>402</ele>
        <time>2014-07-31T07:42:45.000Z</time>
      </trkpt>
      <trkpt lat="47.31041" lon="4.95303">
        <ele>402.39999389648</ele>
        <time>2014-07-31T07:42:50.000Z</time>
      </trkpt>
      <trkpt lat="47.31044" lon="4.95313">
        <ele>403</ele>
        <time>2014-07-31T07:42:54.000Z</time>
      </trkpt>
      <trkpt lat="47.31045" lon="4.95324">
        <ele>403.20001220703</ele>
        <time>2014-07-31T07:42:58.000Z</time>
      </trkpt>
      <trkpt lat="47.31048" lon="4.95338">
        <ele>403.60000610352</ele>
        <time>2014-07-31T07:43:03.000Z</time>
      </trkpt>
      <trkpt lat="47.31055" lon="4.95349">
        <ele>404.79998779297</ele>
        <time>2014-07-31T07:43:09.000Z</time>
      </trkpt>
      <trkpt lat="47.31057" lon="4.95354">
        <ele>404.79998779297</ele>
        <time>2014-07-31T07:43:11.000Z</time>
      </trkpt>
      <trkpt lat="47.31059" lon="4.95359">
        <ele>405</ele>
        <time>2014-07-31T07:43:13.000Z</time>
      </trkpt>
      <trkpt lat="47.31062" lon="4.95365">
        <ele>405.39999389648</ele>
        <time>2014-07-31T07:43:16.000Z</time>
      </trkpt>
      <trkpt lat="47.31064" lon="4.9537">
        <ele>405.39999389648</ele>
        <time>2014-07-31T07:43:18.000Z</time>
      </trkpt>
      <trkpt lat="47.31068" lon="4.95376">
        <ele>405.79998779297</ele>
        <time>2014-07-31T07:43:22.000Z</time>
      </trkpt>
      <trkpt lat="47.3107" lon="4.95385">
        <ele>405.79998779297</ele>
        <time>2014-07-31T07:43:26.000Z</time>
      </trkpt>
      <trkpt lat="47.31072" lon="4.95387">
        <ele>406.20001220703</ele>
        <time>2014-07-31T07:43:28.000Z</time>
      </trkpt>
      <trkpt lat="47.31073" lon="4.95388">
        <ele>406.39999389648</ele>
        <time>2014-07-31T07:43:29.000Z</time>
      </trkpt>
      <trkpt lat="47.3108" lon="4.9539">
        <ele>407.79998779297</ele>
        <time>2014-07-31T07:43:34.000Z</time>
      </trkpt>
      <trkpt lat="47.31086" lon="4.95389">
        <ele>407.60000610352</ele>
        <time>2014-07-31T07:43:38.000Z</time>
      </trkpt>
      <trkpt lat="47.31092" lon="4.95388">
        <ele>407.20001220703</ele>
        <time>2014-07-31T07:43:43.000Z</time>
      </trkpt>
      <trkpt lat="47.31093" lon="4.95387">
        <ele>407.20001220703</ele>
        <time>2014-07-31T07:43:44.000Z</time>
      </trkpt>
      <trkpt lat="47.31094" lon="4.95387">
        <ele>407</ele>
        <time>2014-07-31T07:43:45.000Z</time>
      </trkpt>
      <trkpt lat="47.311" lon="4.95385">
        <ele>407.20001220703</ele>
        <time>2014-07-31T07:43:51.000Z</time>
      </trkpt>
      <trkpt lat="47.31104" lon="4.9538">
        <ele>407.60000610352</ele>
        <time>2014-07-31T07:43:54.000Z</time>
      </trkpt>
      <trkpt lat="47.31108" lon="4.95375">
        <ele>408</ele>
        <time>2014-07-31T07:43:58.000Z</time>
      </trkpt>
      <trkpt lat="47.31113" lon="4.95368">
        <ele>407.79998779297</ele>
        <time>2014-07-31T07:44:03.000Z</time>
      </trkpt>
      <trkpt lat="47.31118" lon="4.95361">
        <ele>407.60000610352</ele>
        <time>2014-07-31T07:44:08.000Z</time>
      </trkpt>
      <trkpt lat="47.31119" lon="4.95359">
        <ele>407.60000610352</ele>
        <time>2014-07-31T07:44:09.000Z</time>
      </trkpt>
      <trkpt lat="47.31123" lon="4.95352">
        <ele>407.39999389648</ele>
        <time>2014-07-31T07:44:13.000Z</time>
      </trkpt>
      <trkpt lat="47.31125" lon="4.95348">
        <ele>407.39999389648</ele>
        <time>2014-07-31T07:44:15.000Z</time>
      </trkpt>
      <trkpt lat="47.3113" lon="4.95338">
        <ele>407.39999389648</ele>
        <time>2014-07-31T07:44:20.000Z</time>
      </trkpt>
      <trkpt lat="47.3113" lon="4.95337">
        <ele>407.60000610352</ele>
        <time>2014-07-31T07:44:21.000Z</time>
      </trkpt>
      <trkpt lat="47.31134" lon="4.95322">
        <ele>409</ele>
        <time>2014-07-31T07:44:26.000Z</time>
      </trkpt>
      <trkpt lat="47.31135" lon="4.9532">
        <ele>409.20001220703</ele>
        <time>2014-07-31T07:44:27.000Z</time>
      </trkpt>
      <trkpt lat="47.31134" lon="4.9531">
        <ele>410</ele>
        <time>2014-07-31T07:44:31.000Z</time>
      </trkpt>
      <trkpt lat="47.31133" lon="4.95301">
        <ele>410.60000610352</ele>
        <time>2014-07-31T07:44:35.000Z</time>
      </trkpt>
      <trkpt lat="47.31131" lon="4.95285">
        <ele>411.60000610352</ele>
        <time>2014-07-31T07:44:42.000Z</time>
      </trkpt>
      <trkpt lat="47.31132" lon="4.95261">
        <ele>411.79998779297</ele>
        <time>2014-07-31T07:44:52.000Z</time>
      </trkpt>
      <trkpt lat="47.31132" lon="4.95233">
        <ele>412.79998779297</ele>
        <time>2014-07-31T07:45:03.000Z</time>
      </trkpt>
      <trkpt lat="47.31134" lon="4.95213">
        <ele>413.79998779297</ele>
        <time>2014-07-31T07:45:12.000Z</time>
      </trkpt>
      <trkpt lat="47.3114" lon="4.95195">
        <ele>415.20001220703</ele>
        <time>2014-07-31T07:45:20.000Z</time>
      </trkpt>
      <trkpt lat="47.31151" lon="4.95172">
        <ele>416.79998779297</ele>
        <time>2014-07-31T07:45:31.000Z</time>
      </trkpt>
      <trkpt lat="47.31161" lon="4.95147">
        <ele>418</ele>
        <time>2014-07-31T07:45:43.000Z</time>
      </trkpt>
      <trkpt lat="47.31165" lon="4.95119">
        <ele>419</ele>
        <time>2014-07-31T07:45:55.000Z</time>
      </trkpt>
      <trkpt lat="47.31164" lon="4.95099">
        <ele>419.60000610352</ele>
        <time>2014-07-31T07:46:04.000Z</time>
      </trkpt>
      <trkpt lat="47.31161" lon="4.95076">
        <ele>420</ele>
        <time>2014-07-31T07:46:14.000Z</time>
      </trkpt>
      <trkpt lat="47.31157" lon="4.95052">
        <ele>420.39999389648</ele>
        <time>2014-07-31T07:46:24.000Z</time>
      </trkpt>
      <trkpt lat="47.31155" lon="4.95036">
        <ele>420.60000610352</ele>
        <time>2014-07-31T07:46:32.000Z</time>
      </trkpt>
      <trkpt lat="47.31155" lon="4.95033">
        <ele>420.60000610352</ele>
        <time>2014-07-31T07:46:40.000Z</time>
      </trkpt>
      <trkpt lat="47.31154" lon="4.95028">
        <ele>420.60000610352</ele>
        <time>2014-07-31T07:46:47.000Z</time>
      </trkpt>
      <trkpt lat="47.31152" lon="4.95028">
        <ele>420.39999389648</ele>
        <time>2014-07-31T07:46:52.000Z</time>
      </trkpt>
      <trkpt lat="47.31143" lon="4.95025">
        <ele>420</ele>
        <time>2014-07-31T07:46:58.000Z</time>
      </trkpt>
      <trkpt lat="47.3113" lon="4.95011">
        <ele>419.39999389648</ele>
        <time>2014-07-31T07:47:08.000Z</time>
      </trkpt>
      <trkpt lat="47.31116" lon="4.94995">
        <ele>418.60000610352</ele>
        <time>2014-07-31T07:47:19.000Z</time>
      </trkpt>
      <trkpt lat="47.31106" lon="4.94982">
        <ele>418.20001220703</ele>
        <time>2014-07-31T07:47:27.000Z</time>
      </trkpt>
      <trkpt lat="47.31091" lon="4.94965">
        <ele>417.60000610352</ele>
        <time>2014-07-31T07:47:38.000Z</time>
      </trkpt>
      <trkpt lat="47.31078" lon="4.9495">
        <ele>416.79998779297</ele>
        <time>2014-07-31T07:47:49.000Z</time>
      </trkpt>
      <trkpt lat="47.31066" lon="4.94938">
        <ele>415.60000610352</ele>
        <time>2014-07-31T07:47:58.000Z</time>
      </trkpt>
      <trkpt lat="47.31063" lon="4.94937">
        <ele>415.39999389648</ele>
        <time>2014-07-31T07:48:03.000Z</time>
      </trkpt>
      <trkpt lat="47.31056" lon="4.94932">
        <ele>414.60000610352</ele>
        <time>2014-07-31T07:48:10.000Z</time>
      </trkpt>
      <trkpt lat="47.31051" lon="4.94926">
        <ele>414.20001220703</ele>
        <time>2014-07-31T07:48:15.000Z</time>
      </trkpt>
      <trkpt lat="47.3105" lon="4.94923">
        <ele>414</ele>
        <time>2014-07-31T07:48:17.000Z</time>
      </trkpt>
      <trkpt lat="47.31048" lon="4.94915">
        <ele>414</ele>
        <time>2014-07-31T07:48:21.000Z</time>
      </trkpt>
      <trkpt lat="47.31047" lon="4.94901">
        <ele>413.79998779297</ele>
        <time>2014-07-31T07:48:27.000Z</time>
      </trkpt>
      <trkpt lat="47.31047" lon="4.94894">
        <ele>413.79998779297</ele>
        <time>2014-07-31T07:48:31.000Z</time>
      </trkpt>
      <trkpt lat="47.31047" lon="4.94892">
        <ele>413.79998779297</ele>
        <time>2014-07-31T07:48:33.000Z</time>
      </trkpt>
      <trkpt lat="47.31046" lon="4.9488">
        <ele>413.79998779297</ele>
        <time>2014-07-31T07:48:38.000Z</time>
      </trkpt>
      <trkpt lat="47.31045" lon="4.94871">
        <ele>413.60000610352</ele>
        <time>2014-07-31T07:48:41.000Z</time>
      </trkpt>
      <trkpt lat="47.31045" lon="4.94868">
        <ele>413.39999389648</ele>
        <time>2014-07-31T07:48:42.000Z</time>
      </trkpt>
      <trkpt lat="47.31044" lon="4.94854">
        <ele>412.79998779297</ele>
        <time>2014-07-31T07:48:47.000Z</time>
      </trkpt>
      <trkpt lat="47.31041" lon="4.94839">
        <ele>412</ele>
        <time>2014-07-31T07:48:53.000Z</time>
      </trkpt>
      <trkpt lat="47.31041" lon="4.94826">
        <ele>411.79998779297</ele>
        <time>2014-07-31T07:48:58.000Z</time>
      </trkpt>
      <trkpt lat="47.31041" lon="4.9481">
        <ele>411.79998779297</ele>
        <time>2014-07-31T07:49:05.000Z</time>
      </trkpt>
      <trkpt lat="47.31044" lon="4.94795">
        <ele>412.20001220703</ele>
        <time>2014-07-31T07:49:12.000Z</time>
      </trkpt>
      <trkpt lat="47.31044" lon="4.94793">
        <ele>412.20001220703</ele>
        <time>2014-07-31T07:49:13.000Z</time>
      </trkpt>
      <trkpt lat="47.31046" lon="4.94782">
        <ele>412.20001220703</ele>
        <time>2014-07-31T07:49:18.000Z</time>
      </trkpt>
      <trkpt lat="47.3105" lon="4.9477">
        <ele>412.60000610352</ele>
        <time>2014-07-31T07:49:25.000Z</time>
      </trkpt>
      <trkpt lat="47.31051" lon="4.9476">
        <ele>412.39999389648</ele>
        <time>2014-07-31T07:49:29.000Z</time>
      </trkpt>
      <trkpt lat="47.31054" lon="4.9475">
        <ele>412.79998779297</ele>
        <time>2014-07-31T07:49:33.000Z</time>
      </trkpt>
      <trkpt lat="47.31056" lon="4.94739">
        <ele>413</ele>
        <time>2014-07-31T07:49:37.000Z</time>
      </trkpt>
      <trkpt lat="47.31059" lon="4.94731">
        <ele>413.20001220703</ele>
        <time>2014-07-31T07:49:41.000Z</time>
      </trkpt>
      <trkpt lat="47.31062" lon="4.94721">
        <ele>413.39999389648</ele>
        <time>2014-07-31T07:49:45.000Z</time>
      </trkpt>
      <trkpt lat="47.31065" lon="4.94707">
        <ele>414</ele>
        <time>2014-07-31T07:49:52.000Z</time>
      </trkpt>
      <trkpt lat="47.31065" lon="4.94705">
        <ele>414</ele>
        <time>2014-07-31T07:49:53.000Z</time>
      </trkpt>
      <trkpt lat="47.31065" lon="4.94695">
        <ele>414.79998779297</ele>
        <time>2014-07-31T07:49:58.000Z</time>
      </trkpt>
      <trkpt lat="47.31064" lon="4.94685">
        <ele>415</ele>
        <time>2014-07-31T07:50:03.000Z</time>
      </trkpt>
      <trkpt lat="47.31065" lon="4.94672">
        <ele>414.79998779297</ele>
        <time>2014-07-31T07:50:08.000Z</time>
      </trkpt>
      <trkpt lat="47.31065" lon="4.94669">
        <ele>414.79998779297</ele>
        <time>2014-07-31T07:50:09.000Z</time>
      </trkpt>
      <trkpt lat="47.31066" lon="4.94664">
        <ele>414.79998779297</ele>
        <time>2014-07-31T07:50:11.000Z</time>
      </trkpt>
      <trkpt lat="47.31071" lon="4.94649">
        <ele>414.79998779297</ele>
        <time>2014-07-31T07:50:18.000Z</time>
      </trkpt>
      <trkpt lat="47.31071" lon="4.94647">
        <ele>414.79998779297</ele>
        <time>2014-07-31T07:50:19.000Z</time>
      </trkpt>
      <trkpt lat="47.31074" lon="4.94633">
        <ele>414.79998779297</ele>
        <time>2014-07-31T07:50:26.000Z</time>
      </trkpt>
      <trkpt lat="47.31072" lon="4.94614">
        <ele>415.60000610352</ele>
        <time>2014-07-31T07:50:34.000Z</time>
      </trkpt>
      <trkpt lat="47.31071" lon="4.946">
        <ele>415.79998779297</ele>
        <time>2014-07-31T07:50:42.000Z</time>
      </trkpt>
      <trkpt lat="47.31072" lon="4.94577">
        <ele>416</ele>
        <time>2014-07-31T07:50:50.000Z</time>
      </trkpt>
      <trkpt lat="47.31072" lon="4.94574">
        <ele>416</ele>
        <time>2014-07-31T07:50:51.000Z</time>
      </trkpt>
      <trkpt lat="47.31074" lon="4.94559">
        <ele>416</ele>
        <time>2014-07-31T07:50:56.000Z</time>
      </trkpt>
      <trkpt lat="47.31074" lon="4.94557">
        <ele>416</ele>
        <time>2014-07-31T07:50:57.000Z</time>
      </trkpt>
      <trkpt lat="47.31076" lon="4.94546">
        <ele>416.20001220703</ele>
        <time>2014-07-31T07:51:01.000Z</time>
      </trkpt>
      <trkpt lat="47.31078" lon="4.94536">
        <ele>416.20001220703</ele>
        <time>2014-07-31T07:51:06.000Z</time>
      </trkpt>
      <trkpt lat="47.31078" lon="4.94529">
        <ele>416.39999389648</ele>
        <time>2014-07-31T07:51:09.000Z</time>
      </trkpt>
      <trkpt lat="47.31079" lon="4.94517">
        <ele>416.79998779297</ele>
        <time>2014-07-31T07:51:14.000Z</time>
      </trkpt>
      <trkpt lat="47.31079" lon="4.94515">
        <ele>417</ele>
        <time>2014-07-31T07:51:15.000Z</time>
      </trkpt>
      <trkpt lat="47.31076" lon="4.94497">
        <ele>417.60000610352</ele>
        <time>2014-07-31T07:51:23.000Z</time>
      </trkpt>
      <trkpt lat="47.31075" lon="4.94494">
        <ele>417.60000610352</ele>
        <time>2014-07-31T07:51:25.000Z</time>
      </trkpt>
      <trkpt lat="47.31068" lon="4.94477">
        <ele>418.39999389648</ele>
        <time>2014-07-31T07:51:34.000Z</time>
      </trkpt>
      <trkpt lat="47.31063" lon="4.9447">
        <ele>418.60000610352</ele>
        <time>2014-07-31T07:51:39.000Z</time>
      </trkpt>
      <trkpt lat="47.31059" lon="4.94463">
        <ele>418.79998779297</ele>
        <time>2014-07-31T07:51:44.000Z</time>
      </trkpt>
      <trkpt lat="47.31057" lon="4.94453">
        <ele>419</ele>
        <time>2014-07-31T07:51:49.000Z</time>
      </trkpt>
      <trkpt lat="47.31052" lon="4.94442">
        <ele>419.20001220703</ele>
        <time>2014-07-31T07:51:54.000Z</time>
      </trkpt>
      <trkpt lat="47.31048" lon="4.94431">
        <ele>419.39999389648</ele>
        <time>2014-07-31T07:51:58.000Z</time>
      </trkpt>
      <trkpt lat="47.31041" lon="4.94409">
        <ele>419.60000610352</ele>
        <time>2014-07-31T07:52:06.000Z</time>
      </trkpt>
      <trkpt lat="47.31036" lon="4.94391">
        <ele>420</ele>
        <time>2014-07-31T07:52:13.000Z</time>
      </trkpt>
      <trkpt lat="47.31032" lon="4.94373">
        <ele>420.39999389648</ele>
        <time>2014-07-31T07:52:21.000Z</time>
      </trkpt>
      <trkpt lat="47.31028" lon="4.94362">
        <ele>420.79998779297</ele>
        <time>2014-07-31T07:52:26.000Z</time>
      </trkpt>
      <trkpt lat="47.31022" lon="4.94341">
        <ele>421.60000610352</ele>
        <time>2014-07-31T07:52:38.000Z</time>
      </trkpt>
      <trkpt lat="47.31021" lon="4.94338">
        <ele>421.60000610352</ele>
        <time>2014-07-31T07:52:39.000Z</time>
      </trkpt>
      <trkpt lat="47.31017" lon="4.94327">
        <ele>422</ele>
        <time>2014-07-31T07:52:45.000Z</time>
      </trkpt>
      <trkpt lat="47.31016" lon="4.94325">
        <ele>422</ele>
        <time>2014-07-31T07:52:46.000Z</time>
      </trkpt>
      <trkpt lat="47.31012" lon="4.94322">
        <ele>422</ele>
        <time>2014-07-31T07:52:50.000Z</time>
      </trkpt>
      <trkpt lat="47.31008" lon="4.94322">
        <ele>422</ele>
        <time>2014-07-31T07:52:54.000Z</time>
      </trkpt>
      <trkpt lat="47.31007" lon="4.94327">
        <ele>421.79998779297</ele>
        <time>2014-07-31T07:52:58.000Z</time>
      </trkpt>
      <trkpt lat="47.31008" lon="4.94331">
        <ele>421.60000610352</ele>
        <time>2014-07-31T07:53:02.000Z</time>
      </trkpt>
      <trkpt lat="47.31013" lon="4.94336">
        <ele>421.60000610352</ele>
        <time>2014-07-31T07:53:07.000Z</time>
      </trkpt>
      <trkpt lat="47.31013" lon="4.94342">
        <ele>421.39999389648</ele>
        <time>2014-07-31T07:53:10.000Z</time>
      </trkpt>
      <trkpt lat="47.31014" lon="4.94345">
        <ele>421.20001220703</ele>
        <time>2014-07-31T07:53:12.000Z</time>
      </trkpt>
      <trkpt lat="47.31017" lon="4.94352">
        <ele>421</ele>
        <time>2014-07-31T07:53:16.000Z</time>
      </trkpt>
      <trkpt lat="47.31021" lon="4.9436">
        <ele>420.79998779297</ele>
        <time>2014-07-31T07:53:20.000Z</time>
      </trkpt>
      <trkpt lat="47.31023" lon="4.94366">
        <ele>420.60000610352</ele>
        <time>2014-07-31T07:53:23.000Z</time>
      </trkpt>
      <trkpt lat="47.31026" lon="4.94385">
        <ele>420</ele>
        <time>2014-07-31T07:53:32.000Z</time>
      </trkpt>
      <trkpt lat="47.31026" lon="4.94387">
        <ele>420</ele>
        <time>2014-07-31T07:53:33.000Z</time>
      </trkpt>
      <trkpt lat="47.31023" lon="4.94403">
        <ele>419.60000610352</ele>
        <time>2014-07-31T07:53:38.000Z</time>
      </trkpt>
      <trkpt lat="47.31023" lon="4.94409">
        <ele>419.60000610352</ele>
        <time>2014-07-31T07:53:41.000Z</time>
      </trkpt>
      <trkpt lat="47.31026" lon="4.94421">
        <ele>419.39999389648</ele>
        <time>2014-07-31T07:53:47.000Z</time>
      </trkpt>
      <trkpt lat="47.3103" lon="4.94437">
        <ele>419.20001220703</ele>
        <time>2014-07-31T07:53:53.000Z</time>
      </trkpt>
      <trkpt lat="47.31033" lon="4.94448">
        <ele>419.20001220703</ele>
        <time>2014-07-31T07:53:57.000Z</time>
      </trkpt>
      <trkpt lat="47.31037" lon="4.94465">
        <ele>418.79998779297</ele>
        <time>2014-07-31T07:54:03.000Z</time>
      </trkpt>
      <trkpt lat="47.31037" lon="4.9447">
        <ele>418.60000610352</ele>
        <time>2014-07-31T07:54:05.000Z</time>
      </trkpt>
      <trkpt lat="47.31039" lon="4.94474">
        <ele>418.39999389648</ele>
        <time>2014-07-31T07:54:07.000Z</time>
      </trkpt>
      <trkpt lat="47.31039" lon="4.94478">
        <ele>418.20001220703</ele>
        <time>2014-07-31T07:54:10.000Z</time>
      </trkpt>
      <trkpt lat="47.3104" lon="4.9449">
        <ele>417.79998779297</ele>
        <time>2014-07-31T07:54:15.000Z</time>
      </trkpt>
      <trkpt lat="47.3104" lon="4.94498">
        <ele>417.60000610352</ele>
        <time>2014-07-31T07:54:18.000Z</time>
      </trkpt>
      <trkpt lat="47.31042" lon="4.94507">
        <ele>417.39999389648</ele>
        <time>2014-07-31T07:54:23.000Z</time>
      </trkpt>
      <trkpt lat="47.31042" lon="4.94508">
        <ele>417.39999389648</ele>
        <time>2014-07-31T07:54:24.000Z</time>
      </trkpt>
      <trkpt lat="47.31044" lon="4.94509">
        <ele>417.39999389648</ele>
        <time>2014-07-31T07:54:25.000Z</time>
      </trkpt>
      <trkpt lat="47.31043" lon="4.94516">
        <ele>417.39999389648</ele>
        <time>2014-07-31T07:54:28.000Z</time>
      </trkpt>
      <trkpt lat="47.31043" lon="4.94521">
        <ele>417.60000610352</ele>
        <time>2014-07-31T07:54:30.000Z</time>
      </trkpt>
      <trkpt lat="47.31042" lon="4.94536">
        <ele>417.79998779297</ele>
        <time>2014-07-31T07:54:36.000Z</time>
      </trkpt>
      <trkpt lat="47.3104" lon="4.94545">
        <ele>417.79998779297</ele>
        <time>2014-07-31T07:54:39.000Z</time>
      </trkpt>
      <trkpt lat="47.31038" lon="4.94557">
        <ele>417.79998779297</ele>
        <time>2014-07-31T07:54:43.000Z</time>
      </trkpt>
      <trkpt lat="47.31035" lon="4.94567">
        <ele>417.79998779297</ele>
        <time>2014-07-31T07:54:48.000Z</time>
      </trkpt>
      <trkpt lat="47.31034" lon="4.94569">
        <ele>417.79998779297</ele>
        <time>2014-07-31T07:54:50.000Z</time>
      </trkpt>
      <trkpt lat="47.31034" lon="4.94577">
        <ele>417.79998779297</ele>
        <time>2014-07-31T07:54:55.000Z</time>
      </trkpt>
      <trkpt lat="47.31033" lon="4.9458">
        <ele>417.60000610352</ele>
        <time>2014-07-31T07:54:56.000Z</time>
      </trkpt>
      <trkpt lat="47.3103" lon="4.94585">
        <ele>416.79998779297</ele>
        <time>2014-07-31T07:55:00.000Z</time>
      </trkpt>
      <trkpt lat="47.31027" lon="4.94591">
        <ele>416</ele>
        <time>2014-07-31T07:55:05.000Z</time>
      </trkpt>
      <trkpt lat="47.31025" lon="4.94596">
        <ele>415.39999389648</ele>
        <time>2014-07-31T07:55:08.000Z</time>
      </trkpt>
      <trkpt lat="47.31022" lon="4.94606">
        <ele>414</ele>
        <time>2014-07-31T07:55:13.000Z</time>
      </trkpt>
      <trkpt lat="47.3102" lon="4.94611">
        <ele>413.39999389648</ele>
        <time>2014-07-31T07:55:15.000Z</time>
      </trkpt>
      <trkpt lat="47.31016" lon="4.9462">
        <ele>412.39999389648</ele>
        <time>2014-07-31T07:55:19.000Z</time>
      </trkpt>
      <trkpt lat="47.31013" lon="4.94633">
        <ele>411.79998779297</ele>
        <time>2014-07-31T07:55:26.000Z</time>
      </trkpt>
      <trkpt lat="47.31007" lon="4.94647">
        <ele>410.39999389648</ele>
        <time>2014-07-31T07:55:33.000Z</time>
      </trkpt>
      <trkpt lat="47.31001" lon="4.94658">
        <ele>408.79998779297</ele>
        <time>2014-07-31T07:55:38.000Z</time>
      </trkpt>
      <trkpt lat="47.30996" lon="4.94664">
        <ele>407.60000610352</ele>
        <time>2014-07-31T07:55:42.000Z</time>
      </trkpt>
      <trkpt lat="47.30995" lon="4.94666">
        <ele>407.60000610352</ele>
        <time>2014-07-31T07:55:43.000Z</time>
      </trkpt>
      <trkpt lat="47.30993" lon="4.94667">
        <ele>407.60000610352</ele>
        <time>2014-07-31T07:55:44.000Z</time>
      </trkpt>
      <trkpt lat="47.30989" lon="4.94679">
        <ele>406.79998779297</ele>
        <time>2014-07-31T07:55:48.000Z</time>
      </trkpt>
      <trkpt lat="47.30987" lon="4.94686">
        <ele>406.20001220703</ele>
        <time>2014-07-31T07:55:50.000Z</time>
      </trkpt>
      <trkpt lat="47.30982" lon="4.94702">
        <ele>405.20001220703</ele>
        <time>2014-07-31T07:55:55.000Z</time>
      </trkpt>
      <trkpt lat="47.30977" lon="4.94715">
        <ele>405.20001220703</ele>
        <time>2014-07-31T07:55:59.000Z</time>
      </trkpt>
      <trkpt lat="47.30976" lon="4.94717">
        <ele>405.20001220703</ele>
        <time>2014-07-31T07:56:00.000Z</time>
      </trkpt>
      <trkpt lat="47.30974" lon="4.9472">
        <ele>405.39999389648</ele>
        <time>2014-07-31T07:56:02.000Z</time>
      </trkpt>
      <trkpt lat="47.30971" lon="4.94733">
        <ele>405.79998779297</ele>
        <time>2014-07-31T07:56:08.000Z</time>
      </trkpt>
      <trkpt lat="47.3097" lon="4.94736">
        <ele>406</ele>
        <time>2014-07-31T07:56:09.000Z</time>
      </trkpt>
      <trkpt lat="47.30969" lon="4.94751">
        <ele>406.39999389648</ele>
        <time>2014-07-31T07:56:14.000Z</time>
      </trkpt>
      <trkpt lat="47.30969" lon="4.94754">
        <ele>406.39999389648</ele>
        <time>2014-07-31T07:56:15.000Z</time>
      </trkpt>
      <trkpt lat="47.30965" lon="4.94766">
        <ele>406.60000610352</ele>
        <time>2014-07-31T07:56:20.000Z</time>
      </trkpt>
      <trkpt lat="47.30964" lon="4.9477">
        <ele>406.60000610352</ele>
        <time>2014-07-31T07:56:22.000Z</time>
      </trkpt>
      <trkpt lat="47.30964" lon="4.94773">
        <ele>406.60000610352</ele>
        <time>2014-07-31T07:56:24.000Z</time>
      </trkpt>
      <trkpt lat="47.30963" lon="4.94781">
        <ele>406.60000610352</ele>
        <time>2014-07-31T07:56:28.000Z</time>
      </trkpt>
      <trkpt lat="47.30961" lon="4.94793">
        <ele>406.60000610352</ele>
        <time>2014-07-31T07:56:32.000Z</time>
      </trkpt>
      <trkpt lat="47.30958" lon="4.94803">
        <ele>407</ele>
        <time>2014-07-31T07:56:35.000Z</time>
      </trkpt>
      <trkpt lat="47.30953" lon="4.9482">
        <ele>407.60000610352</ele>
        <time>2014-07-31T07:56:42.000Z</time>
      </trkpt>
      <trkpt lat="47.30949" lon="4.94829">
        <ele>407.79998779297</ele>
        <time>2014-07-31T07:56:46.000Z</time>
      </trkpt>
      <trkpt lat="47.30943" lon="4.94844">
        <ele>406.79998779297</ele>
        <time>2014-07-31T07:56:51.000Z</time>
      </trkpt>
      <trkpt lat="47.3094" lon="4.94855">
        <ele>406.20001220703</ele>
        <time>2014-07-31T07:56:55.000Z</time>
      </trkpt>
      <trkpt lat="47.30939" lon="4.94857">
        <ele>406.20001220703</ele>
        <time>2014-07-31T07:56:56.000Z</time>
      </trkpt>
      <trkpt lat="47.30939" lon="4.9486">
        <ele>406</ele>
        <time>2014-07-31T07:56:57.000Z</time>
      </trkpt>
      <trkpt lat="47.30939" lon="4.94862">
        <ele>406</ele>
        <time>2014-07-31T07:56:58.000Z</time>
      </trkpt>
      <trkpt lat="47.30935" lon="4.94873">
        <ele>405.39999389648</ele>
        <time>2014-07-31T07:57:02.000Z</time>
      </trkpt>
      <trkpt lat="47.30935" lon="4.94883">
        <ele>405.39999389648</ele>
        <time>2014-07-31T07:57:07.000Z</time>
      </trkpt>
      <trkpt lat="47.30934" lon="4.94888">
        <ele>405.60000610352</ele>
        <time>2014-07-31T07:57:09.000Z</time>
      </trkpt>
      <trkpt lat="47.30933" lon="4.94897">
        <ele>405.39999389648</ele>
        <time>2014-07-31T07:57:13.000Z</time>
      </trkpt>
      <trkpt lat="47.30933" lon="4.949">
        <ele>405.20001220703</ele>
        <time>2014-07-31T07:57:14.000Z</time>
      </trkpt>
      <trkpt lat="47.30932" lon="4.94904">
        <ele>404.79998779297</ele>
        <time>2014-07-31T07:57:16.000Z</time>
      </trkpt>
      <trkpt lat="47.30932" lon="4.94914">
        <ele>404</ele>
        <time>2014-07-31T07:57:20.000Z</time>
      </trkpt>
      <trkpt lat="47.30932" lon="4.94918">
        <ele>403.60000610352</ele>
        <time>2014-07-31T07:57:22.000Z</time>
      </trkpt>
      <trkpt lat="47.3093" lon="4.94925">
        <ele>402.79998779297</ele>
        <time>2014-07-31T07:57:25.000Z</time>
      </trkpt>
      <trkpt lat="47.30928" lon="4.9493">
        <ele>402.20001220703</ele>
        <time>2014-07-31T07:57:27.000Z</time>
      </trkpt>
      <trkpt lat="47.30927" lon="4.94934">
        <ele>401.79998779297</ele>
        <time>2014-07-31T07:57:29.000Z</time>
      </trkpt>
      <trkpt lat="47.30928" lon="4.94948">
        <ele>401</ele>
        <time>2014-07-31T07:57:36.000Z</time>
      </trkpt>
      <trkpt lat="47.30927" lon="4.9495">
        <ele>400.79998779297</ele>
        <time>2014-07-31T07:57:37.000Z</time>
      </trkpt>
      <trkpt lat="47.30924" lon="4.94961">
        <ele>399.60000610352</ele>
        <time>2014-07-31T07:57:41.000Z</time>
      </trkpt>
      <trkpt lat="47.30921" lon="4.94971">
        <ele>398.60000610352</ele>
        <time>2014-07-31T07:57:45.000Z</time>
      </trkpt>
      <trkpt lat="47.30921" lon="4.94973">
        <ele>398.60000610352</ele>
        <time>2014-07-31T07:57:46.000Z</time>
      </trkpt>
      <trkpt lat="47.30922" lon="4.94978">
        <ele>398.20001220703</ele>
        <time>2014-07-31T07:57:48.000Z</time>
      </trkpt>
      <trkpt lat="47.30921" lon="4.94997">
        <ele>396.39999389648</ele>
        <time>2014-07-31T07:57:54.000Z</time>
      </trkpt>
      <trkpt lat="47.30921" lon="4.95001">
        <ele>396</ele>
        <time>2014-07-31T07:57:55.000Z</time>
      </trkpt>
      <trkpt lat="47.30919" lon="4.95013">
        <ele>394.39999389648</ele>
        <time>2014-07-31T07:57:59.000Z</time>
      </trkpt>
      <trkpt lat="47.3092" lon="4.95023">
        <ele>394</ele>
        <time>2014-07-31T07:58:03.000Z</time>
      </trkpt>
      <trkpt lat="47.30921" lon="4.95046">
        <ele>392.39999389648</ele>
        <time>2014-07-31T07:58:10.000Z</time>
      </trkpt>
      <trkpt lat="47.3092" lon="4.95067">
        <ele>392</ele>
        <time>2014-07-31T07:58:16.000Z</time>
      </trkpt>
      <trkpt lat="47.3092" lon="4.95071">
        <ele>391.79998779297</ele>
        <time>2014-07-31T07:58:17.000Z</time>
      </trkpt>
      <trkpt lat="47.3092" lon="4.95085">
        <ele>391.79998779297</ele>
        <time>2014-07-31T07:58:22.000Z</time>
      </trkpt>
      <trkpt lat="47.30924" lon="4.95092">
        <ele>392.60000610352</ele>
        <time>2014-07-31T07:58:26.000Z</time>
      </trkpt>
      <trkpt lat="47.30924" lon="4.95098">
        <ele>392.39999389648</ele>
        <time>2014-07-31T07:58:28.000Z</time>
      </trkpt>
      <trkpt lat="47.30926" lon="4.95115">
        <ele>392.79998779297</ele>
        <time>2014-07-31T07:58:34.000Z</time>
      </trkpt>
      <trkpt lat="47.30928" lon="4.95125">
        <ele>393</ele>
        <time>2014-07-31T07:58:39.000Z</time>
      </trkpt>
      <trkpt lat="47.3093" lon="4.9514">
        <ele>392.39999389648</ele>
        <time>2014-07-31T07:58:44.000Z</time>
      </trkpt>
      <trkpt lat="47.30931" lon="4.95142">
        <ele>392.39999389648</ele>
        <time>2014-07-31T07:58:45.000Z</time>
      </trkpt>
      <trkpt lat="47.30931" lon="4.95157">
        <ele>392.20001220703</ele>
        <time>2014-07-31T07:58:50.000Z</time>
      </trkpt>
      <trkpt lat="47.30932" lon="4.95168">
        <ele>392</ele>
        <time>2014-07-31T07:58:54.000Z</time>
      </trkpt>
      <trkpt lat="47.30931" lon="4.95185">
        <ele>391.60000610352</ele>
        <time>2014-07-31T07:58:58.000Z</time>
      </trkpt>
      <trkpt lat="47.30931" lon="4.95204">
        <ele>391</ele>
        <time>2014-07-31T07:59:03.000Z</time>
      </trkpt>
      <trkpt lat="47.30932" lon="4.9522">
        <ele>390</ele>
        <time>2014-07-31T07:59:08.000Z</time>
      </trkpt>
      <trkpt lat="47.30936" lon="4.95228">
        <ele>390.20001220703</ele>
        <time>2014-07-31T07:59:12.000Z</time>
      </trkpt>
      <trkpt lat="47.30938" lon="4.95229">
        <ele>390.20001220703</ele>
        <time>2014-07-31T07:59:14.000Z</time>
      </trkpt>
      <trkpt lat="47.30941" lon="4.9524">
        <ele>390.20001220703</ele>
        <time>2014-07-31T07:59:20.000Z</time>
      </trkpt>
      <trkpt lat="47.30941" lon="4.95241">
        <ele>390.20001220703</ele>
        <time>2014-07-31T07:59:21.000Z</time>
      </trkpt>
      <trkpt lat="47.30942" lon="4.95244">
        <ele>390.20001220703</ele>
        <time>2014-07-31T07:59:23.000Z</time>
      </trkpt>
      <trkpt lat="47.30941" lon="4.95262">
        <ele>389.39999389648</ele>
        <time>2014-07-31T07:59:29.000Z</time>
      </trkpt>
      <trkpt lat="47.30943" lon="4.95268">
        <ele>389.39999389648</ele>
        <time>2014-07-31T07:59:33.000Z</time>
      </trkpt>
      <trkpt lat="47.30944" lon="4.95274">
        <ele>389.20001220703</ele>
        <time>2014-07-31T07:59:36.000Z</time>
      </trkpt>
      <trkpt lat="47.30941" lon="4.95294">
        <ele>388.20001220703</ele>
        <time>2014-07-31T07:59:42.000Z</time>
      </trkpt>
      <trkpt lat="47.30941" lon="4.95296">
        <ele>388</ele>
        <time>2014-07-31T07:59:43.000Z</time>
      </trkpt>
      <trkpt lat="47.30945" lon="4.95306">
        <ele>387.60000610352</ele>
        <time>2014-07-31T07:59:48.000Z</time>
      </trkpt>
      <trkpt lat="47.30945" lon="4.95317">
        <ele>387</ele>
        <time>2014-07-31T07:59:52.000Z</time>
      </trkpt>
      <trkpt lat="47.30946" lon="4.9532">
        <ele>386.79998779297</ele>
        <time>2014-07-31T07:59:53.000Z</time>
      </trkpt>
      <trkpt lat="47.30946" lon="4.95334">
        <ele>386.39999389648</ele>
        <time>2014-07-31T07:59:58.000Z</time>
      </trkpt>
      <trkpt lat="47.30945" lon="4.95347">
        <ele>386.20001220703</ele>
        <time>2014-07-31T08:00:02.000Z</time>
      </trkpt>
      <trkpt lat="47.30945" lon="4.9535">
        <ele>386.20001220703</ele>
        <time>2014-07-31T08:00:03.000Z</time>
      </trkpt>
      <trkpt lat="47.30949" lon="4.95363">
        <ele>386.20001220703</ele>
        <time>2014-07-31T08:00:08.000Z</time>
      </trkpt>
      <trkpt lat="47.30951" lon="4.95363">
        <ele>386.39999389648</ele>
        <time>2014-07-31T08:00:09.000Z</time>
      </trkpt>
      <trkpt lat="47.3095" lon="4.95368">
        <ele>386.20001220703</ele>
        <time>2014-07-31T08:00:10.000Z</time>
      </trkpt>
      <trkpt lat="47.30951" lon="4.95378">
        <ele>386</ele>
        <time>2014-07-31T08:00:13.000Z</time>
      </trkpt>
      <trkpt lat="47.30949" lon="4.95404">
        <ele>384.60000610352</ele>
        <time>2014-07-31T08:00:20.000Z</time>
      </trkpt>
      <trkpt lat="47.30949" lon="4.95411">
        <ele>384.39999389648</ele>
        <time>2014-07-31T08:00:22.000Z</time>
      </trkpt>
      <trkpt lat="47.30949" lon="4.95435">
        <ele>384.20001220703</ele>
        <time>2014-07-31T08:00:29.000Z</time>
      </trkpt>
      <trkpt lat="47.3095" lon="4.95442">
        <ele>384</ele>
        <time>2014-07-31T08:00:32.000Z</time>
      </trkpt>
      <trkpt lat="47.30955" lon="4.9545">
        <ele>384</ele>
        <time>2014-07-31T08:00:36.000Z</time>
      </trkpt>
      <trkpt lat="47.30954" lon="4.95461">
        <ele>383.60000610352</ele>
        <time>2014-07-31T08:00:40.000Z</time>
      </trkpt>
      <trkpt lat="47.30954" lon="4.95464">
        <ele>383.39999389648</ele>
        <time>2014-07-31T08:00:42.000Z</time>
      </trkpt>
      <trkpt lat="47.30954" lon="4.95466">
        <ele>383.20001220703</ele>
        <time>2014-07-31T08:00:43.000Z</time>
      </trkpt>
      <trkpt lat="47.30957" lon="4.95475">
        <ele>382.60000610352</ele>
        <time>2014-07-31T08:00:48.000Z</time>
      </trkpt>
      <trkpt lat="47.30957" lon="4.95486">
        <ele>381.60000610352</ele>
        <time>2014-07-31T08:00:51.000Z</time>
      </trkpt>
      <trkpt lat="47.30959" lon="4.95499">
        <ele>380.60000610352</ele>
        <time>2014-07-31T08:00:56.000Z</time>
      </trkpt>
      <trkpt lat="47.3096" lon="4.955">
        <ele>380.60000610352</ele>
        <time>2014-07-31T08:00:57.000Z</time>
      </trkpt>
      <trkpt lat="47.30963" lon="4.955">
        <ele>380.60000610352</ele>
        <time>2014-07-31T08:00:59.000Z</time>
      </trkpt>
      <trkpt lat="47.30965" lon="4.95502">
        <ele>380.60000610352</ele>
        <time>2014-07-31T08:01:01.000Z</time>
      </trkpt>
      <trkpt lat="47.30969" lon="4.95514">
        <ele>379.60000610352</ele>
        <time>2014-07-31T08:01:06.000Z</time>
      </trkpt>
      <trkpt lat="47.30972" lon="4.95524">
        <ele>379.60000610352</ele>
        <time>2014-07-31T08:01:10.000Z</time>
      </trkpt>
      <trkpt lat="47.30973" lon="4.95531">
        <ele>379.79998779297</ele>
        <time>2014-07-31T08:01:12.000Z</time>
      </trkpt>
      <trkpt lat="47.30973" lon="4.95538">
        <ele>380</ele>
        <time>2014-07-31T08:01:14.000Z</time>
      </trkpt>
      <trkpt lat="47.30973" lon="4.95554">
        <ele>378.79998779297</ele>
        <time>2014-07-31T08:01:18.000Z</time>
      </trkpt>
      <trkpt lat="47.30975" lon="4.95559">
        <ele>378</ele>
        <time>2014-07-31T08:01:20.000Z</time>
      </trkpt>
      <trkpt lat="47.30977" lon="4.95575">
        <ele>376.39999389648</ele>
        <time>2014-07-31T08:01:26.000Z</time>
      </trkpt>
      <trkpt lat="47.30977" lon="4.95585">
        <ele>375.39999389648</ele>
        <time>2014-07-31T08:01:29.000Z</time>
      </trkpt>
      <trkpt lat="47.30981" lon="4.95598">
        <ele>373.79998779297</ele>
        <time>2014-07-31T08:01:35.000Z</time>
      </trkpt>
      <trkpt lat="47.30983" lon="4.95607">
        <ele>372.79998779297</ele>
        <time>2014-07-31T08:01:38.000Z</time>
      </trkpt>
      <trkpt lat="47.30985" lon="4.95611">
        <ele>372.39999389648</ele>
        <time>2014-07-31T08:01:40.000Z</time>
      </trkpt>
      <trkpt lat="47.30988" lon="4.95617">
        <ele>371.79998779297</ele>
        <time>2014-07-31T08:01:43.000Z</time>
      </trkpt>
      <trkpt lat="47.3099" lon="4.95634">
        <ele>371</ele>
        <time>2014-07-31T08:01:49.000Z</time>
      </trkpt>
      <trkpt lat="47.3099" lon="4.95641">
        <ele>370.60000610352</ele>
        <time>2014-07-31T08:01:51.000Z</time>
      </trkpt>
      <trkpt lat="47.30992" lon="4.95659">
        <ele>369</ele>
        <time>2014-07-31T08:01:57.000Z</time>
      </trkpt>
      <trkpt lat="47.30994" lon="4.95664">
        <ele>368.39999389648</ele>
        <time>2014-07-31T08:01:59.000Z</time>
      </trkpt>
      <trkpt lat="47.30995" lon="4.95681">
        <ele>367</ele>
        <time>2014-07-31T08:02:05.000Z</time>
      </trkpt>
      <trkpt lat="47.30998" lon="4.95686">
        <ele>366.39999389648</ele>
        <time>2014-07-31T08:02:08.000Z</time>
      </trkpt>
      <trkpt lat="47.31001" lon="4.95691">
        <ele>366.39999389648</ele>
        <time>2014-07-31T08:02:11.000Z</time>
      </trkpt>
      <trkpt lat="47.31004" lon="4.95706">
        <ele>365.60000610352</ele>
        <time>2014-07-31T08:02:16.000Z</time>
      </trkpt>
      <trkpt lat="47.31007" lon="4.9572">
        <ele>364.60000610352</ele>
        <time>2014-07-31T08:02:21.000Z</time>
      </trkpt>
      <trkpt lat="47.31013" lon="4.95732">
        <ele>364.20001220703</ele>
        <time>2014-07-31T08:02:27.000Z</time>
      </trkpt>
      <trkpt lat="47.31015" lon="4.95745">
        <ele>363.60000610352</ele>
        <time>2014-07-31T08:02:32.000Z</time>
      </trkpt>
      <trkpt lat="47.31018" lon="4.95758">
        <ele>363</ele>
        <time>2014-07-31T08:02:38.000Z</time>
      </trkpt>
      <trkpt lat="47.31019" lon="4.95764">
        <ele>362.79998779297</ele>
        <time>2014-07-31T08:02:40.000Z</time>
      </trkpt>
      <trkpt lat="47.31027" lon="4.95774">
        <ele>362.60000610352</ele>
        <time>2014-07-31T08:02:45.000Z</time>
      </trkpt>
      <trkpt lat="47.31033" lon="4.95779">
        <ele>362.39999389648</ele>
        <time>2014-07-31T08:02:48.000Z</time>
      </trkpt>
      <trkpt lat="47.31034" lon="4.9578">
        <ele>362.39999389648</ele>
        <time>2014-07-31T08:02:49.000Z</time>
      </trkpt>
      <trkpt lat="47.31035" lon="4.95783">
        <ele>362.20001220703</ele>
        <time>2014-07-31T08:02:51.000Z</time>
      </trkpt>
      <trkpt lat="47.31036" lon="4.95788">
        <ele>362</ele>
        <time>2014-07-31T08:02:53.000Z</time>
      </trkpt>
      <trkpt lat="47.31038" lon="4.95797">
        <ele>361.79998779297</ele>
        <time>2014-07-31T08:02:57.000Z</time>
      </trkpt>
      <trkpt lat="47.31044" lon="4.95818">
        <ele>361.20001220703</ele>
        <time>2014-07-31T08:03:07.000Z</time>
      </trkpt>
      <trkpt lat="47.31044" lon="4.9582">
        <ele>361.20001220703</ele>
        <time>2014-07-31T08:03:08.000Z</time>
      </trkpt>
      <trkpt lat="47.31046" lon="4.9583">
        <ele>360.79998779297</ele>
        <time>2014-07-31T08:03:13.000Z</time>
      </trkpt>
      <trkpt lat="47.31046" lon="4.95835">
        <ele>360.60000610352</ele>
        <time>2014-07-31T08:03:15.000Z</time>
      </trkpt>
      <trkpt lat="47.31049" lon="4.95845">
        <ele>360.39999389648</ele>
        <time>2014-07-31T08:03:19.000Z</time>
      </trkpt>
      <trkpt lat="47.31052" lon="4.95859">
        <ele>361</ele>
        <time>2014-07-31T08:03:25.000Z</time>
      </trkpt>
      <trkpt lat="47.31054" lon="4.95873">
        <ele>361.60000610352</ele>
        <time>2014-07-31T08:03:31.000Z</time>
      </trkpt>
      <trkpt lat="47.31054" lon="4.95894">
        <ele>360.20001220703</ele>
        <time>2014-07-31T08:03:37.000Z</time>
      </trkpt>
      <trkpt lat="47.31056" lon="4.95907">
        <ele>359.20001220703</ele>
        <time>2014-07-31T08:03:42.000Z</time>
      </trkpt>
      <trkpt lat="47.31056" lon="4.95909">
        <ele>359</ele>
        <time>2014-07-31T08:03:43.000Z</time>
      </trkpt>
      <trkpt lat="47.31058" lon="4.95921">
        <ele>358</ele>
        <time>2014-07-31T08:03:47.000Z</time>
      </trkpt>
      <trkpt lat="47.31062" lon="4.95931">
        <ele>357</ele>
        <time>2014-07-31T08:03:51.000Z</time>
      </trkpt>
      <trkpt lat="47.31066" lon="4.95942">
        <ele>356</ele>
        <time>2014-07-31T08:03:55.000Z</time>
      </trkpt>
      <trkpt lat="47.31067" lon="4.95948">
        <ele>356</ele>
        <time>2014-07-31T08:03:57.000Z</time>
      </trkpt>
      <trkpt lat="47.31071" lon="4.9596">
        <ele>355.79998779297</ele>
        <time>2014-07-31T08:04:02.000Z</time>
      </trkpt>
      <trkpt lat="47.31073" lon="4.95974">
        <ele>354.60000610352</ele>
        <time>2014-07-31T08:04:08.000Z</time>
      </trkpt>
      <trkpt lat="47.31073" lon="4.95984">
        <ele>354.20001220703</ele>
        <time>2014-07-31T08:04:12.000Z</time>
      </trkpt>
      <trkpt lat="47.31074" lon="4.95992">
        <ele>353.60000610352</ele>
        <time>2014-07-31T08:04:16.000Z</time>
      </trkpt>
      <trkpt lat="47.31074" lon="4.95997">
        <ele>353.39999389648</ele>
        <time>2014-07-31T08:04:18.000Z</time>
      </trkpt>
      <trkpt lat="47.31074" lon="4.96004">
        <ele>353</ele>
        <time>2014-07-31T08:04:21.000Z</time>
      </trkpt>
      <trkpt lat="47.31073" lon="4.96013">
        <ele>352.79998779297</ele>
        <time>2014-07-31T08:04:26.000Z</time>
      </trkpt>
      <trkpt lat="47.31072" lon="4.96042">
        <ele>351.20001220703</ele>
        <time>2014-07-31T08:04:36.000Z</time>
      </trkpt>
      <trkpt lat="47.31073" lon="4.96053">
        <ele>350.60000610352</ele>
        <time>2014-07-31T08:04:40.000Z</time>
      </trkpt>
      <trkpt lat="47.31073" lon="4.96065">
        <ele>350</ele>
        <time>2014-07-31T08:04:45.000Z</time>
      </trkpt>
      <trkpt lat="47.31069" lon="4.9608">
        <ele>350</ele>
        <time>2014-07-31T08:04:50.000Z</time>
      </trkpt>
      <trkpt lat="47.31065" lon="4.96096">
        <ele>350</ele>
        <time>2014-07-31T08:04:55.000Z</time>
      </trkpt>
      <trkpt lat="47.31064" lon="4.96099">
        <ele>350</ele>
        <time>2014-07-31T08:04:56.000Z</time>
      </trkpt>
      <trkpt lat="47.31062" lon="4.96104">
        <ele>350</ele>
        <time>2014-07-31T08:04:58.000Z</time>
      </trkpt>
      <trkpt lat="47.31057" lon="4.96124">
        <ele>345.79998779297</ele>
        <time>2014-07-31T08:05:04.000Z</time>
      </trkpt>
      <trkpt lat="47.31057" lon="4.96126">
        <ele>345.60000610352</ele>
        <time>2014-07-31T08:05:05.000Z</time>
      </trkpt>
      <trkpt lat="47.31056" lon="4.96141">
        <ele>344.79998779297</ele>
        <time>2014-07-31T08:05:12.000Z</time>
      </trkpt>
      <trkpt lat="47.31056" lon="4.96143">
        <ele>344.60000610352</ele>
        <time>2014-07-31T08:05:13.000Z</time>
      </trkpt>
      <trkpt lat="47.31056" lon="4.96159">
        <ele>343.60000610352</ele>
        <time>2014-07-31T08:05:19.000Z</time>
      </trkpt>
      <trkpt lat="47.31055" lon="4.96176">
        <ele>342.60000610352</ele>
        <time>2014-07-31T08:05:26.000Z</time>
      </trkpt>
      <trkpt lat="47.31054" lon="4.9619">
        <ele>341.39999389648</ele>
        <time>2014-07-31T08:05:32.000Z</time>
      </trkpt>
      <trkpt lat="47.31054" lon="4.96198">
        <ele>340.79998779297</ele>
        <time>2014-07-31T08:05:36.000Z</time>
      </trkpt>
      <trkpt lat="47.31056" lon="4.96215">
        <ele>339.39999389648</ele>
        <time>2014-07-31T08:05:42.000Z</time>
      </trkpt>
      <trkpt lat="47.31056" lon="4.96218">
        <ele>339.20001220703</ele>
        <time>2014-07-31T08:05:43.000Z</time>
      </trkpt>
      <trkpt lat="47.3106" lon="4.96231">
        <ele>338.60000610352</ele>
        <time>2014-07-31T08:05:48.000Z</time>
      </trkpt>
      <trkpt lat="47.31065" lon="4.96248">
        <ele>337.79998779297</ele>
        <time>2014-07-31T08:05:55.000Z</time>
      </trkpt>
      <trkpt lat="47.31068" lon="4.96255">
        <ele>337.60000610352</ele>
        <time>2014-07-31T08:05:58.000Z</time>
      </trkpt>
      <trkpt lat="47.31072" lon="4.9627">
        <ele>336.79998779297</ele>
        <time>2014-07-31T08:06:04.000Z</time>
      </trkpt>
      <trkpt lat="47.31072" lon="4.96278">
        <ele>336.39999389648</ele>
        <time>2014-07-31T08:06:07.000Z</time>
      </trkpt>
      <trkpt lat="47.31074" lon="4.96288">
        <ele>336.39999389648</ele>
        <time>2014-07-31T08:06:11.000Z</time>
      </trkpt>
      <trkpt lat="47.31079" lon="4.96305">
        <ele>335.79998779297</ele>
        <time>2014-07-31T08:06:18.000Z</time>
      </trkpt>
      <trkpt lat="47.31084" lon="4.96311">
        <ele>336</ele>
        <time>2014-07-31T08:06:21.000Z</time>
      </trkpt>
      <trkpt lat="47.31086" lon="4.96315">
        <ele>336.39999389648</ele>
        <time>2014-07-31T08:06:23.000Z</time>
      </trkpt>
      <trkpt lat="47.31089" lon="4.96324">
        <ele>336.60000610352</ele>
        <time>2014-07-31T08:06:27.000Z</time>
      </trkpt>
      <trkpt lat="47.3109" lon="4.96332">
        <ele>336.60000610352</ele>
        <time>2014-07-31T08:06:30.000Z</time>
      </trkpt>
      <trkpt lat="47.31094" lon="4.96341">
        <ele>337</ele>
        <time>2014-07-31T08:06:34.000Z</time>
      </trkpt>
      <trkpt lat="47.31104" lon="4.9635">
        <ele>338.20001220703</ele>
        <time>2014-07-31T08:06:40.000Z</time>
      </trkpt>
      <trkpt lat="47.31111" lon="4.96357">
        <ele>339.20001220703</ele>
        <time>2014-07-31T08:06:44.000Z</time>
      </trkpt>
      <trkpt lat="47.31115" lon="4.96365">
        <ele>339.79998779297</ele>
        <time>2014-07-31T08:06:48.000Z</time>
      </trkpt>
      <trkpt lat="47.31121" lon="4.96379">
        <ele>339.79998779297</ele>
        <time>2014-07-31T08:06:54.000Z</time>
      </trkpt>
      <trkpt lat="47.31124" lon="4.96383">
        <ele>339.60000610352</ele>
        <time>2014-07-31T08:06:56.000Z</time>
      </trkpt>
      <trkpt lat="47.31126" lon="4.96387">
        <ele>339.39999389648</ele>
        <time>2014-07-31T08:06:58.000Z</time>
      </trkpt>
      <trkpt lat="47.31132" lon="4.964">
        <ele>338.39999389648</ele>
        <time>2014-07-31T08:07:04.000Z</time>
      </trkpt>
      <trkpt lat="47.31134" lon="4.9641">
        <ele>337.39999389648</ele>
        <time>2014-07-31T08:07:08.000Z</time>
      </trkpt>
      <trkpt lat="47.3114" lon="4.96421">
        <ele>336.60000610352</ele>
        <time>2014-07-31T08:07:14.000Z</time>
      </trkpt>
      <trkpt lat="47.31143" lon="4.96432">
        <ele>335.60000610352</ele>
        <time>2014-07-31T08:07:19.000Z</time>
      </trkpt>
      <trkpt lat="47.31145" lon="4.96434">
        <ele>335.39999389648</ele>
        <time>2014-07-31T08:07:21.000Z</time>
      </trkpt>
      <trkpt lat="47.31153" lon="4.96447">
        <ele>334.79998779297</ele>
        <time>2014-07-31T08:07:28.000Z</time>
      </trkpt>
      <trkpt lat="47.31157" lon="4.9646">
        <ele>335</ele>
        <time>2014-07-31T08:07:33.000Z</time>
      </trkpt>
      <trkpt lat="47.31158" lon="4.96464">
        <ele>334.79998779297</ele>
        <time>2014-07-31T08:07:35.000Z</time>
      </trkpt>
      <trkpt lat="47.3116" lon="4.96474">
        <ele>334</ele>
        <time>2014-07-31T08:07:39.000Z</time>
      </trkpt>
      <trkpt lat="47.31163" lon="4.96479">
        <ele>333.39999389648</ele>
        <time>2014-07-31T08:07:42.000Z</time>
      </trkpt>
      <trkpt lat="47.31165" lon="4.96486">
        <ele>333.39999389648</ele>
        <time>2014-07-31T08:07:45.000Z</time>
      </trkpt>
      <trkpt lat="47.3117" lon="4.965">
        <ele>333.79998779297</ele>
        <time>2014-07-31T08:07:51.000Z</time>
      </trkpt>
      <trkpt lat="47.31171" lon="4.96501">
        <ele>334</ele>
        <time>2014-07-31T08:07:52.000Z</time>
      </trkpt>
      <trkpt lat="47.31175" lon="4.96512">
        <ele>334.39999389648</ele>
        <time>2014-07-31T08:07:58.000Z</time>
      </trkpt>
      <trkpt lat="47.31174" lon="4.9652">
        <ele>333.60000610352</ele>
        <time>2014-07-31T08:08:01.000Z</time>
      </trkpt>
      <trkpt lat="47.31175" lon="4.96535">
        <ele>332.60000610352</ele>
        <time>2014-07-31T08:08:07.000Z</time>
      </trkpt>
      <trkpt lat="47.31174" lon="4.96539">
        <ele>332.20001220703</ele>
        <time>2014-07-31T08:08:08.000Z</time>
      </trkpt>
      <trkpt lat="47.31175" lon="4.96549">
        <ele>331.79998779297</ele>
        <time>2014-07-31T08:08:12.000Z</time>
      </trkpt>
      <trkpt lat="47.31176" lon="4.96553">
        <ele>331.79998779297</ele>
        <time>2014-07-31T08:08:14.000Z</time>
      </trkpt>
      <trkpt lat="47.31176" lon="4.96567">
        <ele>331.39999389648</ele>
        <time>2014-07-31T08:08:20.000Z</time>
      </trkpt>
      <trkpt lat="47.31174" lon="4.9658">
        <ele>331</ele>
        <time>2014-07-31T08:08:24.000Z</time>
      </trkpt>
      <trkpt lat="47.31176" lon="4.96593">
        <ele>331.20001220703</ele>
        <time>2014-07-31T08:08:29.000Z</time>
      </trkpt>
      <trkpt lat="47.31177" lon="4.96596">
        <ele>331.39999389648</ele>
        <time>2014-07-31T08:08:31.000Z</time>
      </trkpt>
      <trkpt lat="47.31176" lon="4.96604">
        <ele>331</ele>
        <time>2014-07-31T08:08:35.000Z</time>
      </trkpt>
      <trkpt lat="47.31174" lon="4.96616">
        <ele>330.60000610352</ele>
        <time>2014-07-31T08:08:41.000Z</time>
      </trkpt>
      <trkpt lat="47.31172" lon="4.96627">
        <ele>330</ele>
        <time>2014-07-31T08:08:46.000Z</time>
      </trkpt>
      <trkpt lat="47.31169" lon="4.96644">
        <ele>328.79998779297</ele>
        <time>2014-07-31T08:08:52.000Z</time>
      </trkpt>
      <trkpt lat="47.31169" lon="4.96649">
        <ele>328.79998779297</ele>
        <time>2014-07-31T08:08:54.000Z</time>
      </trkpt>
      <trkpt lat="47.31168" lon="4.96667">
        <ele>328.39999389648</ele>
        <time>2014-07-31T08:09:01.000Z</time>
      </trkpt>
      <trkpt lat="47.31168" lon="4.96669">
        <ele>328.39999389648</ele>
        <time>2014-07-31T08:09:02.000Z</time>
      </trkpt>
      <trkpt lat="47.3117" lon="4.96688">
        <ele>328.60000610352</ele>
        <time>2014-07-31T08:09:09.000Z</time>
      </trkpt>
      <trkpt lat="47.31171" lon="4.96702">
        <ele>328.60000610352</ele>
        <time>2014-07-31T08:09:13.000Z</time>
      </trkpt>
      <trkpt lat="47.31177" lon="4.9672">
        <ele>327.79998779297</ele>
        <time>2014-07-31T08:09:20.000Z</time>
      </trkpt>
      <trkpt lat="47.31177" lon="4.96727">
        <ele>327.60000610352</ele>
        <time>2014-07-31T08:09:22.000Z</time>
      </trkpt>
      <trkpt lat="47.31181" lon="4.96739">
        <ele>327.39999389648</ele>
        <time>2014-07-31T08:09:27.000Z</time>
      </trkpt>
      <trkpt lat="47.31182" lon="4.96743">
        <ele>327.39999389648</ele>
        <time>2014-07-31T08:09:29.000Z</time>
      </trkpt>
      <trkpt lat="47.31189" lon="4.96757">
        <ele>327.60000610352</ele>
        <time>2014-07-31T08:09:36.000Z</time>
      </trkpt>
      <trkpt lat="47.31195" lon="4.96772">
        <ele>327.79998779297</ele>
        <time>2014-07-31T08:09:42.000Z</time>
      </trkpt>
      <trkpt lat="47.31199" lon="4.96787">
        <ele>327.60000610352</ele>
        <time>2014-07-31T08:09:48.000Z</time>
      </trkpt>
      <trkpt lat="47.31204" lon="4.968">
        <ele>326.60000610352</ele>
        <time>2014-07-31T08:09:53.000Z</time>
      </trkpt>
      <trkpt lat="47.31203" lon="4.96811">
        <ele>325</ele>
        <time>2014-07-31T08:09:58.000Z</time>
      </trkpt>
      <trkpt lat="47.31201" lon="4.96812">
        <ele>324.60000610352</ele>
        <time>2014-07-31T08:09:59.000Z</time>
      </trkpt>
      <trkpt lat="47.3119" lon="4.96818">
        <ele>323</ele>
        <time>2014-07-31T08:10:04.000Z</time>
      </trkpt>
      <trkpt lat="47.3118" lon="4.96824">
        <ele>323</ele>
        <time>2014-07-31T08:10:09.000Z</time>
      </trkpt>
      <trkpt lat="47.31168" lon="4.96831">
        <ele>323</ele>
        <time>2014-07-31T08:10:15.000Z</time>
      </trkpt>
      <trkpt lat="47.31167" lon="4.96831">
        <ele>323</ele>
        <time>2014-07-31T08:10:16.000Z</time>
      </trkpt>
      <trkpt lat="47.31157" lon="4.96834">
        <ele>324.79998779297</ele>
        <time>2014-07-31T08:10:23.000Z</time>
      </trkpt>
      <trkpt lat="47.31145" lon="4.9684">
        <ele>327.79998779297</ele>
        <time>2014-07-31T08:10:30.000Z</time>
      </trkpt>
      <trkpt lat="47.31132" lon="4.9685">
        <ele>329.79998779297</ele>
        <time>2014-07-31T08:10:37.000Z</time>
      </trkpt>
      <trkpt lat="47.31123" lon="4.96856">
        <ele>329.79998779297</ele>
        <time>2014-07-31T08:10:42.000Z</time>
      </trkpt>
      <trkpt lat="47.31117" lon="4.96857">
        <ele>330.60000610352</ele>
        <time>2014-07-31T08:10:46.000Z</time>
      </trkpt>
      <trkpt lat="47.31108" lon="4.96863">
        <ele>330.60000610352</ele>
        <time>2014-07-31T08:10:51.000Z</time>
      </trkpt>
      <trkpt lat="47.31099" lon="4.96868">
        <ele>330.79998779297</ele>
        <time>2014-07-31T08:10:57.000Z</time>
      </trkpt>
      <trkpt lat="47.31092" lon="4.96872">
        <ele>330.79998779297</ele>
        <time>2014-07-31T08:11:01.000Z</time>
      </trkpt>
      <trkpt lat="47.31088" lon="4.96875">
        <ele>331.20001220703</ele>
        <time>2014-07-31T08:11:04.000Z</time>
      </trkpt>
      <trkpt lat="47.31083" lon="4.9688">
        <ele>332</ele>
        <time>2014-07-31T08:11:08.000Z</time>
      </trkpt>
      <trkpt lat="47.31079" lon="4.96884">
        <ele>332.39999389648</ele>
        <time>2014-07-31T08:11:13.000Z</time>
      </trkpt>
      <trkpt lat="47.31076" lon="4.96888">
        <ele>333.20001220703</ele>
        <time>2014-07-31T08:11:19.000Z</time>
      </trkpt>
      <trkpt lat="47.31071" lon="4.96901">
        <ele>335</ele>
        <time>2014-07-31T08:11:26.000Z</time>
      </trkpt>
      <trkpt lat="47.31063" lon="4.96913">
        <ele>337.60000610352</ele>
        <time>2014-07-31T08:11:33.000Z</time>
      </trkpt>
      <trkpt lat="47.31056" lon="4.96926">
        <ele>339.79998779297</ele>
        <time>2014-07-31T08:11:40.000Z</time>
      </trkpt>
      <trkpt lat="47.31049" lon="4.96936">
        <ele>340.39999389648</ele>
        <time>2014-07-31T08:11:46.000Z</time>
      </trkpt>
      <trkpt lat="47.31043" lon="4.96943">
        <ele>340</ele>
        <time>2014-07-31T08:11:51.000Z</time>
      </trkpt>
      <trkpt lat="47.31034" lon="4.96954">
        <ele>339.39999389648</ele>
        <time>2014-07-31T08:11:58.000Z</time>
      </trkpt>
      <trkpt lat="47.31026" lon="4.96962">
        <ele>340.60000610352</ele>
        <time>2014-07-31T08:12:04.000Z</time>
      </trkpt>
      <trkpt lat="47.31021" lon="4.96969">
        <ele>342.60000610352</ele>
        <time>2014-07-31T08:12:08.000Z</time>
      </trkpt>
      <trkpt lat="47.3101" lon="4.96978">
        <ele>344</ele>
        <time>2014-07-31T08:12:15.000Z</time>
      </trkpt>
      <trkpt lat="47.31002" lon="4.96989">
        <ele>342.20001220703</ele>
        <time>2014-07-31T08:12:22.000Z</time>
      </trkpt>
      <trkpt lat="47.30995" lon="4.96997">
        <ele>341.20001220703</ele>
        <time>2014-07-31T08:12:28.000Z</time>
      </trkpt>
      <trkpt lat="47.30984" lon="4.97008">
        <ele>343.20001220703</ele>
        <time>2014-07-31T08:12:36.000Z</time>
      </trkpt>
      <trkpt lat="47.30977" lon="4.97017">
        <ele>344.39999389648</ele>
        <time>2014-07-31T08:12:42.000Z</time>
      </trkpt>
      <trkpt lat="47.30968" lon="4.97029">
        <ele>344.79998779297</ele>
        <time>2014-07-31T08:12:49.000Z</time>
      </trkpt>
      <trkpt lat="47.3096" lon="4.97039">
        <ele>344.79998779297</ele>
        <time>2014-07-31T08:12:55.000Z</time>
      </trkpt>
      <trkpt lat="47.30951" lon="4.97052">
        <ele>347.60000610352</ele>
        <time>2014-07-31T08:13:02.000Z</time>
      </trkpt>
      <trkpt lat="47.30942" lon="4.97065">
        <ele>350.79998779297</ele>
        <time>2014-07-31T08:13:09.000Z</time>
      </trkpt>
      <trkpt lat="47.30935" lon="4.97073">
        <ele>350.60000610352</ele>
        <time>2014-07-31T08:13:14.000Z</time>
      </trkpt>
      <trkpt lat="47.30927" lon="4.97084">
        <ele>348.39999389648</ele>
        <time>2014-07-31T08:13:20.000Z</time>
      </trkpt>
      <trkpt lat="47.3092" lon="4.97092">
        <ele>347</ele>
        <time>2014-07-31T08:13:25.000Z</time>
      </trkpt>
      <trkpt lat="47.30917" lon="4.97094">
        <ele>346.60000610352</ele>
        <time>2014-07-31T08:13:30.000Z</time>
      </trkpt>
      <trkpt lat="47.30914" lon="4.971">
        <ele>345.60000610352</ele>
        <time>2014-07-31T08:13:34.000Z</time>
      </trkpt>
      <trkpt lat="47.30908" lon="4.97112">
        <ele>344.39999389648</ele>
        <time>2014-07-31T08:13:40.000Z</time>
      </trkpt>
      <trkpt lat="47.30903" lon="4.97124">
        <ele>342.79998779297</ele>
        <time>2014-07-31T08:13:46.000Z</time>
      </trkpt>
      <trkpt lat="47.30899" lon="4.97137">
        <ele>344</ele>
        <time>2014-07-31T08:13:52.000Z</time>
      </trkpt>
      <trkpt lat="47.30897" lon="4.9714">
        <ele>344.39999389648</ele>
        <time>2014-07-31T08:13:54.000Z</time>
      </trkpt>
      <trkpt lat="47.30892" lon="4.97157">
        <ele>345.79998779297</ele>
        <time>2014-07-31T08:14:02.000Z</time>
      </trkpt>
      <trkpt lat="47.30888" lon="4.97169">
        <ele>346.79998779297</ele>
        <time>2014-07-31T08:14:08.000Z</time>
      </trkpt>
      <trkpt lat="47.30888" lon="4.97171">
        <ele>347</ele>
        <time>2014-07-31T08:14:09.000Z</time>
      </trkpt>
      <trkpt lat="47.30881" lon="4.97181">
        <ele>348.20001220703</ele>
        <time>2014-07-31T08:14:16.000Z</time>
      </trkpt>
      <trkpt lat="47.30876" lon="4.97203">
        <ele>350.20001220703</ele>
        <time>2014-07-31T08:14:24.000Z</time>
      </trkpt>
      <trkpt lat="47.30874" lon="4.9722">
        <ele>351.79998779297</ele>
        <time>2014-07-31T08:14:31.000Z</time>
      </trkpt>
      <trkpt lat="47.30873" lon="4.97228">
        <ele>352.60000610352</ele>
        <time>2014-07-31T08:14:34.000Z</time>
      </trkpt>
      <trkpt lat="47.30872" lon="4.97239">
        <ele>353.60000610352</ele>
        <time>2014-07-31T08:14:39.000Z</time>
      </trkpt>
      <trkpt lat="47.30872" lon="4.9725">
        <ele>354.60000610352</ele>
        <time>2014-07-31T08:14:44.000Z</time>
      </trkpt>
      <trkpt lat="47.30872" lon="4.97257">
        <ele>354.79998779297</ele>
        <time>2014-07-31T08:14:48.000Z</time>
      </trkpt>
      <trkpt lat="47.30869" lon="4.97269">
        <ele>355.60000610352</ele>
        <time>2014-07-31T08:14:53.000Z</time>
      </trkpt>
      <trkpt lat="47.30868" lon="4.97278">
        <ele>356</ele>
        <time>2014-07-31T08:14:57.000Z</time>
      </trkpt>
      <trkpt lat="47.30868" lon="4.97287">
        <ele>356.60000610352</ele>
        <time>2014-07-31T08:15:01.000Z</time>
      </trkpt>
      <trkpt lat="47.30869" lon="4.97297">
        <ele>357.20001220703</ele>
        <time>2014-07-31T08:15:05.000Z</time>
      </trkpt>
      <trkpt lat="47.30867" lon="4.97311">
        <ele>358.60000610352</ele>
        <time>2014-07-31T08:15:11.000Z</time>
      </trkpt>
      <trkpt lat="47.30867" lon="4.97321">
        <ele>359.60000610352</ele>
        <time>2014-07-31T08:15:16.000Z</time>
      </trkpt>
      <trkpt lat="47.30866" lon="4.97323">
        <ele>359.79998779297</ele>
        <time>2014-07-31T08:15:17.000Z</time>
      </trkpt>
      <trkpt lat="47.30865" lon="4.97327">
        <ele>360.20001220703</ele>
        <time>2014-07-31T08:15:19.000Z</time>
      </trkpt>
      <trkpt lat="47.30864" lon="4.97331">
        <ele>360.39999389648</ele>
        <time>2014-07-31T08:15:21.000Z</time>
      </trkpt>
      <trkpt lat="47.30862" lon="4.97335">
        <ele>360.60000610352</ele>
        <time>2014-07-31T08:15:23.000Z</time>
      </trkpt>
      <trkpt lat="47.30861" lon="4.97346">
        <ele>361</ele>
        <time>2014-07-31T08:15:28.000Z</time>
      </trkpt>
      <trkpt lat="47.30859" lon="4.97356">
        <ele>361.39999389648</ele>
        <time>2014-07-31T08:15:33.000Z</time>
      </trkpt>
      <trkpt lat="47.30859" lon="4.97358">
        <ele>361.39999389648</ele>
        <time>2014-07-31T08:15:34.000Z</time>
      </trkpt>
      <trkpt lat="47.30858" lon="4.97362">
        <ele>361.60000610352</ele>
        <time>2014-07-31T08:15:36.000Z</time>
      </trkpt>
      <trkpt lat="47.30856" lon="4.97373">
        <ele>362</ele>
        <time>2014-07-31T08:15:41.000Z</time>
      </trkpt>
      <trkpt lat="47.30855" lon="4.97376">
        <ele>362</ele>
        <time>2014-07-31T08:15:42.000Z</time>
      </trkpt>
      <trkpt lat="47.30848" lon="4.97394">
        <ele>362.39999389648</ele>
        <time>2014-07-31T08:15:50.000Z</time>
      </trkpt>
      <trkpt lat="47.30844" lon="4.97407">
        <ele>362.39999389648</ele>
        <time>2014-07-31T08:15:56.000Z</time>
      </trkpt>
      <trkpt lat="47.30839" lon="4.9742">
        <ele>362.20001220703</ele>
        <time>2014-07-31T08:16:02.000Z</time>
      </trkpt>
      <trkpt lat="47.30836" lon="4.97429">
        <ele>362.20001220703</ele>
        <time>2014-07-31T08:16:06.000Z</time>
      </trkpt>
      <trkpt lat="47.30833" lon="4.97438">
        <ele>362</ele>
        <time>2014-07-31T08:16:10.000Z</time>
      </trkpt>
      <trkpt lat="47.30827" lon="4.97461">
        <ele>362</ele>
        <time>2014-07-31T08:16:19.000Z</time>
      </trkpt>
      <trkpt lat="47.30821" lon="4.97482">
        <ele>362.39999389648</ele>
        <time>2014-07-31T08:16:28.000Z</time>
      </trkpt>
      <trkpt lat="47.30815" lon="4.97502">
        <ele>362.79998779297</ele>
        <time>2014-07-31T08:16:37.000Z</time>
      </trkpt>
      <trkpt lat="47.3081" lon="4.97522">
        <ele>363</ele>
        <time>2014-07-31T08:16:46.000Z</time>
      </trkpt>
      <trkpt lat="47.30803" lon="4.97546">
        <ele>363.20001220703</ele>
        <time>2014-07-31T08:16:57.000Z</time>
      </trkpt>
      <trkpt lat="47.30797" lon="4.97569">
        <ele>363.60000610352</ele>
        <time>2014-07-31T08:17:07.000Z</time>
      </trkpt>
      <trkpt lat="47.30796" lon="4.97571">
        <ele>363.79998779297</ele>
        <time>2014-07-31T08:17:08.000Z</time>
      </trkpt>
      <trkpt lat="47.30792" lon="4.97585">
        <ele>364</ele>
        <time>2014-07-31T08:17:14.000Z</time>
      </trkpt>
      <trkpt lat="47.30787" lon="4.97605">
        <ele>364</ele>
        <time>2014-07-31T08:17:23.000Z</time>
      </trkpt>
      <trkpt lat="47.30781" lon="4.97627">
        <ele>363.79998779297</ele>
        <time>2014-07-31T08:17:33.000Z</time>
      </trkpt>
      <trkpt lat="47.30777" lon="4.97643">
        <ele>363.60000610352</ele>
        <time>2014-07-31T08:17:40.000Z</time>
      </trkpt>
      <trkpt lat="47.30771" lon="4.9766">
        <ele>363.60000610352</ele>
        <time>2014-07-31T08:17:48.000Z</time>
      </trkpt>
      <trkpt lat="47.30766" lon="4.9768">
        <ele>364</ele>
        <time>2014-07-31T08:17:57.000Z</time>
      </trkpt>
      <trkpt lat="47.30759" lon="4.97701">
        <ele>364.60000610352</ele>
        <time>2014-07-31T08:18:07.000Z</time>
      </trkpt>
      <trkpt lat="47.30755" lon="4.97716">
        <ele>365</ele>
        <time>2014-07-31T08:18:14.000Z</time>
      </trkpt>
      <trkpt lat="47.3075" lon="4.97732">
        <ele>365</ele>
        <time>2014-07-31T08:18:22.000Z</time>
      </trkpt>
      <trkpt lat="47.30743" lon="4.97758">
        <ele>365</ele>
        <time>2014-07-31T08:18:34.000Z</time>
      </trkpt>
      <trkpt lat="47.30738" lon="4.97782">
        <ele>365.20001220703</ele>
        <time>2014-07-31T08:18:44.000Z</time>
      </trkpt>
      <trkpt lat="47.30737" lon="4.97803">
        <ele>365.20001220703</ele>
        <time>2014-07-31T08:18:53.000Z</time>
      </trkpt>
      <trkpt lat="47.30741" lon="4.97822">
        <ele>365.39999389648</ele>
        <time>2014-07-31T08:19:02.000Z</time>
      </trkpt>
      <trkpt lat="47.30749" lon="4.97839">
        <ele>365.60000610352</ele>
        <time>2014-07-31T08:19:11.000Z</time>
      </trkpt>
      <trkpt lat="47.30761" lon="4.97853">
        <ele>365.39999389648</ele>
        <time>2014-07-31T08:19:20.000Z</time>
      </trkpt>
      <trkpt lat="47.30772" lon="4.97865">
        <ele>365.20001220703</ele>
        <time>2014-07-31T08:19:28.000Z</time>
      </trkpt>
      <trkpt lat="47.30784" lon="4.97881">
        <ele>365.20001220703</ele>
        <time>2014-07-31T08:19:37.000Z</time>
      </trkpt>
      <trkpt lat="47.30795" lon="4.97894">
        <ele>364.79998779297</ele>
        <time>2014-07-31T08:19:45.000Z</time>
      </trkpt>
      <trkpt lat="47.30808" lon="4.97908">
        <ele>364.60000610352</ele>
        <time>2014-07-31T08:19:54.000Z</time>
      </trkpt>
      <trkpt lat="47.30807" lon="4.9792">
        <ele>364.60000610352</ele>
        <time>2014-07-31T08:19:59.000Z</time>
      </trkpt>
      <trkpt lat="47.30799" lon="4.97938">
        <ele>364.39999389648</ele>
        <time>2014-07-31T08:20:08.000Z</time>
      </trkpt>
      <trkpt lat="47.30792" lon="4.9795">
        <ele>364.20001220703</ele>
        <time>2014-07-31T08:20:14.000Z</time>
      </trkpt>
      <trkpt lat="47.3078" lon="4.97972">
        <ele>364</ele>
        <time>2014-07-31T08:20:25.000Z</time>
      </trkpt>
      <trkpt lat="47.3077" lon="4.97991">
        <ele>363.79998779297</ele>
        <time>2014-07-31T08:20:35.000Z</time>
      </trkpt>
      <trkpt lat="47.30758" lon="4.9801">
        <ele>363.60000610352</ele>
        <time>2014-07-31T08:20:45.000Z</time>
      </trkpt>
      <trkpt lat="47.30746" lon="4.98031">
        <ele>363.20001220703</ele>
        <time>2014-07-31T08:20:56.000Z</time>
      </trkpt>
      <trkpt lat="47.30733" lon="4.98053">
        <ele>363</ele>
        <time>2014-07-31T08:21:07.000Z</time>
      </trkpt>
      <trkpt lat="47.30722" lon="4.98072">
        <ele>363</ele>
        <time>2014-07-31T08:21:17.000Z</time>
      </trkpt>
      <trkpt lat="47.30716" lon="4.98083">
        <ele>362.79998779297</ele>
        <time>2014-07-31T08:21:23.000Z</time>
      </trkpt>
      <trkpt lat="47.30706" lon="4.98102">
        <ele>362.60000610352</ele>
        <time>2014-07-31T08:21:32.000Z</time>
      </trkpt>
      <trkpt lat="47.30694" lon="4.98122">
        <ele>362</ele>
        <time>2014-07-31T08:21:43.000Z</time>
      </trkpt>
      <trkpt lat="47.30681" lon="4.98143">
        <ele>361.39999389648</ele>
        <time>2014-07-31T08:21:54.000Z</time>
      </trkpt>
      <trkpt lat="47.3067" lon="4.98164">
        <ele>360.60000610352</ele>
        <time>2014-07-31T08:22:04.000Z</time>
      </trkpt>
      <trkpt lat="47.30659" lon="4.98183">
        <ele>359.79998779297</ele>
        <time>2014-07-31T08:22:14.000Z</time>
      </trkpt>
      <trkpt lat="47.30648" lon="4.98203">
        <ele>359</ele>
        <time>2014-07-31T08:22:24.000Z</time>
      </trkpt>
      <trkpt lat="47.30635" lon="4.98225">
        <ele>358.79998779297</ele>
        <time>2014-07-31T08:22:35.000Z</time>
      </trkpt>
      <trkpt lat="47.30627" lon="4.9824">
        <ele>358.60000610352</ele>
        <time>2014-07-31T08:22:43.000Z</time>
      </trkpt>
      <trkpt lat="47.30617" lon="4.98257">
        <ele>358.20001220703</ele>
        <time>2014-07-31T08:22:52.000Z</time>
      </trkpt>
      <trkpt lat="47.30616" lon="4.98261">
        <ele>358.20001220703</ele>
        <time>2014-07-31T08:22:54.000Z</time>
      </trkpt>
      <trkpt lat="47.30612" lon="4.98268">
        <ele>358</ele>
        <time>2014-07-31T08:22:58.000Z</time>
      </trkpt>
      <trkpt lat="47.3061" lon="4.9827">
        <ele>357.79998779297</ele>
        <time>2014-07-31T08:23:00.000Z</time>
      </trkpt>
      <trkpt lat="47.30599" lon="4.98276">
        <ele>357.60000610352</ele>
        <time>2014-07-31T08:23:07.000Z</time>
      </trkpt>
      <trkpt lat="47.30583" lon="4.9828">
        <ele>357.39999389648</ele>
        <time>2014-07-31T08:23:17.000Z</time>
      </trkpt>
      <trkpt lat="47.3057" lon="4.98279">
        <ele>357.20001220703</ele>
        <time>2014-07-31T08:23:25.000Z</time>
      </trkpt>
      <trkpt lat="47.30559" lon="4.98265">
        <ele>357.39999389648</ele>
        <time>2014-07-31T08:23:35.000Z</time>
      </trkpt>
      <trkpt lat="47.30548" lon="4.9825">
        <ele>357.60000610352</ele>
        <time>2014-07-31T08:23:44.000Z</time>
      </trkpt>
      <trkpt lat="47.30539" lon="4.98238">
        <ele>357.79998779297</ele>
        <time>2014-07-31T08:23:52.000Z</time>
      </trkpt>
      <trkpt lat="47.30528" lon="4.98225">
        <ele>358</ele>
        <time>2014-07-31T08:24:01.000Z</time>
      </trkpt>
      <trkpt lat="47.30527" lon="4.98223">
        <ele>358</ele>
        <time>2014-07-31T08:24:02.000Z</time>
      </trkpt>
      <trkpt lat="47.30519" lon="4.98212">
        <ele>358.20001220703</ele>
        <time>2014-07-31T08:24:09.000Z</time>
      </trkpt>
      <trkpt lat="47.3051" lon="4.982">
        <ele>358.39999389648</ele>
        <time>2014-07-31T08:24:17.000Z</time>
      </trkpt>
      <trkpt lat="47.30502" lon="4.98189">
        <ele>358.60000610352</ele>
        <time>2014-07-31T08:24:24.000Z</time>
      </trkpt>
      <trkpt lat="47.30492" lon="4.98175">
        <ele>358.79998779297</ele>
        <time>2014-07-31T08:24:32.000Z</time>
      </trkpt>
      <trkpt lat="47.30482" lon="4.9816">
        <ele>359</ele>
        <time>2014-07-31T08:24:41.000Z</time>
      </trkpt>
      <trkpt lat="47.30471" lon="4.98146">
        <ele>359.20001220703</ele>
        <time>2014-07-31T08:24:50.000Z</time>
      </trkpt>
      <trkpt lat="47.30469" lon="4.98146">
        <ele>359.20001220703</ele>
        <time>2014-07-31T08:24:52.000Z</time>
      </trkpt>
      <trkpt lat="47.30466" lon="4.98148">
        <ele>359</ele>
        <time>2014-07-31T08:24:57.000Z</time>
      </trkpt>
      <trkpt lat="47.30465" lon="4.9815">
        <ele>359</ele>
        <time>2014-07-31T08:25:00.000Z</time>
      </trkpt>
      <trkpt lat="47.30459" lon="4.98144">
        <ele>359</ele>
        <time>2014-07-31T08:25:06.000Z</time>
      </trkpt>
      <trkpt lat="47.30451" lon="4.98138">
        <ele>359.20001220703</ele>
        <time>2014-07-31T08:25:12.000Z</time>
      </trkpt>
      <trkpt lat="47.30442" lon="4.98134">
        <ele>359.20001220703</ele>
        <time>2014-07-31T08:25:19.000Z</time>
      </trkpt>
      <trkpt lat="47.30441" lon="4.98134">
        <ele>359.20001220703</ele>
        <time>2014-07-31T08:25:20.000Z</time>
      </trkpt>
      <trkpt lat="47.30431" lon="4.98135">
        <ele>359</ele>
        <time>2014-07-31T08:25:26.000Z</time>
      </trkpt>
      <trkpt lat="47.30422" lon="4.98135">
        <ele>358.79998779297</ele>
        <time>2014-07-31T08:25:32.000Z</time>
      </trkpt>
      <trkpt lat="47.30413" lon="4.98137">
        <ele>358.79998779297</ele>
        <time>2014-07-31T08:25:37.000Z</time>
      </trkpt>
      <trkpt lat="47.30401" lon="4.98139">
        <ele>359.20001220703</ele>
        <time>2014-07-31T08:25:44.000Z</time>
      </trkpt>
      <trkpt lat="47.3039" lon="4.98141">
        <ele>359.60000610352</ele>
        <time>2014-07-31T08:25:51.000Z</time>
      </trkpt>
      <trkpt lat="47.30375" lon="4.98142">
        <ele>360.20001220703</ele>
        <time>2014-07-31T08:25:59.000Z</time>
      </trkpt>
      <trkpt lat="47.30359" lon="4.98142">
        <ele>360.79998779297</ele>
        <time>2014-07-31T08:26:08.000Z</time>
      </trkpt>
      <trkpt lat="47.30348" lon="4.98141">
        <ele>361.20001220703</ele>
        <time>2014-07-31T08:26:15.000Z</time>
      </trkpt>
      <trkpt lat="47.30339" lon="4.98141">
        <ele>361.20001220703</ele>
        <time>2014-07-31T08:26:20.000Z</time>
      </trkpt>
      <trkpt lat="47.30331" lon="4.98139">
        <ele>361.39999389648</ele>
        <time>2014-07-31T08:26:25.000Z</time>
      </trkpt>
      <trkpt lat="47.30315" lon="4.98136">
        <ele>362.39999389648</ele>
        <time>2014-07-31T08:26:34.000Z</time>
      </trkpt>
      <trkpt lat="47.303" lon="4.98137">
        <ele>363</ele>
        <time>2014-07-31T08:26:43.000Z</time>
      </trkpt>
      <trkpt lat="47.3029" lon="4.98142">
        <ele>363.39999389648</ele>
        <time>2014-07-31T08:26:50.000Z</time>
      </trkpt>
      <trkpt lat="47.30283" lon="4.98146">
        <ele>363.60000610352</ele>
        <time>2014-07-31T08:26:55.000Z</time>
      </trkpt>
      <trkpt lat="47.30276" lon="4.98153">
        <ele>363.60000610352</ele>
        <time>2014-07-31T08:27:01.000Z</time>
      </trkpt>
      <trkpt lat="47.30267" lon="4.98163">
        <ele>363.60000610352</ele>
        <time>2014-07-31T08:27:08.000Z</time>
      </trkpt>
      <trkpt lat="47.30254" lon="4.98178">
        <ele>363.79998779297</ele>
        <time>2014-07-31T08:27:19.000Z</time>
      </trkpt>
      <trkpt lat="47.30243" lon="4.98185">
        <ele>364</ele>
        <time>2014-07-31T08:27:26.000Z</time>
      </trkpt>
      <trkpt lat="47.30233" lon="4.98186">
        <ele>364.20001220703</ele>
        <time>2014-07-31T08:27:32.000Z</time>
      </trkpt>
      <trkpt lat="47.30227" lon="4.98184">
        <ele>364.39999389648</ele>
        <time>2014-07-31T08:27:36.000Z</time>
      </trkpt>
      <trkpt lat="47.30219" lon="4.98183">
        <ele>364.60000610352</ele>
        <time>2014-07-31T08:27:41.000Z</time>
      </trkpt>
      <trkpt lat="47.30215" lon="4.98186">
        <ele>364.79998779297</ele>
        <time>2014-07-31T08:27:44.000Z</time>
      </trkpt>
      <trkpt lat="47.30209" lon="4.98185">
        <ele>365.20001220703</ele>
        <time>2014-07-31T08:27:50.000Z</time>
      </trkpt>
      <trkpt lat="47.30204" lon="4.98183">
        <ele>365.60000610352</ele>
        <time>2014-07-31T08:27:54.000Z</time>
      </trkpt>
      <trkpt lat="47.30198" lon="4.9818">
        <ele>366</ele>
        <time>2014-07-31T08:28:00.000Z</time>
      </trkpt>
      <trkpt lat="47.30187" lon="4.98183">
        <ele>366.60000610352</ele>
        <time>2014-07-31T08:28:08.000Z</time>
      </trkpt>
      <trkpt lat="47.30183" lon="4.98182">
        <ele>366.79998779297</ele>
        <time>2014-07-31T08:28:11.000Z</time>
      </trkpt>
      <trkpt lat="47.30177" lon="4.98185">
        <ele>367.20001220703</ele>
        <time>2014-07-31T08:28:15.000Z</time>
      </trkpt>
      <trkpt lat="47.30175" lon="4.98191">
        <ele>367.39999389648</ele>
        <time>2014-07-31T08:28:19.000Z</time>
      </trkpt>
      <trkpt lat="47.30175" lon="4.98193">
        <ele>367.39999389648</ele>
        <time>2014-07-31T08:28:20.000Z</time>
      </trkpt>
      <trkpt lat="47.30175" lon="4.98196">
        <ele>367.39999389648</ele>
        <time>2014-07-31T08:28:22.000Z</time>
      </trkpt>
      <trkpt lat="47.30176" lon="4.98205">
        <ele>367.20001220703</ele>
        <time>2014-07-31T08:28:28.000Z</time>
      </trkpt>
      <trkpt lat="47.30176" lon="4.98206">
        <ele>367.20001220703</ele>
        <time>2014-07-31T08:28:29.000Z</time>
      </trkpt>
      <trkpt lat="47.30177" lon="4.98208">
        <ele>367.20001220703</ele>
        <time>2014-07-31T08:28:30.000Z</time>
      </trkpt>
      <trkpt lat="47.30178" lon="4.98213">
        <ele>367.20001220703</ele>
        <time>2014-07-31T08:28:34.000Z</time>
      </trkpt>
      <trkpt lat="47.30176" lon="4.98226">
        <ele>367.39999389648</ele>
        <time>2014-07-31T08:28:40.000Z</time>
      </trkpt>
      <trkpt lat="47.30173" lon="4.98235">
        <ele>367.60000610352</ele>
        <time>2014-07-31T08:28:46.000Z</time>
      </trkpt>
      <trkpt lat="47.30171" lon="4.98242">
        <ele>367.60000610352</ele>
        <time>2014-07-31T08:28:50.000Z</time>
      </trkpt>
      <trkpt lat="47.30167" lon="4.98259">
        <ele>367.79998779297</ele>
        <time>2014-07-31T08:28:57.000Z</time>
      </trkpt>
      <trkpt lat="47.30163" lon="4.98277">
        <ele>368</ele>
        <time>2014-07-31T08:29:05.000Z</time>
      </trkpt>
      <trkpt lat="47.30161" lon="4.98285">
        <ele>368.20001220703</ele>
        <time>2014-07-31T08:29:09.000Z</time>
      </trkpt>
      <trkpt lat="47.30157" lon="4.983">
        <ele>368.60000610352</ele>
        <time>2014-07-31T08:29:16.000Z</time>
      </trkpt>
      <trkpt lat="47.30154" lon="4.98316">
        <ele>369.20001220703</ele>
        <time>2014-07-31T08:29:22.000Z</time>
      </trkpt>
      <trkpt lat="47.30151" lon="4.98334">
        <ele>370</ele>
        <time>2014-07-31T08:29:30.000Z</time>
      </trkpt>
      <trkpt lat="47.30147" lon="4.98351">
        <ele>370.60000610352</ele>
        <time>2014-07-31T08:29:38.000Z</time>
      </trkpt>
      <trkpt lat="47.30142" lon="4.98372">
        <ele>371.39999389648</ele>
        <time>2014-07-31T08:29:47.000Z</time>
      </trkpt>
      <trkpt lat="47.30143" lon="4.98388">
        <ele>371.60000610352</ele>
        <time>2014-07-31T08:29:54.000Z</time>
      </trkpt>
      <trkpt lat="47.30147" lon="4.98406">
        <ele>371.60000610352</ele>
        <time>2014-07-31T08:30:02.000Z</time>
      </trkpt>
      <trkpt lat="47.3015" lon="4.98425">
        <ele>371.60000610352</ele>
        <time>2014-07-31T08:30:10.000Z</time>
      </trkpt>
      <trkpt lat="47.30152" lon="4.98439">
        <ele>371.60000610352</ele>
        <time>2014-07-31T08:30:16.000Z</time>
      </trkpt>
      <trkpt lat="47.30151" lon="4.98447">
        <ele>371.79998779297</ele>
        <time>2014-07-31T08:30:20.000Z</time>
      </trkpt>
      <trkpt lat="47.30149" lon="4.98472">
        <ele>371.79998779297</ele>
        <time>2014-07-31T08:30:30.000Z</time>
      </trkpt>
      <trkpt lat="47.30146" lon="4.9849">
        <ele>372</ele>
        <time>2014-07-31T08:30:38.000Z</time>
      </trkpt>
      <trkpt lat="47.30144" lon="4.98506">
        <ele>372.20001220703</ele>
        <time>2014-07-31T08:30:45.000Z</time>
      </trkpt>
      <trkpt lat="47.3014" lon="4.98528">
        <ele>372.39999389648</ele>
        <time>2014-07-31T08:30:54.000Z</time>
      </trkpt>
      <trkpt lat="47.30137" lon="4.98546">
        <ele>372.60000610352</ele>
        <time>2014-07-31T08:31:02.000Z</time>
      </trkpt>
      <trkpt lat="47.30134" lon="4.98564">
        <ele>373</ele>
        <time>2014-07-31T08:31:10.000Z</time>
      </trkpt>
      <trkpt lat="47.3013" lon="4.98581">
        <ele>373.39999389648</ele>
        <time>2014-07-31T08:31:18.000Z</time>
      </trkpt>
      <trkpt lat="47.30125" lon="4.986">
        <ele>374</ele>
        <time>2014-07-31T08:31:27.000Z</time>
      </trkpt>
      <trkpt lat="47.30123" lon="4.98604">
        <ele>374.20001220703</ele>
        <time>2014-07-31T08:31:29.000Z</time>
      </trkpt>
      <trkpt lat="47.30117" lon="4.98625">
        <ele>374.79998779297</ele>
        <time>2014-07-31T08:31:40.000Z</time>
      </trkpt>
      <trkpt lat="47.30116" lon="4.98628">
        <ele>374.79998779297</ele>
        <time>2014-07-31T08:31:43.000Z</time>
      </trkpt>
      <trkpt lat="47.30115" lon="4.98632">
        <ele>375</ele>
        <time>2014-07-31T08:31:53.000Z</time>
      </trkpt>
    </trkseg>
  </trk>
</gpx>